[[{"header":{"parameterUnit":"m.s-1","parameterCategory":1,"la1":30.6,"la2":28.766,"lo1":-90.7593,"lo2":-88.6598,"dy":0.0162,"dx":0.0183,"nx":116,"ny":114,"refTime":"2024-05-13T12:00:00:Z","depth":0,"parameterNumber":2,"parameterNumberName":"U-component_of_WINDS"},"data":[0.0,0.0,0.0,0.0,0.0,0.0,0.0,0.0,0.0,0.0,0.0,0.0,0.0,0.0,0.0,0.0,0.0,0.0,0.0,0.0,0.0,0.0,0.0,0.0,0.0,0.0,0.0,0.0,0.0,0.0,0.0,0.0,0.0,0.0,0.0,0.0,0.0,0.0,0.0,0.0,0.0,0.0,0.0,0.0,0.0,0.0,0.0,0.0,0.0,0.0,0.0,0.0,0.0,0.0,0.0,0.0,0.0,0.0,0.0,0.0,0.0,0.0,0.0,0.0,0.0,0.0,0.0,0.0,0.0,0.0,0.0,0.0,0.0,0.0,0.0,0.0,0.0,0.0,0.0,0.0,0.0,0.0,0.0,0.0,0.0,0.0,0.0,0.0,0.0,0.0,0.0,0.0,0.0,0.0,0.0,0.0,0.0,0.0,0.0,0.0,0.0,0.0,0.0,0.0,0.0,0.0,0.0,0.0,0.0,0.0,0.0,0.0,0.0,0.0,0.0,0.0,0.0,0.0,0.0,0.0,0.0,0.0,0.0,0.0,0.0,0.0,0.0,0.0,0.0,0.0,0.0,0.0,0.0,0.0,0.0,0.0,0.0,0.0,0.0,0.0,0.0,0.0,0.0,0.0,0.0,0.0,0.0,0.0,0.0,0.0,0.0,0.0,0.0,0.0,0.0,0.0,0.0,0.0,0.0,0.0,0.0,0.0,0.0,0.0,0.0,0.0,0.0,0.0,0.0,0.0,0.0,0.0,0.0,0.0,0.0,0.0,0.0,0.0,0.0,0.0,0.0,0.0,0.0,0.0,0.0,0.0,0.0,0.0,0.0,0.0,0.0,0.0,0.0,0.0,0.0,0.0,0.0,0.0,0.0,0.0,0.0,0.0,0.0,0.0,0.0,0.0,0.0,0.0,0.0,0.0,0.0,0.0,0.0,0.0,0.0,0.0,0.0,0.0,0.0,0.0,0.0,0.0,0.0,0.0,0.0,0.0,0.0,0.0,0.0,0.0,0.0,0.0,0.0,0.0,0.0,0.0,0.0,0.0,0.0,0.0,0.0,0.0,0.0,0.0,0.0,0.0,0.0,0.0,0.0,0.0,0.0,0.0,0.0,0.0,0.0,0.0,0.0,0.0,0.0,0.0,0.0,0.0,0.0,0.0,0.0,0.0,0.0,0.0,0.0,0.0,0.0,0.0,0.0,0.0,0.0,0.0,0.0,0.0,0.0,0.0,0.0,0.0,0.0,0.0,0.0,0.0,0.0,0.0,0.0,0.0,0.0,0.0,0.0,0.0,0.0,0.0,0.0,0.0,0.0,0.0,0.0,0.0,0.0,0.0,0.0,0.0,0.0,0.0,0.0,0.0,0.0,0.0,0.0,0.0,0.0,0.0,0.0,0.0,0.0,0.0,0.0,0.0,0.0,0.0,0.0,0.0,0.0,0.0,0.0,0.0,0.0,0.0,0.0,0.0,0.0,0.0,0.0,0.0,0.0,0.0,0.0,0.0,0.0,0.0,0.0,0.0,0.0,0.0,0.0,0.0,0.0,0.0,0.0,0.0,0.0,0.0,0.0,0.0,0.0,0.0,0.0,0.0,0.0,0.0,0.0,0.0,0.0,0.0,0.0,0.0,0.0,0.0,0.0,0.0,0.0,0.0,0.0,0.0,0.0,0.0,0.0,0.0,0.0,0.0,0.0,0.0,0.0,0.0,0.0,0.0,0.0,0.0,0.0,0.0,0.0,0.0,0.0,0.0,0.0,0.0,0.0,0.0,0.0,0.0,0.0,0.0,0.0,0.0,0.0,0.0,0.0,0.0,0.0,0.0,0.0,0.0,0.0,0.0,0.0,0.0,0.0,0.0,0.0,0.0,0.0,0.0,0.0,0.0,0.0,0.0,0.0,0.0,0.0,0.0,0.0,0.0,0.0,0.0,0.0,0.0,0.0,0.0,0.0,0.0,0.0,0.0,0.0,0.0,0.0,0.0,0.0,0.0,0.0,0.0,0.0,0.0,0.0,0.0,0.0,0.0,0.0,0.0,0.0,0.0,0.0,0.0,0.0,0.0,0.0,0.0,0.0,0.0,0.0,0.0,0.0,0.0,0.0,0.0,0.0,0.0,0.0,0.0,0.0,0.0,0.0,0.0,0.0,0.0,0.0,0.0,0.0,0.0,0.0,0.0,0.0,0.0,0.0,0.0,0.0,0.0,0.0,0.0,0.0,0.0,0.0,0.0,0.0,0.0,0.0,0.0,0.0,0.0,0.0,0.0,0.0,0.0,0.0,0.0,0.0,0.0,0.0,0.0,0.0,0.0,0.0,0.0,0.0,0.0,0.0,0.0,0.0,0.0,0.0,0.0,0.0,0.0,0.0,0.0,0.0,0.0,0.0,0.0,0.0,0.0,0.0,0.0,0.0,0.0,0.0,0.0,0.0,0.0,0.0,0.0,0.0,0.0,0.0,0.0,0.0,0.0,0.0,0.0,0.0,0.0,0.0,0.0,0.0,0.0,0.0,0.0,0.0,0.0,0.0,0.0,0.0,0.0,0.0,0.0,0.0,0.0,0.0,0.0,0.0,0.0,0.0,0.0,0.0,0.0,0.0,0.0,0.0,0.0,0.0,0.0,0.0,0.0,0.0,0.0,0.0,0.0,0.0,0.0,0.0,0.0,0.0,0.0,0.0,0.0,0.0,0.0,0.0,0.0,0.0,0.0,0.0,0.0,0.0,0.0,0.0,0.0,0.0,0.0,0.0,0.0,0.0,0.0,0.0,0.0,0.0,0.0,0.0,0.0,0.0,0.0,0.0,0.0,0.0,0.0,0.0,0.0,0.0,0.0,0.0,0.0,0.0,0.0,0.0,0.0,0.0,0.0,0.0,0.0,0.0,0.0,0.0,0.0,0.0,0.0,0.0,0.0,0.0,0.0,0.0,0.0,0.0,0.0,0.0,0.0,0.0,0.0,0.0,0.0,0.0,0.0,0.0,0.0,0.0,0.0,0.0,0.0,0.0,0.0,0.0,0.0,0.0,0.0,0.0,0.0,0.0,0.0,0.0,0.0,0.0,0.0,0.0,0.0,0.0,0.0,0.0,0.0,0.0,0.0,0.0,0.0,0.0,0.0,0.0,0.0,0.0,0.0,0.0,0.0,0.0,0.0,0.0,0.0,0.0,0.0,0.0,0.0,0.0,0.0,0.0,0.0,0.0,0.0,0.0,0.0,0.0,0.0,0.0,0.0,0.0,0.0,0.0,0.0,0.0,0.0,0.0,0.0,0.0,0.0,0.0,0.0,0.0,0.0,0.0,0.0,0.0,0.0,0.0,0.0,0.0,0.0,0.0,0.0,0.0,0.0,0.0,0.0,0.0,0.0,0.0,0.0,0.0,0.0,0.0,0.0,0.0,0.0,0.0,0.0,0.0,0.0,0.0,0.0,0.0,0.0,0.0,0.0,0.0,0.0,0.0,0.0,0.0,0.0,0.0,0.0,0.0,0.0,0.0,0.0,0.0,0.0,0.0,0.0,0.0,0.0,0.0,0.0,0.0,0.0,0.0,0.0,0.0,0.0,0.0,0.0,0.0,0.0,0.0,0.0,0.0,0.0,0.0,0.0,0.0,0.0,0.0,0.0,0.0,0.0,0.0,0.0,0.0,0.0,0.0,0.0,0.0,0.0,0.0,0.0,0.0,0.0,0.0,0.0,0.0,0.0,0.0,0.0,0.0,0.0,0.0,0.0,0.0,0.0,0.0,0.0,0.0,0.0,0.0,0.0,0.0,0.0,0.0,0.0,0.0,0.0,0.0,0.0,0.0,0.0,0.0,0.0,0.0,0.0,0.0,0.0,0.0,0.0,0.0,0.0,0.0,0.0,0.0,0.0,0.0,0.0,0.0,0.0,0.0,0.0,0.0,0.0,0.0,0.0,0.0,0.0,0.0,0.0,0.0,0.0,0.0,0.0,0.0,0.0,0.0,0.0,0.0,0.0,0.0,0.0,0.0,0.0,0.0,0.0,0.0,0.0,0.0,0.0,0.0,0.0,0.0,0.0,0.0,0.0,0.0,0.0,0.0,0.0,0.0,0.0,0.0,0.0,0.0,0.0,0.0,0.0,0.0,0.0,0.0,0.0,0.0,0.0,0.0,0.0,0.0,0.0,0.0,0.0,0.0,0.0,0.0,0.0,0.0,0.0,0.0,0.0,0.0,0.0,0.0,0.0,0.0,0.0,0.0,0.0,0.0,0.0,0.0,0.0,0.0,0.0,0.0,0.0,0.0,0.0,0.0,0.0,0.0,0.0,0.0,0.0,0.0,0.0,0.0,0.0,0.0,0.0,0.0,0.0,0.0,0.0,0.0,0.0,0.0,0.0,0.0,0.0,0.0,0.0,0.0,0.0,0.0,0.0,0.0,0.0,0.0,0.0,0.0,0.0,0.0,0.0,0.0,0.0,0.0,0.0,0.0,0.0,0.0,0.0,0.0,0.0,0.0,0.0,0.0,0.0,0.0,0.0,0.0,0.0,0.0,0.0,0.0,0.0,0.0,0.0,0.0,0.0,0.0,0.0,0.0,0.0,0.0,0.0,0.0,0.0,0.0,0.0,0.0,0.0,0.0,0.0,0.0,0.0,0.0,0.0,0.0,0.0,0.0,0.0,0.0,0.0,0.0,0.0,0.0,0.0,0.0,0.0,0.0,0.0,0.0,0.0,0.0,0.0,0.0,0.0,0.0,0.0,0.0,0.0,0.0,0.0,0.0,0.0,0.0,0.0,0.0,0.0,0.0,0.0,0.0,0.0,0.0,0.0,0.0,0.0,0.0,0.0,0.0,0.0,0.0,0.0,0.0,0.0,0.0,0.0,0.0,0.0,0.0,0.0,0.0,0.0,0.0,0.0,0.0,0.0,0.0,0.0,0.0,0.0,0.0,0.0,0.0,0.0,0.0,0.0,0.0,0.0,0.0,0.0,0.0,0.0,0.0,0.0,0.0,0.0,0.0,0.0,0.0,0.0,0.0,0.0,0.0,0.0,0.0,0.0,0.0,0.0,0.0,0.0,0.0,0.0,0.0,0.0,0.0,0.0,0.0,0.0,0.0,0.0,0.0,0.0,0.0,0.0,0.0,0.0,0.0,0.0,0.0,0.0,0.0,0.0,0.0,0.0,0.0,0.0,0.0,0.0,0.0,0.0,0.0,0.0,0.0,0.0,0.0,0.0,0.0,0.0,0.0,0.0,0.0,0.0,0.0,0.0,0.0,0.0,0.0,0.0,0.0,0.0,0.0,0.0,0.0,0.0,0.0,0.0,0.0,0.0,0.0,0.0,0.0,0.0,0.0,0.0,0.0,0.0,0.0,0.0,0.0,0.0,0.0,0.0,0.0,0.0,0.0,0.0,0.0,0.0,0.0,0.0,0.0,0.0,0.0,0.0,0.0,0.0,0.0,0.0,0.0,0.0,0.0,0.0,0.0,0.0,0.0,0.0,0.0,0.0,0.0,0.0,0.0,0.0,0.0,0.0,0.0,0.0,0.0,0.0,0.0,0.0,0.0,0.0,0.0,0.0,0.0,0.0,0.0,0.0,0.0,0.0,0.0,0.0,0.0,0.0,0.0,0.0,0.0,0.0,0.0,0.0,0.0,0.0,0.0,0.0,0.0,0.0,0.0,0.0,0.0,0.0,0.0,0.0,0.0,0.0,0.0,0.0,0.0,0.0,0.0,0.0,0.0,0.0,0.0,0.0,0.0,0.0,0.0,0.0,0.0,0.0,0.0,0.0,0.0,0.0,0.0,0.0,0.0,0.0,0.0,0.0,0.0,0.0,0.0,0.0,0.0,0.0,0.0,0.0,0.0,0.0,0.0,0.0,0.0,0.0,0.0,0.0,0.0,0.0,0.0,0.0,0.0,0.0,0.0,0.0,0.0,0.0,0.0,0.0,0.0,0.0,0.0,0.0,0.0,0.0,0.0,0.0,0.0,0.0,0.0,0.0,0.0,0.0,0.0,0.0,0.0,0.0,0.0,0.0,0.0,0.0,0.0,0.0,0.0,0.0,0.0,0.0,0.0,0.0,0.0,0.0,0.0,0.0,0.0,0.0,0.0,0.0,0.0,0.0,0.0,0.0,0.8065,0.7218,0.0,0.0,0.0,0.0,0.0,0.0,0.0,0.0,0.0,0.0,0.0,0.0,0.0,0.0,0.0,0.0,0.0,0.0,0.0,0.0,0.0,0.0,0.0,-4.9314,-4.9792,-5.001,-4.9468,-4.8642,-4.7529,0.0,0.0,0.0,0.0,0.0,-4.6201,-4.5492,-4.5665,-4.6885,-4.5553,-4.5265,-4.591,-4.6253,-4.6196,-4.5797,0.0,0.0,0.0,0.0,0.0,0.0,0.0,0.0,0.0,0.0,0.0,0.0,0.0,0.0,0.0,0.0,0.0,0.0,0.0,0.0,0.0,0.0,0.0,0.0,0.0,0.0,0.0,0.0,0.0,0.0,0.0,0.0,0.0,0.0,0.0,0.0,0.0,0.0,0.0,0.0,0.0,0.0,0.0,0.0,0.0,0.0,0.0,0.0,0.0,0.0,0.0,0.0,0.0,0.0,0.0,0.0,0.0,0.0,0.0,0.0,0.0,0.0,0.0,0.0,0.0,0.0,0.0,0.0,0.0,0.0,0.5579,0.6672,0.0,0.0,0.0,0.0,0.0,0.0,0.0,0.0,0.0,0.0,0.0,0.0,0.0,0.0,0.0,0.0,0.0,0.0,0.0,0.0,0.0,-4.8567,-4.9221,-4.986,-5.0336,-5.0606,-4.9729,-4.8903,-4.841,-4.7566,-4.6778,-4.6047,-4.574,-4.603,-4.6973,-4.5709,-4.577,-4.7327,-4.5302,-4.4827,-4.5882,-4.7111,-4.7079,-4.6073,-4.5853,0.0,0.0,0.0,0.0,0.0,0.0,0.0,0.0,0.0,0.0,0.0,0.0,0.0,0.0,0.0,0.0,0.0,0.0,0.0,0.0,0.0,0.0,0.0,0.0,0.0,0.0,0.0,0.0,0.0,0.0,0.0,0.0,0.0,0.0,0.0,0.0,0.0,0.0,0.0,0.0,0.0,0.0,0.0,0.0,0.0,0.0,0.0,0.0,0.0,0.0,0.0,0.0,0.0,0.0,0.0,0.0,0.0,0.0,0.0,0.0,0.0,0.0,0.0,-1.6265,-1.4444,-1.3613,-0.88,-0.5272,-0.2926,0.1868,0.5318,0.751,0.9419,0.0,0.0,0.0,0.0,0.0,0.0,0.0,0.0,0.0,0.0,0.0,0.0,0.0,0.0,0.0,0.0,0.0,0.0,0.0,-4.9143,-4.8884,-4.9904,-5.0547,-5.0394,-5.0394,-5.0143,-4.9451,-4.848,-4.7894,-4.7778,-4.6394,-4.6167,-4.7388,-4.5735,-4.5394,-4.6545,-4.5829,-4.5585,-4.5838,-4.6991,-4.7365,-4.7085,-4.6355,-4.6327,-4.6786,0.0,0.0,0.0,0.0,0.0,0.0,0.0,0.0,0.0,0.0,0.0,0.0,0.0,0.0,0.0,0.0,0.0,0.0,0.0,0.0,0.0,0.0,0.0,0.0,0.0,0.0,0.0,0.0,0.0,0.0,0.0,0.0,0.0,0.0,0.0,0.0,0.0,0.0,0.0,0.0,0.0,-1.9636,-2.4351,0.0,0.0,0.0,0.0,0.0,0.0,0.0,0.0,0.0,0.0,0.0,0.0,0.0,-2.9294,-2.8571,-2.9028,-2.7381,-2.3609,-2.1239,-1.8606,-1.5823,-1.2029,-0.8328,-0.4888,-0.2656,0.0,0.5882,0.7621,0.0,0.0,0.0,0.0,0.0,0.0,0.0,0.0,0.0,0.0,0.0,0.0,0.0,0.0,0.0,0.0,0.0,0.0,0.0,0.0,0.0,-4.9695,-5.0097,-5.0183,-5.0353,-5.0236,-4.9635,-4.9189,-4.8701,-4.8237,-4.7204,-4.7007,-4.7719,-4.5662,-4.4525,-4.4445,-4.5526,-4.5894,-4.5499,-4.6681,-4.6948,-4.6468,-4.6322,-4.6759,-4.7608,-4.6806,0.0,0.0,0.0,0.0,0.0,0.0,0.0,0.0,0.0,0.0,0.0,0.0,0.0,0.0,0.0,0.0,0.0,0.0,0.0,0.0,0.0,0.0,0.0,0.0,0.0,0.0,0.0,0.0,0.0,0.0,0.0,0.0,0.0,0.0,0.0,0.0,0.0,0.0,0.0,-2.0406,-2.4346,-2.9851,-2.8288,-2.7314,0.0,0.0,0.0,0.0,0.0,0.0,0.0,0.0,0.0,-3.0354,-3.0137,-2.98,-2.9101,-2.8924,-2.7453,-2.4416,-2.2566,-2.036,-1.7973,-1.4449,-1.1305,-0.8365,-0.6655,-0.384,-0.0263,0.3452,0.4545,0.4286,0.0,0.0,0.0,0.0,1.8716,1.9559,0.0,0.0,0.0,0.0,0.0,0.0,0.0,0.0,0.0,0.0,0.0,0.0,-4.9281,-4.9721,-4.9982,-5.0011,-5.0423,-5.0486,-5.0015,-4.9755,-4.9364,-4.8841,-4.7854,-4.7517,-4.7897,-4.5877,-4.4538,-4.3874,-4.5364,-4.5834,-4.5355,-4.5988,-4.596,-4.5417,-4.5744,-4.6507,-4.7575,-4.6755,-4.5993,-4.5144,0.0,0.0,0.0,0.0,0.0,0.0,0.0,0.0,0.0,0.0,0.0,0.0,0.0,0.0,0.0,0.0,0.0,0.0,0.0,0.0,0.0,0.0,0.0,0.0,0.0,0.0,0.0,0.0,0.0,0.0,0.0,0.0,0.0,0.0,0.0,0.0,0.0,-2.5496,-2.8686,-3.2842,-3.1675,-3.05,0.0,0.0,0.0,0.0,0.0,0.0,-3.0509,-3.0741,-3.0715,-3.0531,-2.9708,-2.8828,-2.8128,-2.7458,-2.6075,-2.426,-2.3037,-2.161,-2.016,-1.7066,-1.4792,-1.3046,-1.1297,-0.9318,-0.6945,-0.1585,0.0931,0.1731,0.5624,0.6882,0.7231,1.3455,1.5371,1.5132,0.0,0.0,0.0,0.0,0.0,0.0,0.0,0.0,0.0,0.0,0.0,-4.9318,-4.8945,-5.026,-5.0798,-4.9806,-5.0998,-5.1597,-5.1063,-5.0132,-4.9792,-5.0183,-4.8039,-4.7192,-4.7978,-4.6775,-4.6203,-4.6447,-4.5655,-4.5416,-4.5682,-4.4788,-4.4313,-4.43,-4.4509,-4.5158,-4.6094,-4.551,-4.5038,-4.4597,-4.3898,0.0,0.0,0.0,0.0,0.0,0.0,0.0,0.0,0.0,0.0,0.0,0.0,0.0,0.0,0.0,0.0,0.0,0.0,0.0,0.0,0.0,0.0,0.0,0.0,0.0,0.0,0.0,0.0,0.0,0.0,0.0,0.0,0.0,0.0,0.0,0.0,0.0,0.0,-3.021,-3.2236,0.0,0.0,0.0,0.0,-2.843,-2.848,-3.0045,-3.3979,-3.2793,-3.1396,-2.986,-2.8925,-2.7845,-2.6523,-2.6399,-2.5606,-2.3816,-2.3407,-2.3113,-2.2669,-2.0452,-1.9364,-1.8829,-1.7078,-1.5156,-1.2905,-0.7153,-0.395,-0.2363,-0.1961,0.013,0.3077,0.3282,0.4253,0.5605,0.0,0.0,0.0,0.0,0.0,-4.8451,-4.8291,-4.7276,-4.6727,-4.7259,-4.7794,-4.8306,-4.8696,-4.9331,-4.9814,-4.9965,-5.0541,-5.0778,-5.0587,-5.0267,-4.9913,-4.9685,-4.8323,-4.7167,-4.6277,-4.5585,-4.5164,-4.5147,-4.4941,-4.4878,-4.4959,-4.4039,-4.3606,-4.3606,-4.3105,-4.3295,-4.4019,-4.3944,-4.4165,-4.4378,-4.2484,-4.0652,0.0,0.0,0.0,0.0,0.0,0.0,0.0,0.0,0.0,0.0,0.0,0.0,0.0,0.0,0.0,0.0,0.0,0.0,0.0,0.0,0.0,0.0,0.0,0.0,0.0,0.0,0.0,0.0,0.0,0.0,0.0,0.0,0.0,0.0,0.0,0.0,0.0,-2.8439,-2.7633,0.0,-2.6045,-2.1804,-2.078,-2.4479,-2.5296,-2.6766,-2.9315,-2.8685,-2.8332,-2.8221,-2.6944,-2.6068,-2.5597,-2.5402,-2.4182,-2.2116,-2.3158,-2.2152,-1.9442,-2.0052,-1.9933,-1.9534,-1.8846,-1.8821,-1.8921,-1.6556,-1.3139,-0.9227,-0.9298,-0.9007,-0.8372,-0.5464,-0.5022,-0.5781,0.0,0.0,0.0,-5.0331,-4.8953,-4.7918,-4.7002,-4.5998,-4.5401,-4.5503,-4.6188,-4.7104,-4.8107,-4.8712,-4.9301,-5.0035,-5.0442,-5.0525,-5.0298,-5.0084,-4.958,-4.8742,-4.7424,-4.6417,-4.5774,-4.5182,-4.5089,-4.5494,-4.4804,-4.4508,-4.449,-4.3084,-4.2458,-4.2395,-4.1166,-4.0774,-4.1148,-4.0945,-4.1922,-4.3441,-4.1822,-4.0276,-3.8793,0.0,0.0,0.0,0.0,0.0,0.0,0.0,0.0,0.0,0.0,0.0,0.0,0.0,0.0,0.0,0.0,0.0,0.0,0.0,0.0,0.0,0.0,0.0,0.0,0.0,0.0,0.0,0.0,0.0,0.0,0.0,0.0,0.0,0.0,-2.6529,-2.7833,-2.5288,-2.3593,-2.23,-2.1861,-1.8912,-1.8049,-2.0426,-2.1867,-2.3338,-2.4716,-2.5328,-2.5622,-2.5566,-2.4704,-2.4544,-2.5224,-2.3581,-2.2277,-2.1472,-2.1812,-2.052,-1.7794,-1.9746,-2.0333,-1.9933,-2.0496,-2.1649,-2.3022,-2.3379,-2.1833,-1.9086,-1.599,-1.5442,-1.5978,-1.2051,-1.2124,-1.4015,0.0,-5.3379,-5.2866,-5.0055,-4.9057,-4.7831,-4.5357,-4.504,-4.4551,-4.3172,-4.4324,-4.5873,-4.7313,-4.847,-4.9417,-5.0003,-5.0761,-5.0932,-5.0276,-4.958,-4.8689,-4.7396,-4.5316,-4.492,-4.6427,-4.577,-4.6116,-4.7568,-4.5239,-4.4198,-4.4249,-4.1844,-4.069,-4.0622,-3.8679,-3.7767,-3.7691,-3.6604,-3.8258,-4.1547,-4.1927,-4.0954,-3.9313,0.0,0.0,0.0,0.0,0.0,0.0,0.0,0.0,0.0,0.0,0.0,0.0,0.0,0.0,0.0,0.0,0.0,0.0,0.0,0.0,0.0,0.0,0.0,0.0,0.0,0.0,0.0,0.0,0.0,0.0,0.0,0.0,0.0,-2.2974,-2.5591,-2.5447,-2.0724,-2.0459,-1.9259,-1.5621,-1.5524,-1.6093,-1.6654,-1.864,-2.0174,-2.0905,-2.3104,-2.3745,-2.2245,-2.249,-2.3453,-2.5251,-2.1379,-2.0148,-2.186,-1.9464,-1.817,-1.809,-1.9781,-2.0554,-2.0462,-2.2473,-2.3941,-2.5317,-2.6873,-2.9277,-3.1175,-2.2096,-1.9013,-1.9197,-1.7119,-1.7383,-1.9259,-5.2097,-5.2661,-5.2113,-4.886,-4.8038,-4.7078,-4.4823,-4.4393,-4.4041,-4.3266,-4.446,-4.5606,-4.6063,-4.7187,-4.8229,-4.8972,-4.9373,-4.9321,-4.8684,-4.7901,-4.6416,-4.4251,-4.3765,-4.3639,-4.3939,-4.3251,-4.335,-4.424,-4.3169,-4.2615,-4.259,-4.1292,-4.069,-4.0622,-3.8679,-3.7451,-3.6813,-3.5494,-3.5117,-3.5774,-3.8202,-3.9154,-3.8963,0.0,0.0,0.0,0.0,0.0,0.0,0.0,0.0,0.0,0.0,0.0,0.0,0.0,0.0,0.0,0.0,0.0,0.0,0.0,0.0,0.0,0.0,0.0,0.0,0.0,0.0,0.0,0.0,0.0,0.0,0.0,-1.2817,-1.6243,-1.91,-2.3494,-2.4366,-1.8347,-1.6744,-1.4779,-1.0971,-0.9466,-0.8871,-0.9238,-1.2732,-1.4908,-1.5176,-1.9062,-2.1007,-2.0607,-2.247,-2.2899,-2.1676,-2.2067,-2.0878,-1.8012,-1.7132,-1.649,-1.6206,-1.6545,-1.8945,-2.2782,-2.1994,-2.32,-2.5982,-2.7338,-2.9051,-3.0877,-2.9758,-3.1377,-3.4074,-3.2051,-3.2878,-3.5037,-5.1254,-5.1667,-5.1058,-4.8389,-4.766,-4.6615,-4.4066,-4.3863,-4.3535,-4.2083,-4.3529,-4.4733,-4.5111,-4.6236,-4.7411,-4.8504,-4.8752,-4.849,-4.7521,-4.5772,-4.4144,-4.2602,-4.2298,-4.2366,-4.2623,-4.1973,-4.1869,-4.2382,-4.1847,-4.1303,-4.0821,-4.0444,-3.9964,-3.9416,-3.7274,-3.6031,-3.5489,-3.2959,-3.1896,-3.195,-3.3199,-3.5087,-3.7005,-3.5566,-3.2204,-2.8116,-2.5838,-2.2067,-1.8034,-1.7226,0.0,0.0,0.0,0.0,0.0,0.0,0.0,0.0,0.0,0.0,0.0,0.0,0.0,0.0,0.0,0.0,0.0,0.0,0.0,0.0,0.0,0.0,0.0,0.0,-1.0502,-1.2315,-1.4043,-1.8194,-1.9438,-1.5049,-1.1665,-0.8862,-0.658,-0.5428,-0.4885,-0.514,-0.9137,-1.1694,-1.1825,-1.6284,-1.8718,-1.8718,-2.1254,-2.2288,-2.1584,-2.2047,-2.1153,-1.9262,-1.8013,-1.7667,-1.8187,-1.8912,-2.1436,-2.5144,-2.4776,-2.618,-2.8771,-2.9209,-3.0822,-3.3049,0.0,0.0,0.0,0.0,-3.8966,-4.1161,-5.0193,-5.0531,-4.9936,-4.8236,-4.7543,-4.6266,-4.3332,-4.354,-4.3127,-4.0459,-4.2098,-4.3673,-4.4058,-4.5409,-4.6845,-4.8099,-4.8457,-4.7979,-4.6362,-4.3707,-4.1996,-4.1561,-4.0863,-4.0808,-4.1462,-4.1015,-4.0781,-4.093,-4.0701,-4.0032,-3.9059,-3.9121,-3.8664,-3.759,-3.5161,-3.3909,-3.3454,-2.9526,-2.8312,-2.8794,-2.7337,-2.9591,-3.3972,-3.4598,-3.2568,-2.9115,-2.7482,-2.3317,-1.8397,-1.6634,0.0,0.0,0.0,0.0,0.0,0.0,0.0,0.0,0.0,0.0,0.0,0.0,0.0,0.0,0.0,0.0,0.0,0.0,0.0,0.0,0.0,0.0,0.0,0.0,-0.8178,-0.9116,-0.9259,-1.1359,-1.2182,-1.0715,-0.6145,-0.3077,-0.2729,-0.2781,-0.2832,-0.3036,-0.7141,-0.9782,-0.9884,-1.4529,0.0,0.0,0.0,-2.1926,-2.3154,-2.1991,-2.1916,-2.3016,-2.1025,-2.1023,-2.2651,-2.4305,-2.5904,-2.7755,-2.9535,-3.1047,-3.2168,-3.1884,-3.3688,-3.6329,-3.369,-3.4554,-3.7345,-3.8542,-3.998,-4.1743,-4.7758,-4.9439,-4.9671,-4.7233,-4.6603,-4.5703,-4.3579,-4.3679,-4.3114,-4.0475,-4.2567,-4.3627,-4.1784,-4.4202,-4.5839,-4.5683,-4.6574,-4.6104,-4.3787,-4.2626,-4.1009,-3.8723,-3.9098,-3.8472,-3.6443,-3.7414,-3.7641,-3.6976,-3.7952,-3.8419,-3.8172,-3.7118,-3.6497,-3.6155,-3.372,-3.1665,-2.9663,-2.6357,-2.407,-2.2436,-2.0467,-2.3978,-3.0491,-3.0928,-2.944,-2.7038,-2.5573,-2.3151,-2.0154,-1.7154,-1.5827,-1.5669,-1.577,-1.5981,0.0,0.0,0.0,0.0,0.0,0.0,0.0,0.0,0.0,0.0,0.0,0.0,0.0,0.0,0.0,0.0,0.0,0.0,0.0,-0.9639,-0.9494,-0.9547,-0.9738,-0.7084,-0.5095,-0.4744,-0.3717,-0.2476,-0.0833,-0.0675,-0.0686,-0.0699,-0.5068,-0.7724,-0.7629,-1.3961,-1.7653,-1.7653,-2.1828,-2.3187,-2.1713,-2.4532,-2.5236,-2.3528,-2.2623,0.0,-2.7453,-2.5991,-2.7936,-3.2456,-3.2772,-3.2695,-3.2684,-3.3539,-3.5163,-3.7473,-4.022,-4.2213,-4.3856,-4.6168,-4.6583,-4.5959,-4.6065,-4.7732,-4.8387,-4.6949,-4.6512,-4.5783,-4.3841,-4.4266,-4.3863,-4.1393,-4.3079,-4.4007,-4.2791,-4.4355,-4.5534,-4.5686,-4.4681,-4.3308,-4.1596,-4.0009,-3.8488,-3.707,-3.6824,-3.6267,-3.5252,-3.4917,-3.5095,-3.5673,-3.653,-3.6687,-3.6109,-3.6097,-3.4944,-3.2913,-3.1029,-2.8676,-2.594,-2.2954,-2.053,-1.8678,-1.6846,-1.8988,-2.3334,-2.485,-2.535,-2.504,-2.3553,-2.1788,-1.968,-1.6483,-1.4772,-1.3854,-1.2868,-1.2117,-1.1265,0.0,0.0,0.0,0.0,0.0,0.0,0.0,0.0,0.0,0.0,0.0,0.0,0.0,0.0,-2.1548,-1.8014,0.0,-1.5267,-1.3641,-1.042,-0.8252,-0.8373,-0.4422,-0.1867,-0.2934,-0.2164,-0.1694,-0.1863,-0.172,-0.1744,-0.1763,-0.6189,-0.8871,-0.8896,-1.4562,-1.8279,-1.9488,-2.2955,-2.4597,-2.4397,-2.7602,-2.9009,-2.8627,-2.8189,-2.9592,-3.2491,-3.0888,-3.2227,-3.5773,-3.5285,-3.489,-3.4671,-3.4564,-3.5489,-3.7221,-3.9746,-4.2597,-4.5524,-4.792,-4.805,-4.7223,-4.4894,-4.607,-4.6822,-4.6742,-4.6512,-4.5774,-4.4089,-4.4712,-4.456,-4.2306,-4.3558,-4.448,-4.3978,-4.4936,-4.5704,-4.6023,-4.2765,-4.0446,-3.9681,-3.7158,-3.5521,-3.5493,-3.4481,-3.4093,-3.4287,-3.2923,-3.3054,-3.4908,-3.5511,-3.5377,-3.4528,-3.4824,-3.3185,-2.9828,-2.7844,-2.5357,-2.2497,-1.9489,-1.7322,-1.5803,-1.4569,-1.5074,-1.6809,-1.9484,-2.1704,-2.3263,-2.2363,-2.12,-1.9557,-1.6211,-1.434,-1.2894,-0.9933,-0.8112,-0.6641,-0.4637,-0.2753,0.0,0.0,0.0,0.0,0.0,0.0,0.0,0.0,-2.8336,-3.2022,-2.804,-2.8114,-2.8118,-2.538,-2.2606,-2.0074,-1.8337,-1.264,-0.8309,-0.839,-0.4327,-0.2074,-0.369,-0.2052,-0.1385,-0.3435,-0.4009,-0.4404,-0.4936,-0.8875,-1.1566,-1.1863,-1.6467,-2.0009,-2.1739,-2.4166,-2.6086,-2.7642,-3.0246,-3.2377,-3.3835,-3.4246,-3.5322,-3.6861,-3.6182,-3.6694,-3.7988,-3.6291,-3.5218,-3.4575,-3.355,-3.3985,-3.5476,-3.6946,-4.0682,-4.5431,-4.7249,-4.772,-4.7626,-4.4342,-4.5036,-4.5492,-4.5916,-4.574,-4.5248,-4.4429,-4.4646,-4.4107,-4.2006,-4.4261,-4.5101,-4.2537,-4.515,-4.6432,-4.4865,-4.1001,-3.8463,-3.8156,-3.5274,-3.3283,-3.2798,-3.264,-3.1808,-3.0227,-3.1064,-3.1946,-3.2642,-3.3923,-3.4698,-3.4852,-3.2288,-3.0491,-2.9089,-2.4608,-2.1624,-1.978,-1.6446,-1.4035,-1.268,-1.2569,-1.3407,-1.5182,-1.8262,-2.0359,-2.204,-2.3151,-2.3487,-2.2542,-1.8121,-1.7426,-1.7169,-0.984,-0.7286,-0.627,-0.3519,-0.1337,-0.0243,-0.1828,-0.5422,-1.0009,-1.5173,-1.711,-1.9699,0.0,-3.0059,-3.1301,-3.144,-3.3723,-3.4274,-3.0402,-2.7445,-2.5025,-2.3573,-1.7759,-1.3384,-1.3422,-0.9342,-0.6381,-0.6647,-0.4694,-0.3305,-0.3508,-0.5449,-0.7578,-0.9735,-1.2232,-1.4696,-1.6752,-2.1333,-2.3995,-2.4337,-2.6588,-2.7941,-2.807,-3.1849,-3.3771,-3.4041,-3.7484,-3.9201,-3.9503,-3.9406,-3.909,-3.8273,-3.3499,-3.0026,-2.7519,-2.7492,-2.9022,-3.158,-3.496,-3.9779,-4.4969,-4.6448,-4.78,-4.8862,-4.3218,-4.3793,-4.4247,-4.4675,-4.5281,-4.5538,-4.4989,-4.5051,-4.4813,-4.3887,-4.4861,-4.5552,-4.5217,-4.6274,-4.613,-4.3933,-3.9618,-3.6377,-3.4794,-3.1559,-2.9712,-2.9803,-2.9225,-2.9351,-3.0187,-2.9863,-3.053,-3.223,-3.2605,-3.2878,-3.2972,-3.0714,-2.8607,-2.6575,-2.352,-2.0788,-1.8138,-1.5741,-1.4321,-1.3526,-1.2577,-1.3765,-1.6245,-1.8416,-2.0458,-2.2451,-2.3389,-2.3822,0.0,-1.9326,-1.8479,-1.7993,-1.0821,-0.7851,-0.6292,-0.2196,0.0246,0.1358,-0.0495,-0.2339,-0.551,-1.2552,-1.4953,-1.7836,-2.5961,-2.8763,-3.0047,-3.1799,-3.3364,-3.2995,-2.8326,-2.7098,-2.5313,-2.0762,-1.6787,-1.3637,-1.2384,-0.9251,-0.7136,-0.7105,-0.6189,-0.6186,-0.7629,-0.7279,-0.869,-1.2408,-1.4892,-1.7339,-1.9522,-2.302,-2.553,-2.6758,-2.78,-2.8988,-3.0107,-3.288,-3.508,-3.6358,-3.9009,-4.0391,-4.0625,-3.8841,-3.5503,-3.0974,-2.8597,-2.5912,-2.3379,-2.5641,-2.783,-3.0275,-3.4266,-3.9476,-4.5023,-4.7197,-4.8538,-4.9231,-4.2369,-4.2693,-4.2996,-4.3394,-4.4359,-4.5167,-4.5297,-4.539,-4.5437,-4.5351,-4.5753,-4.6454,-4.7729,-4.6817,-4.5217,-4.3145,-3.8518,-3.4679,-3.1938,-2.8528,-2.6643,-2.6783,-2.6248,-2.7176,-2.9635,-2.8116,-2.8643,-3.1352,-3.0627,-3.0359,-3.0369,-2.8728,-2.6752,-2.4499,-2.2257,-1.9919,-1.7549,-1.5899,-1.5245,-1.5256,-1.453,-1.5965,-1.8823,-2.1003,-2.3227,-2.5074,-2.5016,-2.4937,-2.436,-2.1566,-2.0906,-1.9904,-1.2794,-0.9919,-0.8085,-0.2786,0.0246,0.175,0.0501,-0.0252,-0.2287,-0.8834,-1.209,-1.5394,-2.2322,-2.5306,-2.7391,-3.0243,-3.1212,-3.0551,-2.7101,-2.6665,-2.5124,-1.9923,-1.6803,-1.4555,-1.2826,-0.9992,-0.804,-0.804,-0.6971,-0.7324,-1.0357,-0.9108,-1.017,-1.4956,-1.7405,-1.9807,-2.1979,-2.4636,-2.6619,-2.815,-2.8364,-2.9198,-3.0426,-3.271,-3.4813,-3.7082,-3.89,-3.9891,-4.0158,-3.6496,-3.1387,-2.5165,-2.4183,-2.1919,-1.902,-2.281,-2.5696,-2.8221,-3.3848,-3.9756,-4.5641,-4.9267,-5.072,-5.0773,-4.1945,-4.1805,-4.1742,-4.226,-4.2746,-4.3577,-4.5064,-4.5483,-4.5659,-4.5772,-4.7096,-4.8205,-4.8709,-4.6129,-4.3804,-4.2358,-3.7748,-3.3642,-3.0438,-2.6899,-2.4633,-2.3961,-2.4232,-2.5281,-2.7146,-2.5673,-2.6329,-2.9225,-2.7621,-2.7122,-2.7499,-2.583,-2.4547,-2.3529,-1.9962,-1.8351,-1.8203,-1.6344,-1.6187,-1.7339,-1.8788,-2.0558,-2.2823,-2.6924,-2.9473,-3.0504,-2.8669,-2.7621,-2.6998,-2.5916,-2.5721,-2.4429,-1.6374,-1.3877,-1.2604,-0.6169,-0.2188,0.0125,0.0,-0.1153,-0.2901,-0.4986,-0.8345,-1.2153,-1.6292,-1.9282,-2.2298,-2.6574,-2.8104,-2.8791,-2.8966,-2.7885,-2.632,-2.4223,-2.0485,-1.758,-1.758,-1.3533,-1.054,-1.054,-0.6433,-0.5544,-1.018,-1.0717,-1.271,-1.7485,-1.9949,-2.2084,-2.4508,-2.677,-2.815,-2.8136,-2.815,-2.8318,-2.8305,-3.0426,-3.2546,-3.4813,-3.6904,-3.8054,-3.7878,-3.2954,-2.8191,-2.3821,-2.0963,-1.7286,-1.3547,-1.7358,-2.0842,-2.4593,-3.3462,-4.086,-4.7203,-5.3108,-5.4972,-5.4326,-4.0814,-4.0918,-4.1146,-4.1367,-4.1995,-4.2724,-4.3229,-4.4037,-4.495,-4.5897,-4.7587,0.0,0.0,0.0,0.0,0.0,-3.8772,-3.4303,-3.0737,-2.7421,-2.4845,-2.3187,-2.369,-2.4411,-2.5235,-2.3885,-2.3709,-2.4959,-2.3457,-2.287,-2.2974,-2.13,-2.1064,-2.1742,-1.941,-1.8921,-1.9897,-1.9224,-2.0268,-2.2357,-2.2879,-2.4753,-2.753,-3.0903,-3.2605,-3.3308,0.0,-3.3911,-3.155,-2.9487,-2.8818,-2.8062,-2.3843,-2.148,-1.8678,-1.0227,-0.484,-0.1405,-0.0258,-0.04,-0.1239,-0.3213,-0.5737,-0.9019,-1.331,-1.6042,-1.8658,-2.176,-2.2377,-2.2307,-2.2224,-2.2096,-2.1304,-1.8942,-1.6817,-1.4799,-1.3343,-1.1776,-1.0717,-1.0717,-0.9286,-1.0194,-1.5091,-0.9665,-0.9282,-1.7312,-1.7047,-1.8903,-2.4337,-2.5542,-2.6778,-2.815,-2.8337,-2.835,-2.815,-3.026,-3.1722,-3.2546,-3.6104,-3.7082,-3.5621,-3.2398,-2.7552,-2.1717,-2.0424,-1.7845,-1.5039,-1.8813,-2.2393,-2.6186,-3.4187,-4.1588,-4.8506,-5.4708,-5.7842,-5.8716,0.0,-4.0306,-4.0549,-4.0172,-4.0664,0.0,0.0,0.0,0.0,0.0,0.0,0.0,0.0,0.0,0.0,0.0,0.0,-3.5661,-3.1904,-2.871,-2.5723,-2.2874,-2.3029,-2.3197,-2.3374,-2.1438,-2.0565,-2.092,-1.89,-1.7688,-1.7211,-1.7211,-1.7943,-1.9145,-1.9271,-1.9487,-1.9927,-2.0518,-2.191,-2.4053,-2.5177,-2.7716,-3.1321,-3.4838,-3.6686,0.0,-4.0799,-4.0262,-3.7712,-3.4635,-3.3256,-3.213,-2.7941,-2.2784,-1.7291,-1.1274,-0.6226,-0.2228,-0.1198,-0.0415,-0.0431,-0.2468,-0.4609,-0.7494,-1.1829,-1.4553,-1.7286,-2.1101,-2.1468,-2.0984,-2.058,-2.0854,-1.9822,-1.614,-1.4511,-1.2898,-1.0909,-0.9888,-0.9387,-0.9455,-1.0165,-1.2308,-1.6302,-1.1041,-1.0656,-1.8532,-1.7572,-1.9077,-2.4337,-2.5714,-2.6765,-2.815,-2.8337,-2.7997,-2.6927,-2.9091,-3.1377,-3.3595,-3.7011,-3.8687,-3.8769,-3.4953,-3.0626,-2.5961,-2.251,-2.02,-1.8977,-2.1184,-2.4506,-2.8857,-3.5971,-4.3179,-5.0314,-5.6048,-5.9618,-6.1353,0.0,0.0,-3.9792,0.0,0.0,0.0,0.0,0.0,0.0,0.0,0.0,0.0,0.0,0.0,0.0,0.0,0.0,0.0,-3.3999,-3.0877,-2.7458,-2.3556,-2.2791,-2.2328,-2.2015,-1.8968,-1.7313,-1.7397,-1.426,-1.2044,-1.0579,-1.3706,-1.5347,-1.588,-1.8937,-1.965,-1.8709,-2.0125,-2.1469,-2.2726,-2.6063,-3.0112,-3.4484,-3.8793,-4.1752,-4.3881,-4.5782,-4.6072,-4.496,-4.0914,-3.862,-3.5962,-2.7983,-1.8031,-0.9253,-0.9134,-0.6023,-0.2564,-0.2468,-0.1146,-0.0448,-0.2564,-0.4725,-0.7581,-1.2253,-1.5058,-1.8407,-2.4457,-2.5117,-2.4623,-2.4475,-2.4037,-2.1965,-1.668,-1.4191,-1.2446,-1.0677,-0.8831,-0.7505,-0.7485,-0.9773,-1.2214,-1.4689,-1.4799,-1.6776,-2.1669,-2.1506,-2.2084,-2.4349,-2.6758,-2.8136,-2.8136,-2.8136,-2.7109,-2.4861,-2.6927,-3.1167,-3.7467,-3.9222,-4.2328,-4.6186,-4.0176,-3.7221,-3.6073,-2.7802,-2.4534,-2.5198,-2.472,-2.7169,-3.1928,-3.8573,-4.5445,-5.2125,-5.687,-5.9997,-6.1755,0.0,0.0,0.0,0.0,0.0,0.0,0.0,0.0,0.0,0.0,0.0,0.0,0.0,0.0,0.0,0.0,0.0,0.0,-3.806,-3.6406,-3.3659,-2.9511,-2.8528,-2.718,-2.5252,-2.0801,-1.8207,-1.7516,-1.3732,-1.1277,-1.012,-1.0959,-1.2781,-1.5388,-1.5107,-1.675,-1.9814,-2.1343,-2.4318,-2.8213,-3.2025,-3.6023,-4.0025,-4.3523,-4.5202,-4.593,-4.807,-4.7749,-4.6001,-4.4423,-3.7367,-2.7607,-1.843,-1.2506,-0.7942,-0.2542,-0.2565,-0.3904,-0.13,-0.0298,-0.0459,-0.2603,-0.5848,-0.9878,-1.501,-1.9719,-2.4125,-2.7555,-2.8759,-2.8725,-2.736,-2.6753,-2.5461,-2.2042,-1.8284,-1.5112,-1.35,-1.268,-1.2348,-1.2419,-1.7421,-2.1894,-2.4152,-2.4385,-2.6247,-3.0881,-2.3313,-1.9587,-2.1911,-2.4337,-2.6418,-2.8136,-2.8136,-2.7968,-2.7279,-2.6236,-2.884,-3.5553,-3.8682,-4.287,-4.7706,-4.8686,-4.7881,-4.539,-4.0603,-3.7059,-3.4757,-3.3669,-3.3173,-3.3533,-3.95,-4.4162,-4.8178,-5.3831,-5.5808,-5.4669,0.0,0.0,0.0,0.0,0.0,0.0,0.0,0.0,0.0,0.0,0.0,0.0,0.0,0.0,0.0,0.0,0.0,0.0,0.0,-3.921,-3.6853,-3.3442,-3.2377,-3.0909,-2.874,-2.5666,-2.3478,-2.2078,-1.8935,-1.6625,-1.5209,-1.5981,-1.7541,-1.9562,-2.043,-2.1918,-2.4149,-2.6282,-2.8735,0.0,0.0,-3.9631,-4.3244,-4.6723,-4.8487,-4.935,-5.0669,-4.9398,-4.6472,-4.2479,-3.2638,-2.0904,-1.4328,-0.843,-0.3713,-0.2628,-0.3149,-0.3725,-0.1929,-0.1372,-0.2016,-0.5097,-0.9324,-1.4332,-2.0457,-2.5628,-3.0171,-3.3983,-3.4975,-3.5067,-3.4471,-3.3926,-3.2286,-2.7972,-2.477,-2.1829,-1.8829,-1.8443,-1.8506,-1.8506,-2.3856,-2.8315,-3.0422,-3.063,-3.2104,-3.5441,-2.8166,-2.4601,-2.6929,-2.8311,-3.0159,-3.2273,-3.2135,-3.0988,-2.8851,-2.3978,-2.2688,-2.534,-3.2516,-3.7235,-4.016,-5.2771,-5.5348,-4.9708,-4.5222,-4.2932,-4.204,-3.9476,-3.914,-4.0464,-4.3105,-4.6546,-5.0143,-5.1989,-4.8074,-4.1055,0.0,0.0,0.0,0.0,0.0,0.0,0.0,0.0,0.0,0.0,-4.2071,-4.2939,-4.4633,-4.4888,0.0,0.0,0.0,0.0,0.0,0.0,-3.8584,-3.6236,-3.5211,-3.3928,-3.2366,-3.137,-3.0137,-2.8624,-2.6462,-2.4596,-2.3008,-2.4565,-2.5542,-2.624,-2.9437,-3.0535,-3.0102,-3.275,-3.4015,-3.4726,-3.8825,-4.2322,-4.5436,0.0,-5.1342,-5.2847,-5.2977,-5.0865,-4.6588,-3.7036,-2.6466,-1.6745,-1.3573,-0.6253,0.0,-0.5744,-0.5855,-0.4099,-0.3911,-0.3844,-0.4978,-0.9259,-1.4244,-2.0063,-2.7557,-3.2344,-3.6831,-4.193,-4.2797,-4.2685,-4.2922,-4.2912,-4.0914,-3.4972,-3.3179,-3.0902,-2.6513,-2.6042,-2.6144,-2.5842,-3.0069,-3.3484,-3.5254,-3.6022,-3.6958,-3.8629,-3.5536,-3.4032,-3.502,-3.5375,-3.6251,-3.8089,-3.7704,-3.521,-3.0556,-2.1926,-1.5617,-1.2181,-2.2565,-2.6889,-2.638,-5.0113,-5.7143,-5.0409,-4.6927,-4.5981,-4.6689,-4.4128,-4.4487,-4.664,-4.7331,-5.003,-5.2893,-4.794,-3.7235,-2.4498,0.0,0.0,0.0,0.0,0.0,0.0,0.0,0.0,0.0,0.0,-4.1418,-4.2817,0.0,0.0,0.0,0.0,0.0,0.0,0.0,0.0,0.0,-3.9529,-3.8316,-3.7201,-3.6236,-3.3475,-3.2112,-3.2265,-3.0011,-2.8819,-2.8753,-2.9068,-3.008,-3.164,-3.1713,-3.3082,-3.54,-3.6493,-3.8635,-4.1471,-4.4095,-4.6487,-4.8723,-5.0674,0.0,0.0,-5.3177,-5.1193,-4.621,-2.9992,-2.2477,-1.8995,-1.3651,-0.8933,-0.5462,-0.5738,-0.7877,-0.9888,-0.8564,-0.8144,-0.9283,-1.4351,-1.9994,-2.6456,-3.5114,-4.0415,-4.4595,-4.8164,-5.0018,-5.0146,-4.7477,-4.8415,-4.8364,-4.4738,-4.2512,-4.0471,-3.791,-3.7241,-3.6336,-3.5035,-3.8817,-4.1715,-4.215,-4.3844,-4.5631,-4.7235,-4.678,-4.3531,-3.7018,-3.8446,-3.9988,-4.1346,-4.0772,-3.8561,-3.4568,-2.4209,-1.4334,-0.5109,-1.0272,-1.0934,-0.8396,-2.9855,-4.237,-4.7634,-5.64,-5.4099,-4.4678,-5.0783,-4.6556,-3.7221,-4.7921,-4.9516,-4.4346,-3.1809,-2.18,-1.1702,0.0,0.0,0.0,0.0,0.0,0.0,0.0,-3.3965,-3.5868,-3.9524,-4.058,-4.1777,-4.3855,-4.427,-4.4059,0.0,0.0,0.0,0.0,0.0,0.0,-4.1374,-4.0713,-4.05,-4.0742,-3.956,-3.9366,-4.0241,0.0,-3.8191,-3.8486,-3.8122,-3.84,-3.93,-3.9727,-4.0854,-4.247,-4.3762,-4.5271,-4.7023,-4.8656,-5.0455,-5.2202,-5.2498,0.0,0.0,-5.351,-5.1521,-4.7875,-3.7842,-3.3293,-2.952,-1.6171,-1.2795,-1.4279,-1.7421,-1.8262,-1.8142,-1.8325,-1.7438,-1.7765,-2.3569,-2.9151,-3.5005,-4.1906,-4.6425,-4.9823,-5.1924,-5.3172,-5.3495,-5.2254,-5.3321,-5.3344,-5.005,-4.9397,-4.8541,-4.6172,-4.5559,-4.4973,-4.372,-4.545,-4.7273,-4.8279,-4.8395,-4.9958,-5.3644,-5.2129,-4.885,-4.3869,-4.5266,-4.6726,-4.7749,-4.7029,-4.5301,-4.2798,-2.3475,-0.8807,0.0884,1.3243,1.666,1.1383,-0.7131,-2.4415,-4.0637,-5.7058,-6.0648,-5.5111,-5.7633,-5.5036,-4.9941,-5.3998,-5.4349,-5.0365,-3.309,-1.5639,0.0276,0.0,0.0,0.0,0.0,0.0,0.0,-3.2593,-3.41,-3.6313,-3.934,-3.9809,-4.0707,-4.2889,-4.3403,-4.32,0.0,0.0,0.0,0.0,0.0,0.0,0.0,0.0,0.0,-4.3256,0.0,0.0,-4.6467,-4.6278,0.0,0.0,0.0,0.0,0.0,-4.7977,-4.8659,-4.8805,-5.0555,-5.142,0.0,0.0,-5.3689,-5.4769,0.0,0.0,0.0,0.0,-5.2587,-5.0411,-4.8172,-4.6013,-4.1474,-2.5679,-2.2302,-2.5272,-3.1075,-3.0016,-2.7368,-2.8815,-2.8006,-2.824,-3.4083,-3.9043,-4.3739,-4.8542,-5.1464,-5.3531,-5.4576,-5.4888,-5.5204,-5.5769,-5.6873,-5.6848,-5.4447,-5.5098,-5.527,-5.3611,-5.3176,-5.2765,-5.2076,-5.1865,-5.2296,-5.3948,-5.2438,-5.3314,-5.7799,-5.4708,-5.1767,-5.0234,-5.164,-5.2874,-5.3889,-5.3573,-5.2056,-4.9164,-2.3894,-0.5154,0.7041,3.0791,3.8508,3.1357,1.6778,-0.4024,-3.0015,-5.4128,-6.3492,-6.1613,-6.1014,-6.01,-5.895,-5.677,-5.5872,-5.3468,-3.339,-1.2506,0.5159,0.0,0.0,0.0,0.0,0.0,0.0,-3.2451,-3.41,-3.6088,-3.8523,-3.9439,-4.0443,-4.1948,-4.1593,-4.1448,0.0,0.0,0.0,0.0,0.0,0.0,0.0,0.0,0.0,0.0,0.0,0.0,-4.5677,-4.7093,0.0,0.0,0.0,0.0,0.0,0.0,-5.2685,-5.2242,-5.3802,0.0,0.0,0.0,0.0,0.0,0.0,0.0,0.0,0.0,-5.4922,-5.3677,-5.2937,-5.1862,-5.0545,-4.8793,-4.3807,-3.8762,-3.9868,-3.8591,-3.6744,-3.704,-3.7956,-3.9857,-4.414,-4.7822,-5.1549,-5.5548,-5.5938,-5.5726,-5.6474,-5.645,-5.63,-5.6482,-5.769,-5.9051,-6.0261,-5.9917,-6.0108,-6.1664,-6.0962,-6.0248,-5.9993,-5.8893,-5.8484,-5.9152,-5.7943,-5.7576,-5.8708,-5.489,-5.2266,-5.1854,-5.4176,-5.5982,-5.668,-5.9073,-5.6277,-4.7923,-2.9303,-0.8614,1.3826,2.6476,3.8736,4.998,4.1463,1.9161,-1.4768,-4.9789,-5.9136,-5.0186,-5.6323,-5.2565,-4.3363,-4.767,-4.6188,-3.912,-1.8708,-0.9292,-0.5324,0.0,0.0,0.0,0.0,0.0,0.0,-3.3945,-3.5518,-3.7272,-3.9079,-3.9526,-4.0096,-4.1103,-4.0473,-4.04,-4.13,-4.1132,0.0,0.0,0.0,0.0,0.0,0.0,0.0,0.0,0.0,-4.3563,-4.5986,-4.6639,0.0,0.0,0.0,0.0,0.0,0.0,-5.1952,-5.1752,-5.2641,0.0,0.0,0.0,0.0,0.0,0.0,0.0,0.0,0.0,0.0,-5.542,-5.465,-5.423,-5.3933,-5.3263,-5.1644,-4.9865,-4.9147,-4.7659,-4.6631,-4.8635,-4.8943,-4.9835,-5.4476,-5.5586,-5.6177,-5.904,-5.7903,-5.6216,-5.6152,-5.6078,-5.5999,-5.6155,-5.7505,-5.877,-5.9219,-5.9893,-6.063,-6.1628,-6.1085,-6.0885,-6.1688,-6.0697,-6.0732,-6.2815,-6.246,-6.1983,-6.1912,-5.8317,-5.4907,-5.2043,-5.2436,-5.4046,-5.6537,-5.8541,-5.4115,-4.2664,-2.6873,-0.6348,1.8684,3.5161,4.4839,4.7888,3.5247,1.319,-1.7024,-4.6933,-5.916,-5.8016,-5.8656,-5.5205,-4.9639,-5.0682,-4.7371,-4.0323,-2.7112,-2.2137,-2.1821,0.0,0.0,0.0,0.0,0.0,-3.4733,-3.5235,-3.6529,-3.7977,-3.9143,-3.9296,-3.9504,-4.0247,-3.9809,-3.9698,-4.0372,-4.0702,0.0,0.0,0.0,0.0,0.0,0.0,0.0,0.0,0.0,-4.3447,-4.5967,-4.6455,-4.7466,0.0,0.0,-5.0117,-4.9943,0.0,0.0,0.0,0.0,0.0,0.0,0.0,0.0,0.0,0.0,0.0,0.0,0.0,0.0,0.0,0.0,0.0,-5.5177,-5.4389,-5.5036,-5.5852,-5.4568,-5.3953,-5.4232,-5.6807,-5.7341,-5.821,-6.2096,-6.1412,-6.019,-6.1413,-5.9087,-5.6616,-5.6212,-5.5943,-5.5807,-5.6005,-5.7379,-5.8454,-5.8258,-5.9413,-6.0704,-6.1582,-6.1337,-6.1551,-6.2997,-6.2066,-6.2292,-6.5034,-6.4855,-6.4081,-6.2841,-5.9572,-5.5313,-5.0112,-4.457,-4.2809,-4.5572,-4.6356,-3.9448,-2.4216,-1.1165,0.5627,2.6075,4.1895,4.5797,3.8781,2.2291,0.1109,-2.3856,-4.7684,-5.9519,-6.1791,-5.8552,-5.5781,-5.3383,-5.094,-4.6943,-4.1861,-3.5623,-3.4389,-3.6449,0.0,0.0,0.0,0.0,0.0,-3.5956,-3.5956,-3.6792,-3.7644,-3.8302,-3.8392,-3.8661,-3.9349,-3.9409,-3.9409,-3.9409,-4.0239,0.0,0.0,0.0,0.0,0.0,0.0,0.0,-3.9607,-4.0477,-4.2352,-4.5186,-4.6733,-4.8353,-4.9998,-5.077,-5.0716,-5.0033,0.0,0.0,0.0,0.0,0.0,0.0,0.0,0.0,0.0,0.0,0.0,0.0,0.0,0.0,0.0,0.0,0.0,0.0,0.0,-5.5056,-5.5243,-5.4823,-5.6499,-5.8691,-5.9545,-6.2167,-6.4889,-6.577,-6.5102,-6.3959,-6.2998,-5.9878,-5.7185,-5.7185,-5.6488,-5.6005,-5.6315,-5.7562,-5.8558,-5.867,-5.9472,-6.0926,-6.3317,-6.3271,-6.3568,-6.5202,-6.404,-6.3831,-6.5635,-6.4585,-6.2842,-6.0545,-5.7171,-5.2309,-4.5716,-2.9205,-2.0144,-2.0479,-1.9582,-0.9292,1.1187,2.0834,2.9452,3.7297,4.3044,3.855,2.4496,0.6353,-1.2857,-3.316,-5.301,-5.9562,-5.6005,-5.3712,-5.154,-4.9171,-4.4699,-4.2125,-4.0762,-3.9733,-4.25,-4.7508,0.0,0.0,0.0,0.0,0.0,0.0,-3.7493,-3.7923,-3.8332,-3.902,-3.908,-3.917,-3.9409,-3.9409,-3.9409,-3.9409,-3.9666,0.0,0.0,0.0,0.0,0.0,0.0,0.0,-3.9173,-4.0641,-4.2891,-4.5923,-4.6896,-4.8001,-4.9316,-5.0095,-5.0001,-4.9316,-4.958,-4.9521,0.0,0.0,0.0,0.0,0.0,0.0,-5.128,0.0,0.0,0.0,0.0,0.0,0.0,0.0,0.0,0.0,0.0,0.0,0.0,-5.4633,-5.6443,-5.8714,-6.0086,-6.1693,-6.3169,-6.3935,-6.2633,-6.1061,-6.0629,-5.8353,-5.628,-5.6207,-5.5967,-5.5833,-5.6013,-5.7413,-5.8534,-5.8663,-5.9957,-6.1143,-6.1787,-6.2479,-6.3915,-6.6531,-6.8164,-6.9136,-6.9338,-6.8911,-6.8127,-6.6844,-6.3953,-5.3202,-3.2397,-2.2744,-1.7375,-1.6095,0.6814,2.1552,2.6745,4.7235,5.5067,5.0177,4.2899,3.2666,1.9322,-0.6784,-2.5931,-3.9301,-5.303,-5.8689,-5.8011,-5.5254,-5.1966,-4.8432,-4.7319,-4.5706,-4.4443,-4.6251,-4.9662,-5.4036,0.0,0.0,0.0,0.0,0.0,0.0,-3.8661,-3.8571,-3.8631,-3.932,-3.92,-3.914,-3.9379,-3.9409,-3.9529,-3.9768,-3.9798,0.0,0.0,0.0,0.0,0.0,0.0,0.0,-3.9985,-4.1053,-4.312,-4.6173,-4.6981,-4.789,-4.9018,-4.9729,-4.9695,-4.8984,-4.8639,-4.8513,0.0,0.0,0.0,0.0,0.0,0.0,-4.9981,0.0,0.0,0.0,0.0,0.0,0.0,0.0,0.0,0.0,0.0,0.0,0.0,0.0,-5.474,-5.6587,-5.8897,-6.0392,-6.1413,-6.1927,-6.0659,-5.9212,-5.8727,-5.6971,-5.5403,-5.5354,-5.5327,-5.5372,-5.5491,-5.6615,-5.7543,-5.7611,-5.9031,-6.0285,-6.0722,-6.2082,-6.3974,-6.6435,-6.9014,-7.0151,-6.9087,-6.9853,-7.031,-7.0016,-6.7719,-5.73,-3.666,-2.4549,-1.5019,-0.7928,2.3633,4.2802,4.7596,6.0211,6.2265,5.3719,3.9161,2.2534,0.3925,-1.8152,-3.5974,-4.9909,-5.7074,-5.9849,0.0,-5.7204,-5.4137,-5.0712,-5.1341,-5.0551,-4.9492,-5.3075,-5.5983,-5.8954,0.0,0.0,0.0,0.0,0.0,0.0,0.0,-3.8751,-3.8571,-3.926,-3.8781,-3.8661,-3.9349,-3.9409,-3.9679,-4.0411,-4.0501,0.0,0.0,0.0,0.0,0.0,0.0,-4.0404,-4.1587,-4.167,-4.3199,-4.6173,-4.7052,-4.7959,-4.9018,-4.9729,-4.9695,-4.8861,-4.7998,-4.7539,0.0,0.0,0.0,0.0,-4.6327,-4.7087,0.0,0.0,0.0,0.0,0.0,0.0,0.0,0.0,0.0,0.0,0.0,0.0,0.0,0.0,0.0,0.0,0.0,-5.8357,-5.9518,-5.9579,-5.9001,-5.8158,-5.7211,-5.5797,0.0,-5.4697,-5.4697,-5.4743,-5.4912,-5.5415,-5.5853,-5.593,-5.7194,-5.8597,-6.006,-6.2137,-6.4057,-6.5482,-6.746,-6.7986,-6.5971,-6.8017,-6.9806,-7.0487,-6.88,-6.3098,-5.2458,-3.226,-1.3557,0.2722,2.9668,5.1439,6.7212,5.8765,5.2007,4.7049,3.0419,0.8421,-1.7946,-2.8146,-4.369,-6.2659,-6.4067,-6.2776,-5.9736,-5.9502,-5.7744,-5.532,-5.6347,-5.5909,-5.5267,-5.9315,-6.1156,-6.2261,0.0,0.0,0.0,0.0,0.0,0.0,0.0,0.0,0.0,0.0,-3.8482,-3.8661,-3.9349,-3.9409,-3.9938,0.0,0.0,0.0,0.0,0.0,0.0,0.0,-4.0003,-4.0404,-4.1587,-4.2291,-4.3838,-4.6173,-4.7684,-4.8597,-4.9018,-4.9729,-4.9345,-4.7933,-4.7737,-4.6831,0.0,0.0,0.0,0.0,-4.5634,-4.6377,0.0,0.0,0.0,0.0,-4.9917,-5.0343,0.0,0.0,0.0,0.0,0.0,0.0,0.0,0.0,-5.2914,-5.3203,-5.398,0.0,-5.5093,-5.5632,-5.5616,-5.5455,0.0,-5.4829,-5.4562,-5.4562,-5.4562,-5.4762,-5.5367,-5.5206,-5.5341,-5.6468,-5.707,-5.7716,-5.8613,-6.2891,-6.6187,-6.6803,-6.8752,-6.9295,-6.7367,-6.7635,-6.864,-7.057,-6.9834,-5.9836,-3.8168,-3.2555,-1.8955,0.5058,1.1288,2.0988,3.5078,2.8617,2.328,1.9253,0.4137,-0.9125,-2.1022,-3.9139,-5.2586,-6.176,-6.5417,-6.5576,-6.3272,-6.3564,-6.2076,-5.9666,-5.9516,-5.8748,-5.7908,-6.041,-6.1334,-6.2058,0.0,0.0,0.0,0.0,0.0,0.0,0.0,0.0,0.0,0.0,-3.8392,-3.8772,-3.9859,-3.999,-4.0777,0.0,0.0,0.0,0.0,0.0,0.0,-4.1935,-4.1964,-4.236,-4.3236,-4.4288,-4.5587,-4.7133,-4.887,-4.9793,-5.0033,-4.9986,-4.9294,-4.8067,-4.7302,-4.5889,-4.4159,-4.5079,0.0,-4.5026,-4.5659,0.0,0.0,0.0,0.0,0.0,-4.9371,-4.9744,0.0,-5.092,-5.1612,-5.2185,0.0,0.0,0.0,0.0,-5.2242,-5.2397,-5.3035,-5.3561,-5.3975,-5.4354,-5.4727,-5.4913,-5.4541,-5.4429,-5.4317,-5.3944,-5.3906,-5.4131,-5.4951,-5.5429,-5.5714,-5.5788,-5.7088,-5.8354,-5.9151,-6.2168,-6.4762,-6.6053,-6.7625,-6.86,-6.8636,-6.8435,-6.9282,-7.1632,-7.0192,-6.2203,-4.61,-4.6603,-3.8609,-1.963,-2.1336,-1.0363,1.4955,0.7012,0.1009,-0.2819,-1.6196,-2.6531,-3.4252,-4.7396,-5.6405,-6.1942,-6.5322,-6.6089,-6.4995,-6.5262,-6.4252,-6.2494,-6.1845,-6.0726,-5.9879,-6.1888,-6.225,-6.2199,0.0,0.0,0.0,0.0,0.0,0.0,0.0,0.0,0.0,0.0,0.0,0.0,0.0,0.0,0.0,0.0,0.0,0.0,0.0,0.0,-4.4726,-4.4436,-4.4377,-4.4526,-4.4975,-4.6388,-4.7428,-4.8125,-4.9993,-5.0993,-5.1217,-5.0393,-4.9521,-4.866,-4.7044,-4.5468,-4.397,-4.5593,-4.6086,-4.6015,-4.6446,0.0,0.0,0.0,0.0,0.0,0.0,0.0,0.0,-5.083,-5.1387,-5.1848,-5.2177,0.0,0.0,0.0,0.0,0.0,-5.3087,-5.4301,-5.506,-5.4693,-5.5016,-5.5302,-5.473,-5.4496,-5.4195,-5.3512,-5.3396,-5.3676,-5.4554,-5.5587,-5.5995,-5.5173,-5.7245,-5.9516,-6.0985,-6.1449,-6.2521,-6.4636,-6.5899,-6.7333,-6.9141,-6.9524,-7.0417,-7.2522,-7.0116,-6.6633,-6.2092,-6.3199,-6.0059,-5.1409,-5.3346,-3.8708,-0.5414,-1.3988,-2.0037,-2.32,-3.3591,-4.2182,-4.9057,-5.3252,-5.7751,-6.242,-6.4609,-6.5536,-6.5527,-6.5659,-6.5024,-6.3802,-6.3023,-6.194,-6.1145,-6.2837,-6.2812,-6.2307,0.0,0.0,0.0,0.0,0.0,0.0,0.0,0.0,0.0,0.0,0.0,0.0,0.0,0.0,0.0,0.0,0.0,0.0,0.0,-4.5227,-4.491,-4.5177,-4.4616,-4.4107,-4.3658,-4.6591,-4.785,-4.7461,-4.9924,-5.1189,-5.1217,-5.1054,-5.0159,-4.8693,-4.7632,-4.6925,-4.6675,-4.6358,-4.6518,-4.7157,-4.7981,0.0,0.0,0.0,0.0,0.0,0.0,0.0,0.0,-4.9976,-5.0215,-5.05,-5.1736,0.0,0.0,0.0,0.0,0.0,-5.3968,-5.6291,-5.7997,-5.5941,-5.502,-5.4821,-5.5294,-5.4947,-5.4459,-5.4232,-5.4246,-5.4737,-5.6082,-5.504,-5.4677,-5.7011,-5.7701,-5.9481,-6.3717,-6.3766,-6.3832,-6.4838,-6.6946,-6.8113,-6.7794,-6.9017,-7.0245,-7.1119,-6.9725,-6.8054,-6.6354,-6.4,-6.1638,-5.9248,-5.7774,-5.4286,-4.8639,-4.8503,-4.8267,-4.7838,-5.1246,-5.1985,-5.0626,-5.5752,-5.9417,-6.1938,-6.4399,-6.5273,-6.5039,-6.5698,-6.4828,-6.3045,-6.2295,-6.1535,-6.093,-6.112,-6.1381,-6.1817,0.0,0.0,0.0,0.0,0.0,0.0,0.0,0.0,0.0,0.0,0.0,0.0,0.0,0.0,0.0,0.0,0.0,0.0,-4.5565,-4.5081,-4.4634,-4.4197,-4.4789,-4.5392,-4.6264,-4.8355,-4.9576,-4.9766,-5.1596,-5.2435,-5.2435,-5.1464,-4.9953,-4.7972,-4.8432,-4.8188,-4.7405,-4.8453,-4.8787,-4.8735,0.0,0.0,0.0,0.0,0.0,0.0,0.0,0.0,0.0,0.0,-4.9722,-5.0167,-5.1241,0.0,0.0,0.0,0.0,0.0,-5.4179,-5.5464,-5.6638,-5.6859,-5.7631,-5.7942,-5.6541,-5.5632,-5.4937,-5.4496,-5.4128,-5.4491,-5.6435,-5.7282,-5.8724,-6.1739,-6.0806,-6.0453,-6.2683,-6.2788,-6.3206,-6.4743,-6.6388,-6.7891,-6.9251,-6.9713,-7.0215,-7.0859,-6.9236,-6.7553,-6.6038,-6.3836,-6.1666,-5.949,-5.8788,-5.8275,-5.7886,-5.6893,-5.6539,-5.6862,-5.817,-5.7819,-5.6063,-5.8811,-6.0305,-6.09,-6.2715,-6.3041,-6.2361,-6.3414,-6.3453,-6.2582,-6.1541,-6.0963,-6.0662,-5.9762,-5.999,-6.0826,0.0,0.0,0.0,0.0,0.0,0.0,0.0,0.0,0.0,0.0,0.0,0.0,0.0,0.0,0.0,0.0,0.0,0.0,-4.4394,-4.4674,-4.4266,-4.3189,-4.48,-4.6438,-4.8097,-4.9674,-5.0895,-5.1658,-5.2941,-5.3518,-5.3484,-5.2096,-5.0406,-4.8562,-4.9816,-4.9681,-4.8632,-5.0393,-5.0859,-5.0423,0.0,0.0,0.0,0.0,0.0,0.0,0.0,0.0,0.0,0.0,0.0,0.0,0.0,0.0,0.0,-5.268,-5.2937,-5.3163,-5.4136,-5.4715,-5.5386,-5.6806,-5.8689,-5.9835,-5.8279,-5.6993,-5.6056,-5.5624,-5.4938,-5.4863,-5.648,-5.9166,-6.1882,-6.4427,-6.3085,-6.2019,-6.2557,-6.2591,-6.3413,-6.5471,-6.6597,-6.8183,-7.0815,-7.0599,-7.0296,-7.0397,-6.8741,-6.692,-6.5079,-6.3432,-6.1433,-5.9023,-5.8754,-5.819,-5.7207,-5.7111,-5.7887,-5.9553,-6.0035,-6.0059,-5.9741,-6.0286,-6.015,-5.9534,-6.0691,-6.0566,-5.9602,-6.0724,-6.1083,-6.0916,-5.9956,-5.9712,-5.9696,-5.8819,-5.8953,-5.9607,0.0,0.0,0.0,0.0,0.0,0.0,0.0,0.0,0.0,0.0,0.0,0.0,0.0,0.0,0.0,0.0,0.0,0.0,-4.2364,-4.3792,-4.4139,-4.2705,-4.4618,-4.5835,-4.6098,-4.9176,-5.0829,-5.0938,-5.2672,-5.3518,-5.3518,-5.3382,-5.2809,-5.1932,-5.2066,-5.2032,-5.1899,-5.1423,-5.1524,-5.2132,-5.2232,0.0,0.0,0.0,0.0,0.0,0.0,0.0,0.0,0.0,0.0,0.0,0.0,0.0,-5.039,-5.179,-5.2159,-5.248,-5.4012,-5.5614,-5.6479,-5.5079,-5.5436,-5.7029,-6.0468,-5.9456,-5.8,-5.8699,-5.8164,-5.7413,-5.6794,-5.8631,-6.0469,-6.152,-6.255,-6.4087,-6.629,-6.6035,-6.6307,-6.8046,-6.9108,-7.0085,-7.0987,-7.1162,-7.0604,-6.9137,-6.8218,-6.7006,-6.5353,-6.3056,-6.1697,-6.1462,-5.8601,-5.6695,-5.5913,-5.5841,-5.6742,-5.8498,-5.7813,-5.7574,-5.7738,-5.8333,-5.8349,-5.7974,-5.8702,-5.8681,-5.8164,-5.8272,-5.7596,-5.6579,-5.7179,-5.7475,-5.7555,-5.8538,-5.8552,-5.8152,0.0,0.0,0.0,0.0,0.0,0.0,0.0,0.0,0.0,0.0,0.0,-4.0727,-4.1166,0.0,0.0,0.0,0.0,0.0,-4.2505,-4.3335,-4.394,-4.3965,-4.5241,-4.6757,-4.8304,-4.9954,-5.1347,-5.2503,-5.3213,-5.3518,-5.3518,-5.3518,-5.3078,-5.2334,-5.2841,-5.2773,-5.23,-5.2536,-5.2807,-5.3044,-5.3044,-5.257,0.0,0.0,0.0,0.0,0.0,0.0,0.0,0.0,-4.9018,-4.9107,-4.978,-4.9976,-5.0167,-5.1189,-5.1494,-5.1615,-5.2184,-5.3161,-5.4011,-5.3921,-5.442,-5.5703,-5.8721,-5.8386,-5.7596,-5.8395,-5.8596,-5.8701,-5.8798,-6.0306,-6.1772,-6.255,-6.3531,-6.4665,-6.609,-6.6145,-6.6493,-6.7725,-6.867,-6.9394,-6.9727,-6.9795,-6.9339,-6.8238,-6.7393,-6.5803,-6.3184,-6.2186,-6.0547,-5.8094,-5.7258,-5.6312,-5.5016,-5.4968,-5.5268,-5.5921,-5.6145,-5.622,-5.6326,-5.6556,-5.6108,-5.5147,-5.6325,-5.6165,-5.5313,-5.6713,-5.6938,-5.6586,-5.6854,-5.6988,-5.6988,-5.7465,-5.7746,-5.8017,0.0,0.0,0.0,0.0,0.0,0.0,0.0,0.0,-3.8439,0.0,0.0,0.0,0.0,-4.181,0.0,0.0,0.0,0.0,-4.2092,-4.3106,-4.3988,-4.4573,-4.6135,-4.7804,-4.9589,-5.0397,-5.1652,-5.3518,-5.3518,-5.3518,-5.3518,-5.3518,-5.3213,-5.2706,-5.3247,-5.3179,-5.2706,-5.3281,-5.3518,-5.3518,-5.3518,-5.301,0.0,0.0,0.0,0.0,0.0,0.0,0.0,0.0,-4.9018,-4.9107,-4.9521,-4.9664,-4.9838,-5.0554,-5.077,-5.0858,-5.1352,-5.1475,-5.1771,-5.281,-5.3134,-5.3858,-5.6773,-5.7513,-5.7929,-5.8935,-5.863,-5.8256,-5.8637,-5.9573,-6.0588,-6.1569,-6.3158,-6.4537,-6.5053,-6.5664,-6.6216,-6.6672,-6.7275,-6.7775,-6.8106,-6.7664,-6.7174,-6.6623,-6.5369,-6.3493,-6.11,-6.026,-5.8615,-5.5911,-5.5602,-5.4933,-5.3844,-5.378,-5.3736,-5.3697,-5.4459,-5.484,-5.484,-5.5097,-5.4698,-5.3815,-5.5079,-5.5051,-5.4274,-5.5818,-5.6608,-5.6848,-5.6508,-5.661,-5.6745,-5.6498,-5.6765,-5.734,0.0,0.0,0.0,0.0,0.0,0.0,0.0,0.0,-4.017,-3.8592,-4.0524,0.0,0.0,0.0,0.0,0.0,0.0,0.0,-4.0718,-4.324,-4.4619,-4.4168,-4.7101,-4.8903,-4.9427,-5.0301,-5.1652,-5.3484,-5.3484,-5.3518,-5.3518,-5.3518,-5.3518,-5.3518,-5.3518,-5.3518,-5.3518,-5.3518,-5.3518,-5.3518,-5.3518,-5.301,-5.23,0.0,0.0,0.0,0.0,0.0,0.0,0.0,-4.9018,-4.9018,-4.9018,-4.9018,-4.9107,-4.978,-4.9976,-5.0285,-5.1774,-5.1094,-5.0357,-5.1879,-5.1199,-5.1099,-5.4994,-5.7517,-5.9528,-6.112,-5.8425,-5.5716,-5.5716,-5.5716,-5.619,-5.7645,-6.1101,-6.3595,-6.3521,-6.5013,-6.5792,-6.4978,-6.5054,-6.5518,-6.6295,-6.493,-6.3979,-6.4061,-6.1846,-6.0142,-5.9294,-5.7081,-5.5778,-5.5778,-5.3536,-5.2281,-5.232,-5.2207,-5.2177,-5.2112,-5.285,-5.3225,-5.3225,-5.4032,-5.441,-5.4517,-5.536,-5.5668,-5.5688,-5.5724,-5.6184,-5.6811,-5.6028,-5.6136,-5.6729,-5.5996,-5.5716,-5.5919,0.0,0.0,0.0,0.0,0.0,0.0,0.0,0.0,-3.9554,-4.013,-4.0285,0.0,0.0,0.0,0.0,0.0,0.0,0.0,-4.2834,-4.4079,-4.5583,-4.7245,-4.8217,-4.9214,-5.034,-5.0496,-5.1108,-5.2383,-5.2383,-5.28,-5.3484,-5.4042,-5.4011,-5.3484,-5.4042,-5.4011,-5.3518,-5.3518,-5.3518,-5.3518,-5.3518,-5.301,-5.23,0.0,0.0,0.0,0.0,0.0,0.0,0.0,0.0,0.0,-4.9018,-4.9018,-4.9046,-4.9256,-4.9316,-4.9411,-4.9855,-5.0009,-5.0202,-5.0646,-5.1206,-5.2094,-5.3849,-5.5537,-5.7582,-6.0184,-5.8049,-5.5886,-5.6393,-5.6055,-5.6197,-5.7672,-5.8939,-6.0381,-6.2648,-6.2366,-6.2087,-6.2525,-6.2571,-6.2736,-6.3004,-6.2133,-6.1554,-6.1543,-5.9905,-5.8284,-5.6902,-5.6168,-5.5075,-5.3403,-5.3181,-5.2779,-5.2227,-5.2676,-5.2906,-5.2893,-5.3103,-5.3225,-5.3225,-5.3445,-5.3616,-5.37,-5.453,-5.488,-5.5001,-5.5476,-5.5865,-5.5963,-5.5227,-5.5403,-5.5968,-5.5213,-5.5243,-5.5852,0.0,0.0,0.0,0.0,0.0,0.0,-3.9632,-4.0196,-4.0672,-4.0926,-4.0736,-4.1002,0.0,0.0,0.0,0.0,0.0,0.0,-4.4714,-4.5484,-4.6737,-4.8592,-4.8956,-4.9398,-4.9995,-4.9474,-4.9852,-5.1303,-5.1704,-5.2561,-5.3946,-5.4356,-5.4391,-5.3946,-5.4356,-5.42,-5.3518,-5.3518,-5.3518,-5.3518,-5.3518,-5.2841,-5.1928,0.0,0.0,0.0,0.0,0.0,0.0,0.0,0.0,0.0,-4.9018,-4.9018,-4.9018,-4.9018,-4.9018,-4.9052,-4.9357,-4.9763,-5.0236,-5.0811,-5.1623,-5.2503,-5.3315,-5.4939,-5.6744,-5.86,-5.6985,-5.5448,-5.6269,-5.5552,-5.5407,-5.7213,-5.779,-5.866,-6.0504,-5.9909,-5.9389,-5.969,-5.9702,-5.9667,-5.9756,-5.9289,-5.9004,-5.9051,-5.7623,-5.6349,-5.5397,-5.5081,-5.4114,-5.2334,-5.2729,-5.2718,-5.2201,-5.2552,-5.2898,-5.3225,-5.3225,-5.3225,-5.3225,-5.3225,-5.3419,-5.379,-5.4953,-5.5618,-5.6001,-5.6417,-5.6632,-5.6527,-5.578,-5.5812,-5.6058,-5.5017,-5.4903,-5.5348,0.0,0.0,-3.8802,-3.9505,0.0,0.0,-4.0119,-4.1977,-4.2883,-4.1523,-4.1788,-4.2262,0.0,0.0,0.0,-4.4613,-4.4812,-4.5227,-4.6244,-4.7104,-4.8001,-4.8794,-4.9381,-4.936,-4.8717,-4.7873,-4.8377,-5.0397,-5.1303,-5.2702,-5.4482,-5.4606,-5.4544,-5.4482,-5.4606,-5.4166,-5.3382,-5.3382,-5.3348,-5.3315,-5.3382,-5.2503,-5.1285,-5.2802,0.0,0.0,0.0,0.0,0.0,0.0,0.0,0.0,-4.9086,-4.9052,-4.9018,-4.9086,-4.9052,-4.9187,-4.9965,-5.0135,-5.0439,-5.1928,-5.2367,-5.2604,-5.3348,-5.5074,-5.6528,-5.6596,-5.5513,-5.4839,-5.5559,-5.4572,-5.4321,-5.6551,-5.7494,-5.7973,-5.7925,-5.7898,-5.76,-5.684,-5.6697,-5.6745,-5.6798,-5.6645,-5.661,-5.667,-5.5331,-5.4464,-5.4516,-5.3881,-5.3112,-5.2232,-5.2337,-5.231,-5.2095,-5.2077,-5.2481,-5.3225,-5.3151,-5.3151,-5.3225,-5.3225,-5.3702,-5.4583,-5.6124,-5.7262,-5.7997,-5.7997,-5.7997,-5.795,-5.7202,-5.6912,-5.6721,-5.5238,-5.4634,-5.4586,0.0,0.0,-4.0467,-4.133,0.0,0.0,-4.2326,-4.3469,-4.4065,-4.3872,-4.3284,-4.3067,-4.3659,-4.2333,0.0,-4.4613,-4.4812,-4.552,-4.7172,-4.7506,-4.8265,-4.9715,-4.9529,-4.8942,-4.8035,-4.8317,-4.9085,-5.0397,-5.0627,-5.1776,-5.3783,-5.4328,-5.4264,-5.3783,-5.4328,-5.3857,-5.257,-5.257,-5.2232,-5.1758,-5.2334,-5.1758,-5.0773,-5.2061,-5.1085,0.0,0.0,0.0,0.0,0.0,0.0,0.0,-4.9864,-4.9458,-4.912,-4.9695,-4.9458,-4.9289,-5.0608,-5.0541,-5.0439,-5.1928,-5.2773,-5.3281,-5.345,-5.389,-5.4363,-5.4938,-5.4803,-5.4839,-5.5559,-5.4988,-5.5094,-5.7424,-5.6917,-5.6675,-5.7877,-5.6974,-5.613,-5.5953,-5.5953,-5.5956,-5.5961,-5.5449,-5.5111,-5.5074,-5.4228,-5.372,-5.3717,-5.3618,-5.2875,-5.1488,-5.2507,-5.2533,-5.1369,-5.1792,-5.2401,-5.3188,-5.2564,-5.2601,-5.3225,-5.3225,-5.3995,-5.539,-5.6381,-5.7262,-5.7997,-5.7997,-5.7997,-5.795,-5.7202,-5.6912,-5.6773,-5.5836,-5.5084,-5.4606,0.0,0.0,0.0,0.0,0.0,0.0,0.0,0.0,-4.4815,-4.4632,-4.4098,-4.3847,-4.4075,-4.3289,0.0,0.0,-4.5943,-4.6763,-4.8161,-4.8289,-4.879,-4.9859,-4.9632,-4.9373,-4.9048,-4.9347,-5.0087,-5.108,-5.108,-5.2103,-5.4042,-5.4419,-5.4356,-5.4042,-5.4419,-5.3754,-5.23,-5.23,-5.1894,-5.1251,-5.1623,-5.1285,-5.0608,-5.1417,-5.0646,-4.9214,-5.121,0.0,0.0,0.0,0.0,0.0,0.0,0.0,-4.9154,-4.9864,-4.983,-4.9763,-5.0913,-5.1183,-5.142,-5.2604,-5.3179,-5.3518,-5.3518,-5.3518,-5.3619,-5.3991,-5.4059,-5.4429,-5.5471,-5.5364,-5.5751,-5.771,-5.6756,-5.5999,-5.6834,-5.5628,-5.4771,-5.5174,-5.5179,-5.5144,-5.5208,-5.4839,-5.4431,-5.4093,-5.3721,-5.3518,-5.3518,-5.3145,-5.2401,-5.1251,-5.223,-5.2236,-5.1086,-5.171,-5.2197,-5.2637,-5.2197,-5.2504,-5.3484,-5.3484,-5.4411,-5.5965,-5.633,-5.7217,-5.8326,-5.8097,-5.7997,-5.795,-5.7583,-5.7449,-5.7351,-5.6527,-5.578,-5.5084,0.0,0.0,0.0,0.0,0.0,0.0,0.0,0.0,0.0,-4.4868,-4.459,-4.4476,-4.4677,-4.4301,-4.4782,0.0,0.0,0.0,-4.8923,-4.9018,-4.9114,-4.9351,-4.9546,-4.9746,-4.9853,-5.0262,-5.0853,-5.1559,-5.1801,-5.2774,-5.4212,-5.4385,-5.4419,-5.4419,-5.4419,-5.3592,-5.2097,-5.2063,-5.1555,-5.0845,-5.1014,-5.0747,-5.0312,-5.104,-5.0342,-4.9318,-5.2145,-5.2243,-5.107,-5.0173,0.0,0.0,0.0,0.0,-4.9154,-4.9864,-5.0101,-5.027,-5.115,-5.1961,-5.2672,-5.3348,-5.3518,-5.3518,-5.3518,-5.3518,-5.3518,-5.3518,-5.3518,-5.3946,-5.5437,-5.5724,-5.6223,-5.7774,-5.6685,-5.5724,-5.5724,-5.4544,-5.3881,-5.4391,-5.4524,-5.4563,-5.4425,-5.4427,-5.416,-5.3551,-5.3518,-5.345,-5.3315,-5.2672,-5.1894,-5.1048,-5.1777,-5.1777,-5.0909,-5.1492,-5.1867,-5.1977,-5.2247,-5.2892,-5.4019,-5.4202,-5.5023,-5.6407,-5.6481,-5.7376,-5.8673,-5.8282,-5.8051,-5.7997,-5.7997,-5.7997,-5.795,-5.7302,-5.6616,-5.578,0.0,0.0,0.0,0.0,0.0,0.0,0.0,0.0,0.0,0.0,-4.489,-4.4838,-4.6026,-4.4949,-4.4976,-4.7276,-4.7539,-4.7998,-4.8923,0.0,0.0,-4.7935,-4.902,-4.9061,-4.7636,-4.9668,-5.0528,-4.9974,-5.1496,-5.2369,-5.2632,-5.3345,-5.3685,-5.3685,-5.3685,-5.2804,-5.1352,-5.0919,-5.0143,-4.9357,-5.0232,-5.0062,-4.9424,-5.121,-5.071,-4.9211,-5.0888,-5.1355,-5.0984,-4.959,-4.9516,0.0,0.0,0.0,-4.9154,-4.9864,-5.0101,-5.0405,-5.1792,-5.2739,-5.3382,-5.3484,-5.3518,-5.3518,-5.3518,-5.3518,-5.3518,-5.3518,-5.3518,-5.3946,-5.5437,-5.5724,-5.6223,-5.7774,-5.6685,-5.5724,-5.5724,-5.4999,-5.4264,-5.3717,-5.4175,-5.4303,-5.3751,-5.3653,-5.3619,-5.3518,-5.3518,-5.3213,-5.2503,-5.2367,-5.1657,-5.027,-5.1499,-5.1494,-5.0079,-5.0649,-5.1316,-5.2013,-5.3084,-5.4056,-5.4951,-5.57,-5.6353,-5.6873,-5.7623,-5.824,-5.8713,-5.8632,-5.8375,-5.7997,-5.7997,-5.7997,-5.7997,-5.7904,-5.7401,-5.6616,0.0,0.0,0.0,0.0,0.0,0.0,0.0,0.0,0.0,0.0,0.0,-4.5945,-4.6614,-4.6404,-4.6673,-4.7718,-4.8152,-4.8576,-4.8984,-4.9018,-4.8967,-4.9019,-4.959,-4.9759,-4.9422,-5.0492,-5.0894,-5.056,-5.173,-5.23,-5.2334,-5.3112,-5.3518,-5.3518,-5.3518,-5.2841,-5.1592,-5.0851,-4.991,-4.9063,-4.9492,-4.9362,-4.9097,-4.9965,-4.9767,-4.9173,-5.0646,-5.0642,-4.9936,-4.9846,-4.9675,-4.9492,-4.9492,0.0,0.0,0.0,-5.0101,-5.0405,-5.1894,-5.257,-5.2942,-5.3382,-5.3041,-5.2627,-5.2627,-5.2627,-5.2627,-5.2627,-5.311,-5.3849,-5.4878,-5.5437,-5.5948,-5.6632,-5.6169,-5.5724,-5.5724,-5.5059,-5.4668,-5.473,-5.4634,-5.4482,-5.4171,-5.3717,-5.3315,-5.2875,-5.2841,-5.2503,-5.1725,-5.1285,-5.0777,-5.0101,-5.1067,-5.1034,-4.9902,-5.0504,-5.1109,-5.1676,-5.3163,-5.4568,-5.5857,-5.7206,-5.7873,-5.8038,-5.8387,-5.8769,-5.9065,-5.8796,-5.8418,-5.7997,-5.7997,-5.7997,-5.7997,-5.7997,-5.7266,-5.6204,0.0,0.0,0.0,0.0,0.0,0.0,0.0,0.0,0.0,0.0,0.0,-4.665,-4.7022,0.0,0.0,0.0,-4.8511,-4.8714,-4.8714,-4.8714,-4.9052,-4.9796,-5.0168,-5.0473,-5.0642,-5.1014,-5.1048,-5.0642,-5.1386,-5.1826,-5.2063,-5.2841,-5.3315,-5.3518,-5.3518,-5.301,-5.2031,-5.1223,-5.0281,-4.9338,-4.9092,-4.8759,-4.8467,-4.8883,-4.9018,-4.9131,-5.0232,-4.9927,-4.912,-4.9864,-4.9627,-4.9018,-4.9018,-4.9018,0.0,0.0,0.0,-5.0405,-5.1894,-5.23,-5.2503,-5.3315,-5.287,-5.2241,-5.1993,-5.2065,-5.2241,-5.1993,-5.28,-5.3685,-5.42,-5.4939,-5.5495,-5.5667,-5.5552,-5.5437,-5.5437,-5.4939,-5.4757,-5.5119,-5.4818,-5.4544,-5.4328,-5.3413,-5.2708,-5.2334,-5.1899,-5.1494,-5.098,-5.0405,-4.9999,-4.983,-5.0649,-5.0732,-4.9902,-5.0685,-5.1189,-5.1409,-5.3417,-5.5206,-5.6774,-5.8307,-5.9163,-5.9393,-5.9327,-5.9345,-5.9354,-5.899,-5.8508,-5.7997,-5.7997,-5.7997,-5.7997,-5.7997,-5.713,-5.5948,0.0,0.0,0.0,0.0,0.0,0.0,0.0,0.0,0.0,0.0,0.0,-4.6312,-4.7699,-4.7902,-4.8206,-4.8883,-4.8342,-4.797,-4.797,-4.797,-4.8308,-4.9018,-5.0405,0.0,-4.9154,-5.0507,-5.0541,-4.912,-4.983,-5.0574,-5.1285,-5.2029,-5.2773,-5.3518,-5.3518,-5.3044,-5.2266,-5.2031,-5.1352,-5.0299,-4.9357,-4.8152,-4.7087,-4.8497,-4.8991,-4.8999,-4.9097,-4.9097,-4.9052,-4.9068,-4.9063,-4.9018,-4.9018,-4.9018,-4.9018,0.0,0.0,0.0,-5.1894,-5.23,-5.2503,-5.3315,-5.345,-5.3179,-5.2137,-5.2697,-5.311,-5.2065,-5.28,-5.3484,-5.3551,-5.4171,-5.4878,-5.561,-5.5084,-5.4634,-5.4634,-5.4634,-5.4391,-5.3651,-5.4235,-5.4328,-5.3618,-5.2029,-5.1356,-5.2234,-5.0826,-4.9992,-5.0105,-5.0101,-4.9763,-4.9086,-5.0369,-5.0732,-4.9902,-5.123,-5.1743,-5.1446,-5.4251,-5.6254,-5.7576,-5.8884,-5.9911,-6.0681,-6.0681,-6.0179,-5.9389,-5.9354,-5.8835,-5.7997,-5.7997,-5.7997,-5.7997,-5.7997,-5.7498,-5.6721,0.0,0.0,0.0,0.0,0.0,0.0,0.0,0.0,0.0,0.0,0.0,0.0,0.0,-4.8342,-4.8714,-4.8984,-4.8342,-4.7936,-4.7936,-4.7936,-4.824,-4.8984,-4.9526,-4.956,-4.9018,-4.9526,-4.9526,-4.9018,-4.9729,-5.0236,-5.0507,-5.1725,-5.2469,-5.2739,-5.3281,-5.3348,-5.3044,-5.2301,-5.1558,-5.0777,-4.8798,-4.7362,-4.6334,-4.687,-4.7564,-4.8335,-4.8809,-4.9317,-4.9729,-4.9932,-5.0168,-5.0338,-4.9864,-4.9695,-4.9593,-4.9154,-4.9187,-4.9593,-5.0608,-5.0879,-5.1082,-5.1826,-5.1531,-5.0919,-5.0537,-5.1111,-5.1685,-5.13,-5.2466,-5.3518,-5.3518,-5.4106,-5.4544,-5.4328,-5.4419,-5.4606,-5.4606,-5.4606,-5.4482,-5.4264,-5.4419,-5.4004,-5.2594,-5.1545,-5.0846,-5.0622,-4.9689,-4.9161,-4.9362,-4.939,-4.9255,-4.9018,-5.0369,-5.1137,-5.1221,-5.1477,-5.1933,-5.2597,-5.5496,-5.7319,-5.8117,-5.9657,-6.0512,-6.0781,-6.0781,-6.0456,-5.9823,-5.9526,-5.899,-5.8418,-5.8097,-5.7997,-5.7997,-5.7997,-5.7498,-5.6773,0.0,0.0,0.0,0.0,0.0,-4.3789,-4.3388,-4.4064,-4.4756,-4.5263,0.0,0.0,0.0,0.0,-4.8815,-4.8308,-4.78,-4.7428,-4.7192,-4.7394,-4.7868,-4.8612,-4.912,-4.9255,-4.9018,-4.9255,-4.9255,-4.9018,-4.9492,-4.9864,-5.0101,-5.1082,-5.1826,-5.2334,-5.2875,-5.3247,-5.345,-5.2774,-5.2332,-5.1753,-4.9434,-4.7597,-4.6334,-4.7173,-4.7605,-4.7882,-4.868,-4.9289,-4.9767,-4.9961,-5.0168,-5.0405,-4.9898,-4.9729,-4.9627,-4.9154,-4.9018,-4.9154,-4.9898,-5.0101,-5.0338,-5.1319,-5.0894,-5.0189,-5.0076,-5.0516,-5.0886,-5.0839,-5.2065,-5.3179,-5.345,-5.3881,-5.4042,-5.3551,-5.3881,-5.42,-5.42,-5.42,-5.4102,-5.3744,-5.371,-5.3112,-5.1525,-5.0278,-4.9603,-4.971,-4.8584,-4.8166,-4.8956,-4.9018,-4.9229,-4.9698,-5.0363,-5.1131,-5.1977,-5.1862,-5.2252,-5.327,-5.6197,-5.7851,-5.8357,-6.005,-6.0781,-6.0781,-6.0781,-6.0533,-6.0074,-5.9592,-5.9102,-5.8673,-5.815,-5.7997,-5.7997,-5.7997,-5.7498,-5.6861,0.0,0.0,-4.4174,-4.3482,-4.3383,-4.3383,-4.3383,-4.4064,-4.4587,-4.4621,0.0,0.0,0.0,0.0,0.0,-4.6955,-4.6819,-4.6481,-4.5771,-4.638,-4.7124,-4.7902,-4.9289,-4.9729,-4.9018,-4.9695,-4.9729,-4.9018,-4.9018,-4.9357,-5.0067,-5.0067,-5.0845,-5.2232,-5.2266,-5.2706,-5.3382,-5.3484,-5.3481,-5.3331,-5.1337,-4.9024,-4.712,-4.9508,-4.9215,-4.7637,-4.8606,-4.9039,-4.9039,-4.9092,-4.912,-4.912,-4.9086,-4.9052,-4.9052,-4.9018,-4.9018,-4.9154,0.0,0.0,0.0,-5.186,-5.1657,-5.1058,-5.078,-5.0961,-5.1092,-5.0846,-5.163,-5.2536,-5.3348,-5.3518,-5.3518,-5.3518,-5.3518,-5.3518,-5.3518,-5.3484,-5.3041,-5.1993,-5.1849,-5.1451,-5.0474,-4.8231,-4.7643,-4.9571,-4.7535,-4.7069,-4.899,-4.9052,-4.9639,-5.1034,-5.0291,-5.0629,-5.2055,-5.2419,-5.2847,-5.327,-5.6226,-5.7877,-5.8357,-6.005,-6.0781,-6.0781,-6.0781,-6.0508,-6.0074,-5.9592,-5.9102,-5.8673,-5.815,-5.7997,-5.7997,-5.7997,-5.7546,-5.6912,0.0,-4.4148,-4.4505,-4.4303,-4.427,-4.427,-4.427,-4.444,-4.479,0.0,0.0,0.0,-4.7564,-4.8443,-4.8612,-4.7699,-4.7124,-4.6718,-4.6515,-4.6684,-4.7124,-4.7902,-4.8815,-4.9221,-4.9018,-4.9187,-4.9187,-4.9018,-4.9018,-4.912,-4.9323,-4.983,-5.0304,-5.071,-5.1285,-5.1261,-5.0957,-5.2741,-5.3481,-5.3365,-5.1715,-4.9961,-4.8429,-4.8599,-4.8112,-4.7619,-4.8624,-4.9468,-5.0214,-5.1085,-5.1758,-5.2063,-5.0947,-5.0236,-4.9695,-4.9154,-4.9018,-4.9052,-4.9255,0.0,0.0,0.0,0.0,0.0,-4.9513,-4.9944,-5.0544,-5.0992,-5.1697,-5.2536,-5.3348,-5.3518,-5.3518,-5.3518,-5.3518,-5.3518,-5.3518,-5.287,-5.2241,-5.1921,-5.1229,-5.0397,-4.9376,-4.8195,-4.8059,-4.9351,-4.8368,-4.8567,-5.048,-5.0101,-5.0189,-5.1034,-5.0291,-5.0998,-5.3272,-5.311,-5.3565,-5.459,-5.6958,-5.815,-5.8357,-6.005,-6.0781,-6.0781,-6.0456,-6.0217,-6.0074,-5.9592,-5.9102,-5.8673,-5.815,-5.7997,-5.7997,-5.7997,-5.7867,-5.7631,-4.3369,-4.4045,-4.4587,-4.4587,-4.4587,-4.4587,-4.4587,-4.4587,-4.4722,0.0,0.0,0.0,-4.824,-4.8748,-4.8714,-4.797,-4.753,-4.7124,-4.6819,-4.6786,-4.6989,-4.7428,-4.801,-4.8416,-4.8545,-4.8849,-4.9018,-4.9018,-4.9018,-4.9018,-4.9018,-4.9424,-4.9607,-4.9555,-4.999,-4.9824,-4.936,-5.1243,-5.2369,-5.277,-5.1461,-5.0177,-4.8972,-4.8815,-4.8551,-4.8259,-4.9232,-5.0008,-5.0652,-5.1792,-5.2198,-5.2166,-5.1722,-5.0947,-5.0173,-4.9627,-4.9458,-4.939,-4.9086,-4.9018,-4.9086,-4.939,0.0,0.0,-4.939,-4.956,-4.9932,-5.098,-5.1555,-5.2198,-5.3281,-5.3518,-5.3518,-5.3518,-5.3518,-5.3518,-5.3518,-5.2557,-5.1776,-5.1303,-5.0397,-4.9296,-4.8293,-4.7978,-4.8184,-4.9266,-4.9038,-4.9608,-5.1153,-5.0788,-5.0887,-5.1529,-5.0773,-5.1439,-5.3758,-5.3424,-5.3829,-5.5107,-5.7258,-5.8319,-5.8357,-6.005,-6.0589,-6.0219,-5.9775,-5.9481,-5.9229,-5.8794,-5.8615,-5.8673,-5.815,-5.7997,-5.7997,-5.7997,-5.7997,-5.795,0.0,-4.391,-4.4485,-4.4553,-4.4587,-4.4621,-4.4688,-4.4621,-4.471,0.0,-4.6259,-4.7649,-4.8849,-4.9018,-4.8748,-4.8105,-4.797,-4.7597,-4.6853,-4.6786,-4.6786,-4.6718,-4.7233,-4.7673,-4.8037,-4.868,-4.9018,-4.9018,-4.9018,-4.9018,-4.9018,-4.8861,-4.8721,-4.8561,-4.8493,-4.8269,-4.8093,-4.9199,-5.0281,-5.1192,-5.0657,-4.9791,-4.8894,-4.9796,-4.9666,-4.9106,-5.0113,-5.0615,-5.0818,-5.179,-5.1555,-5.0986,-5.1756,-5.142,-5.0649,-5.0338,-5.0135,-4.9965,-4.9289,-4.9052,-4.9154,-4.9796,-4.9492,0.0,-4.983,-4.9458,-4.9424,-5.0913,-5.1217,-5.1691,-5.3213,-5.3518,-5.3518,-5.3518,-5.3518,-5.345,-5.3348,-5.2483,-5.1475,-5.032,-4.9358,-4.8385,-4.7538,-4.7742,-4.8357,-4.9512,-4.9987,-5.0559,-5.1254,-5.139,-5.1695,-5.2147,-5.1574,-5.2096,-5.3869,-5.3564,-5.4002,-5.516,-5.7182,-5.8165,-5.8204,-5.9781,-6.0165,-5.945,-5.8907,-5.8463,-5.8076,-5.7602,-5.7888,-5.8591,-5.8186,-5.7997,-5.7997,-5.7997,-5.7997,-5.7997,-4.2354,-4.3132,-4.3842,-4.4485,-4.4587,-4.479,-4.5399,-4.4959,-4.5388,-4.7748,-4.8803,-4.9296,-4.9012,-4.9018,-4.8951,-4.8815,-4.824,-4.7597,-4.6853,-4.6786,-4.6591,-4.6136,-4.7038,-4.7909,-4.8781,-4.8951,-4.9018,-4.9018,-4.9018,-4.9018,-4.8984,-4.8225,-4.7869,-4.7803,-4.7026,-4.6247,-4.5591,-4.6516,-4.6803,-4.6729,-4.9436,-4.9293,-4.7703,-4.9443,-4.9661,-4.9125,-5.0101,-5.1011,-5.1888,-5.2874,-5.3078,-5.2875,-5.2367,-5.2097,-5.1794,-5.1183,-5.0574,-5.0067,-4.9898,-4.9458,-4.9052,-4.9187,-4.912,0.0,-4.9187,-4.912,-4.9424,-5.0913,-5.1217,-5.1691,-5.3213,-5.3518,-5.3518,-5.3518,-5.3518,-5.3179,-5.2312,-5.1825,-5.088,-4.9278,-4.8699,-4.8425,-4.849,-4.8553,-4.9395,-5.1255,-5.2294,-5.2539,-5.2131,-5.2722,-5.2811,-5.2183,-5.2976,-5.3706,-5.4355,-5.4638,-5.5033,-5.5577,-5.672,-5.7242,-5.728,-5.8319,-5.905,-5.9412,-5.7938,-5.764,-5.8113,-5.7279,-5.7405,-5.8142,-5.8042,-5.7997,-5.7997,-5.7997,-5.7997,-5.7997,-4.2219,-4.32,-4.4113,-4.4519,-4.4852,-4.52,-4.5625,-4.5966,-4.669,-4.8182,-4.8993,-4.9367,-4.9012,-4.9018,-4.9018,-4.9018,-4.868,-4.8139,-4.7394,-4.7361,-4.6862,-4.5857,-4.6465,-4.6971,-4.7462,-4.8037,-4.8511,-4.9006,-4.9012,-4.8798,-4.8289,-4.7803,-4.6908,-4.5661,-4.5547,-4.5008,-4.4316,-4.4619,-4.5122,-4.5823,-4.7664,-4.8223,-4.8134,-4.9207,-4.9323,-4.9086,-4.9565,-5.1044,-5.2802,-5.3348,-5.3518,-5.345,-5.3044,-5.2909,-5.2739,-5.1995,-5.1488,-5.1116,-5.0744,-5.0371,-5.0101,-5.0101,-5.0101,0.0,0.0,-5.0101,-5.0405,-5.1522,-5.1758,-5.2131,-5.3281,-5.3518,-5.3518,-5.3518,-5.3518,-5.311,-5.2065,-5.1297,-5.0517,-4.9419,-4.8867,-4.8729,-4.9254,-4.9963,-5.1005,-5.2557,-5.3179,-5.3315,-5.2909,-5.361,-5.3787,-5.3368,-5.4313,-5.4902,-5.5093,-5.5276,-5.5489,-5.5703,-5.6588,-5.6973,-5.7011,-5.7896,-5.828,-5.8219,-5.7558,-5.7359,-5.751,-5.6809,-5.7125,-5.7997,-5.7997,-5.7997,-5.7997,-5.7997,-5.7997,-5.7997,-4.2286,-4.3403,-4.4418,-4.4553,-4.5089,-4.563,-4.6022,-4.7004,-4.7773,-4.7958,-4.8673,-4.9089,-4.904,-4.8748,-4.868,-4.8984,-4.8748,-4.8342,-4.7733,-4.7571,-4.6895,-4.5534,-4.563,-4.5732,-4.5737,-4.6794,-4.7834,-4.8761,-4.8686,-4.8286,-4.7572,-4.7239,-4.5955,-4.3975,-4.4339,-4.4202,-4.371,-4.3771,-4.4726,-4.6056,-4.6532,-4.7623,-4.8928,-4.8971,-4.9086,-4.9221,-4.9169,-5.1014,-5.3511,-5.3314,-5.3382,-5.3518,-5.3518,-5.3518,-5.3382,-5.2739,-5.2435,-5.2164,-5.1589,-5.1319,-5.1217,-5.1217,-5.1217,-5.1217,0.0,0.0,0.0,-5.2164,-5.23,-5.2536,-5.3348,-5.3518,-5.3518,-5.3518,-5.3518,-5.311,-5.2065,-5.1229,-5.0434,-4.9667,-4.9275,-4.9264,-4.9864,-5.1329,-5.2557,-5.3416,-5.3518,-5.3518,-5.3518,-5.4321,-5.4677,-5.45,-5.528,-5.5683,-5.5563,-5.5573,-5.5589,-5.5577,-5.6374,-5.6742,-5.678,-5.7665,-5.7742,-5.728,-5.7481,-5.743,-5.7133,-5.6706,-5.6941,-5.7556,-5.7703,-5.785,-5.7997,-5.7997,-5.7997,-5.7997,-4.2286,-4.2963,-4.3775,-4.4451,-4.5089,-4.5979,-4.7326,-4.7627,-4.795,-4.8687,-4.9416,-4.9641,-4.9067,-4.7834,-4.7564,-4.8883,-4.78,-4.6989,-4.6921,-4.6465,-4.5756,-4.4756,-4.4716,-4.4792,-4.4764,-4.6127,-4.7259,-4.8003,-4.7525,-4.7439,-4.7572,-4.5921,-4.4974,-4.4613,-4.3819,-4.3427,-4.3427,-4.5178,-4.5665,-4.554,-4.7741,-4.8678,-4.8728,-4.8942,-4.939,-4.9965,-4.9999,-5.1478,-5.3369,-5.2702,-5.2909,-5.3518,-5.3518,-5.3518,-5.3484,-5.3382,-5.2875,-5.2266,-5.2198,-5.1725,-5.1217,-5.1217,-5.1217,-5.1217,-5.1217,0.0,-5.142,-5.2164,0.0,-5.2536,-5.3348,0.0,0.0,-5.3518,-5.3518,-5.311,-5.2065,-5.1776,-5.1005,-4.9178,-4.9399,-4.9852,-5.0246,-5.2164,-5.3348,-5.3518,-5.3518,-5.3518,-5.3518,-5.4809,-5.5263,-5.45,-5.5542,-5.5767,-5.51,-5.5163,-5.5157,-5.5186,-5.5608,-5.5857,-5.5857,-5.6742,-5.7511,-5.8143,-5.7748,-5.7764,-5.7997,-5.7566,-5.6751,-5.5941,-5.6675,-5.7373,-5.7997,-5.7997,-5.7997,-5.7997,-4.2388,-4.3267,-4.4181,-4.4519,-4.5089,-4.5718,-4.6473,-4.798,-4.9159,-4.9434,-5.0188,-5.0379,-4.9712,-4.9086,-4.8951,-4.9593,-4.9052,-4.8342,-4.7496,-4.7639,-4.7166,-4.5906,-4.5891,-4.5505,-4.4606,-4.5732,-4.676,-4.7683,-4.7298,-4.7011,-4.673,-4.5447,-4.4295,-4.338,-4.3307,-4.3404,-4.3655,-4.4282,-4.5247,-4.6486,-4.8289,-4.8961,-4.889,-4.8967,-4.9187,-4.9526,-4.9932,-5.0469,-5.0977,-5.1488,-5.2164,-5.2739,-5.23,-5.2773,-5.3416,-5.2942,-5.2909,-5.301,-5.301,-5.2773,-5.2536,-5.2536,-5.2536,-5.2536,-5.2536,-5.2536,-5.2638,-5.2942,0.0,0.0,0.0,0.0,0.0,0.0,-5.2807,-5.2505,-5.1631,-5.1383,-5.0978,-5.0359,-5.0721,-5.1329,-5.2131,-5.2972,-5.3518,-5.3518,-5.3518,-5.3685,-5.4106,-5.5144,-5.575,-5.5866,-5.6776,-5.6747,-5.5694,-5.5728,-5.5517,-5.5107,-5.5262,-5.5375,-5.5413,-5.6521,-5.7075,-5.7251,-5.8259,-5.8383,-5.7825,-5.7397,-5.6706,-5.5965,-5.6073,-5.6602,-5.7373,-5.7813,-5.7997,-5.7997,-4.2712,-4.3803,-4.4831,-4.4643,-4.5421,-4.6257,-4.6756,-4.8802,-5.022,-4.996,-5.0242,-5.0404,-5.0153,-4.956,-4.9424,-5.0033,-4.9526,-4.8815,-4.7841,-4.8281,-4.797,-4.6666,-4.6583,-4.5824,-4.4293,-4.5395,-4.6422,-4.7276,-4.6976,-4.6604,-4.6173,-4.493,-4.3731,-4.2641,-4.312,-4.3421,-4.3697,-4.3789,-4.4881,-4.6745,-4.8332,-4.8957,-4.9001,-4.9193,-4.9209,-4.9093,-4.9622,-4.9632,-4.9569,-5.0312,-5.122,-5.1928,-5.1386,-5.1995,-5.2773,-5.2164,-5.2435,-5.2909,-5.3112,-5.3179,-5.3213,-5.345,-5.3518,-5.3518,-5.3518,-5.3518,-5.3518,-5.3518,-5.3518,0.0,0.0,0.0,-5.3315,-5.2739,0.0,-5.2131,-5.1589,-5.1128,-5.0999,-5.1177,-5.1647,-5.2312,-5.3416,-5.3518,-5.3416,-5.3179,-5.3549,-5.3844,-5.3954,-5.5273,-5.6204,-5.6563,-5.7279,-5.7111,-5.6054,-5.6137,-5.5842,-5.5102,-5.5417,-5.5589,-5.5627,-5.6778,-5.716,-5.6949,-5.8486,-5.853,-5.7535,-5.705,-5.6369,-5.5717,-5.5638,-5.5941,-5.6602,-5.7629,-5.7997,-5.7997,-4.3342,-4.4487,-4.5267,-4.472,-4.6257,-4.8014,-4.9533,-5.0503,-5.0788,-5.0111,-4.943,-4.9286,-5.0057,-4.8173,-4.7767,-4.9898,-4.8139,-4.709,-4.7477,-4.7511,-4.7056,-4.6079,-4.6007,-4.525,-4.3449,-4.5151,-4.6269,-4.6819,-4.6422,-4.6191,-4.6173,-4.4251,-4.3329,-4.3299,-4.3329,-4.3329,-4.3379,-4.4588,-4.5175,-4.5457,-4.7965,-4.9019,-4.9086,-4.9796,-4.9589,-4.8999,-4.9059,-4.9656,-5.0299,-4.9371,-5.0042,-5.1251,-5.1217,-5.1251,-5.1285,-5.1251,-5.1251,-5.1454,-5.2131,-5.2334,-5.2536,-5.3315,-5.3518,-5.3518,-5.3518,-5.3518,-5.3518,-5.3518,-5.3518,-5.3518,-5.3518,-5.3518,-5.3484,-5.3484,-5.2807,0.0,0.0,-5.1626,-5.1094,-5.0872,-5.1493,-5.2312,-5.3416,-5.3518,-5.3179,-5.2401,-5.3724,-5.392,-5.2433,-5.5221,-5.651,-5.578,-5.6454,-5.6455,-5.5618,-5.6014,-5.5769,-5.5025,-5.6246,-5.6828,-5.6866,-5.7691,-5.8069,-5.8069,-5.8178,-5.7973,-5.7411,-5.6667,-5.5609,-5.4553,-5.528,-5.5611,-5.5831,-5.7409,-5.7997,-5.7997,-4.4202,-4.5294,-4.5906,-4.4822,-4.561,-4.6803,-4.8205,-4.8714,-4.8955,-4.9201,-4.9422,-4.978,-5.0091,-4.9424,-4.9289,-5.0033,-4.9588,-4.9046,-4.8517,-4.8483,-4.8105,-4.731,-4.7259,-4.676,-4.5669,-4.59,-4.6481,-4.753,-4.6189,-4.5751,-4.6173,-4.4174,-4.3329,-4.3329,-4.3329,-4.3693,-4.4358,-4.4945,-4.5419,-4.6021,-4.8161,-4.9548,-5.042,-5.0145,-4.9624,-4.9018,-4.8978,-4.9221,-4.9424,-4.9125,-4.9632,-5.0405,-4.9898,-5.0439,-5.1116,-5.0608,-5.115,-5.1995,-5.2232,-5.2706,-5.3179,-5.345,-5.3518,-5.3518,-5.3518,-5.3518,-5.3518,-5.3518,-5.3518,-5.3518,-5.3518,-5.3518,-5.3348,-5.2807,-5.2469,-5.2131,0.0,-5.1792,-5.2066,-5.2538,-5.2805,-5.311,-5.3416,-5.3518,-5.3382,-5.3112,-5.3581,-5.3874,-5.3822,-5.4799,-5.5759,-5.6474,-5.6762,-5.6733,-5.6418,-5.6522,-5.6298,-5.5806,-5.622,-5.6444,-5.6482,-5.7594,-5.7935,-5.7716,-5.8079,-5.7774,-5.7,-5.5958,-5.5246,-5.4862,-5.5417,-5.5941,-5.6455,-5.7005,-5.7556,-5.7997,-4.4643,-4.5282,-4.5686,-4.5106,-4.5602,-4.6486,-4.7626,-4.7842,-4.8083,-4.8781,-4.9296,-4.9736,-5.0062,-4.9864,-4.9796,-5.0067,-5.0028,-4.969,-4.9052,-4.9018,-4.8646,-4.7774,-4.7808,-4.7564,-4.6819,-4.6683,-4.7053,-4.7936,-4.6548,-4.5975,-4.6173,-4.4174,-4.3329,-4.3329,-4.3329,-4.3879,-4.4949,-4.5651,-4.6104,-4.6684,-4.8686,-4.9898,-5.0385,-5.0195,-5.009,-4.9888,-4.8809,-4.8714,-4.8951,-4.8551,-4.9052,-4.9627,-4.9154,-4.9661,-5.0405,-5.0168,-5.0777,-5.1623,-5.2164,-5.2672,-5.3145,-5.345,-5.3518,-5.3518,-5.3518,-5.3518,-5.3518,-5.3518,-5.3518,-5.3518,-5.3518,-5.3518,-5.3348,-5.2807,-5.2503,-5.2063,0.0,-5.1826,-5.2503,-5.301,-5.3348,-5.3518,-5.3518,-5.3518,-5.3382,-5.3078,-5.3547,-5.3874,-5.3788,-5.4556,-5.5437,-5.6421,-5.6721,-5.6853,-5.6822,-5.7079,-5.6963,-5.6418,-5.6714,-5.6862,-5.6862,-5.7374,-5.7523,-5.7237,-5.7004,-5.6519,-5.5921,-5.4873,-5.4568,-5.4825,-5.5043,-5.5831,-5.6822,-5.7116,-5.7556,-5.7997,-4.472,-4.4621,-4.4925,-4.5669,-4.6346,-4.7056,-4.7868,-4.7936,-4.8173,-4.8917,-4.9018,-4.9255,-4.9965,-4.9424,-4.9289,-4.9965,-4.939,-4.9018,-4.9018,-4.9018,-4.8551,-4.7545,-4.7808,-4.7631,-4.6853,-4.7597,-4.797,-4.797,-4.7372,-4.677,-4.6173,-4.4174,-4.3329,-4.3329,-4.3299,-4.4065,-4.536,-4.6582,-4.7127,-4.7408,-4.9496,-4.9845,-4.9182,-5.0021,-5.0934,-5.1429,-4.8549,-4.8112,-4.8754,-4.7815,-4.8179,-4.9018,-4.9018,-4.9018,-4.9154,-4.9864,-5.0135,-5.0473,-5.1894,-5.23,-5.2469,-5.3247,-5.3416,-5.3416,-5.345,-5.345,-5.345,-5.3484,-5.3484,-5.3551,-5.3551,-5.3551,-5.3551,-5.3551,-5.2841,-5.2131,-5.142,-5.1928,-5.2367,-5.2367,-5.3044,-5.3518,-5.3518,-5.3518,-5.3179,-5.2435,-5.3724,-5.392,-5.2467,-5.446,-5.5667,-5.5724,-5.6474,-5.6889,-5.6859,-5.7629,-5.7629,-5.6859,-5.7629,-5.796,-5.7923,-5.7152,-5.6785,-5.6638,-5.5097,-5.4399,-5.4326,-5.3592,-5.3739,-5.4473,-5.4509,-5.5464,-5.6969,-5.7703,-5.7997,-5.7997,-4.4643,-4.5466,-4.6447,-4.7225,-4.7056,-4.7225,-4.8511,-4.8274,-4.8173,-4.8917,-4.9018,-4.9086,-4.9255,-4.912,-4.9086,-4.9255,-4.912,-4.9018,-4.9018,-4.9018,-4.8646,-4.7808,-4.8409,-4.8376,-4.7631,-4.8342,-4.8714,-4.8714,-4.7172,-4.634,-4.6173,-4.4174,-4.3329,-4.3299,-4.3287,-4.4273,-4.5953,-4.6767,-4.7935,-4.9312,-4.9311,-4.9882,-5.0541,-4.9705,-4.9964,-5.0509,-4.7943,-4.7389,-4.7861,-4.7551,-4.8179,-4.9018,-4.9018,-4.9018,-4.9154,-4.9864,-5.0473,-5.1116,-5.2063,-5.23,-5.2367,-5.257,-5.2198,-5.1928,-5.2469,-5.2604,-5.2773,-5.3382,-5.3946,-5.4328,-5.4328,-5.4328,-5.4328,-5.4328,-5.3645,-5.3145,-5.2942,-5.3078,-5.3179,-5.3179,-5.3382,-5.3518,-5.3518,-5.3518,-5.3416,-5.3213,-5.3549,-5.3649,-5.3213,-5.4253,-5.5144,-5.5667,-5.6474,-5.7143,-5.7703,-5.7886,-5.7886,-5.7703,-5.7886,-5.7703,-5.7116,-5.6895,-5.6455,-5.5831,-5.484,-5.4399,-5.4363,-5.4179,-5.4583,-5.5354,-5.5941,-5.6822,-5.7703,-5.7923,-5.7997,-5.7997,-4.5128,-4.6278,-4.7428,-4.7834,-4.7834,-4.7936,-4.8443,-4.8173,-4.8173,-4.8917,-4.8714,-4.8646,-4.8951,-4.8714,-4.8646,-4.8984,-4.9018,-4.9018,-4.9018,-4.9018,-4.8815,-4.8409,-4.8781,-4.8815,-4.8409,-4.8781,-4.9018,-4.9018,-4.7104,-4.6173,-4.6173,-4.4174,-4.3566,-4.3974,-4.3487,-4.4601,-4.6867,-4.7572,-4.8782,-5.0033,-4.9289,-4.9695,0.0,-4.9458,-4.9323,-4.969,-4.8274,-4.795,-4.8124,-4.7781,-4.8247,-4.9018,-4.9018,-4.9018,-4.9154,-4.9864,-5.0405,-5.0879,-5.1623,-5.1826,-5.1826,-5.1826,-5.1758,-5.1792,-5.2198,-5.283,-5.343,-5.3909,-5.4544,-5.5084,-5.5084,-5.5084,-5.4999,-5.4634,-5.4011,-5.3518,-5.3518,-5.3518,-5.3518,-5.3518,-5.3518,-5.3518,-5.3518,-5.3518,-5.3518,-5.3518,-5.3518,-5.3518,-5.3518,-5.42,-5.4939,-5.5667,-5.6474,-5.7252,-5.7997,-5.7997,-5.7997,-5.7997,-5.7997,-5.7593,-5.6785,-5.6455,-5.5831,-5.5023,-5.4216,-5.4069,-5.4399,-5.4399,-5.506,-5.6198,-5.7005,-5.7593,-5.7997,-5.7997,-5.7997,-5.7997,-4.6075,-4.7124,-4.8071,-4.8071,-4.8578,-4.8781,-4.8173,-4.8071,-4.8274,-4.8917,-4.8443,-4.8308,-4.8951,-4.8443,-4.8308,-4.8917,-4.8984,-4.8984,-4.8984,-4.8984,-4.9018,-4.9018,-4.9018,-4.9018,-4.9018,-4.9018,-4.9018,-4.9018,-4.7104,-4.6173,-4.6173,-4.4327,-4.3927,-4.4781,-4.4118,-4.5278,-4.7868,-4.8639,-4.9458,-5.0101,-4.9424,-4.969,-5.0202,-4.9323,-4.9018,-4.8984,-4.8999,-4.9006,-4.8883,-4.8173,-4.8477,-4.912,-4.9052,-4.9086,-4.9255,-4.9898,-5.0101,-5.0236,-5.1014,-5.115,-5.1082,-5.1082,-5.1488,-5.1928,-5.2131,-5.3283,-5.4364,-5.4537,-5.5262,-5.5836,-5.5836,-5.5836,-5.561,-5.4757,-5.4042,-5.3618,-5.3484,-5.3518,-5.3518,-5.3518,-5.3518,0.0,-5.3518,-5.3518,-5.3518,-5.3518,-5.3518,-5.3518,-5.3518,-5.4264,-5.5024,-5.5667,-5.6688,-5.746,-5.7997,-5.8107,-5.8107,-5.7997,-5.7997,-5.7593,-5.6785,-5.5978,-5.5133,-5.4363,-5.3555,-5.3665,-5.4399,-5.4509,-5.55,-5.7042,-5.774,-5.7997,-5.7997,-5.7997,-5.7997,-5.7997,-4.7327,-4.8206,-4.8815,-4.8815,-4.8917,-4.8951,-4.8849,-4.8815,-4.8849,-4.8984,-4.8883,-4.8849,-4.8984,-4.8883,-4.8877,-4.8965,-4.8978,-4.9012,-4.8999,-4.8978,-4.9018,-4.9018,-4.9018,-4.9018,-4.9018,-4.9018,-4.9018,-4.9018,-4.7104,-4.6173,-4.6173,-4.5079,-4.4662,-4.4856,-4.5955,-4.7309,-4.8798,-4.8923,-4.9565,-5.0413,-5.0289,-5.0827,-5.1447,-4.969,-4.9018,-4.8984,-4.8984,-4.8984,-4.8883,-4.8173,-4.8815,-4.9796,-4.9187,-4.9424,-4.9932,-5.0067,-5.0101,-5.0236,-5.1014,-5.0777,-5.027,-5.027,-4.9932,-4.9898,-5.1116,-5.2118,-5.3142,-5.4329,-5.5667,-5.6668,-5.6668,-5.6668,-5.6204,-5.4818,-5.4482,-5.42,-5.3551,-5.3518,-5.3518,-5.3518,-5.3518,-5.3518,-5.3518,-5.3518,-5.3518,-5.3518,-5.3518,-5.3518,-5.3518,-5.4791,-5.5552,-5.5724,-5.7732,-5.8516,-5.7997,-5.8657,-5.8657,-5.7997,-5.7997,-5.7593,-5.6785,-5.5978,-5.5133,-5.4363,-5.3555,-5.3665,-5.4436,-5.5097,-5.6345,-5.7813,-5.7923,-5.7997,-5.7997,-5.7997,-5.7997,-5.7997,-4.8748,-4.9018,-4.912,-4.9492,-4.9255,-4.9018,-4.9018,-4.868,-4.8578,-4.8951,-4.868,-4.8578,-4.8951,-4.868,-4.8572,-4.8991,-4.8606,-4.8606,-4.8957,-4.8606,-4.8612,-4.8984,-4.9018,-4.9018,-4.9018,-4.9018,-4.9018,-4.9018,-4.7605,-4.6968,-4.69,-4.5992,-4.5778,-4.6346,-4.7539,-4.8413,-4.9018,-4.9018,-4.9593,-5.0541,-5.0754,-5.0992,-5.104,-4.9588,-4.9018,-4.9086,-4.9622,-4.9723,-4.9526,-4.9154,-4.9492,-5.0033,-4.9661,-4.9796,-4.9999,-4.9627,-4.9526,-4.9593,-4.9965,-4.9796,-4.9526,-4.9526,-4.9835,-5.0412,-5.1569,-5.2672,-5.3937,-5.5497,-5.6345,-5.6976,-5.7377,-5.7166,-5.6668,-5.5928,-5.5119,-5.4482,-5.4106,-5.3717,-5.3518,-5.3518,-5.3518,-5.3685,-5.4042,-5.4042,-5.3881,-5.3484,-5.3815,-5.4042,-5.4042,-5.5119,-5.5893,-5.6313,-5.7813,-5.84,-5.7997,-5.84,-5.84,-5.7997,-5.7997,-5.7373,-5.6161,-5.5757,-5.4913,-5.3775,-5.3812,-5.4289,-5.5097,-5.6345,-5.7299,-5.7997,-5.7997,-5.7997,-5.7997,-5.7997,-5.7997,-5.7997,-4.9661,-4.9526,-4.9357,-4.9796,-4.939,-4.8951,-4.8815,-4.8274,-4.8173,-4.8917,-4.8376,-4.8206,-4.8917,-4.8477,-4.8369,-4.8957,-4.8436,-4.8369,-4.8957,-4.8436,-4.8409,-4.8984,-4.9018,-4.9018,-4.9018,-4.9018,-4.9018,-4.9018,-4.8096,-4.7572,-4.7572,-4.6799,-4.7036,-4.7933,-4.8639,-4.9018,-4.9018,-4.9351,-4.9893,-5.0697,-5.102,-5.102,-5.0532,-4.9452,-4.912,-4.939,-5.013,-5.0401,-5.0338,-5.0507,-5.0439,-5.0304,-5.0135,-5.0101,-4.9965,-4.9221,-4.9018,-4.9052,-4.9187,-4.9345,-4.9562,-4.9699,-5.0607,-5.1616,-5.2439,-5.3478,-5.4625,-5.6118,-5.6466,-5.6748,-5.7373,-5.7134,-5.6812,-5.666,-5.5653,-5.4757,-5.4634,-5.3946,-5.3551,-5.3717,-5.3717,-5.3977,-5.4757,-5.4999,-5.4791,-5.4011,-5.4482,-5.4818,-5.4818,-5.5552,-5.6259,-5.6861,-5.7777,-5.818,-5.7997,-5.818,-5.818,-5.7997,-5.7997,-5.7336,-5.6088,-5.5904,-5.517,-5.3995,-5.4436,-5.5097,-5.5978,-5.7409,-5.7997,-5.7997,-5.7997,-5.7997,-5.7997,-5.7997,-5.7997,-5.7997,-4.9221,-4.9593,-4.9796,-4.9221,-4.9052,-4.8781,-4.8139,-4.797,-4.8173,-4.8917,-4.8376,-4.8206,-4.8917,-4.8951,-4.8911,-4.8991,-4.8972,-4.8911,-4.8991,-4.8972,-4.8951,-4.9018,-4.9018,-4.9018,-4.9018,-4.9018,-4.9018,-4.9018,-4.8096,-4.7572,-4.7572,-4.7506,-4.7933,-4.8861,-4.8923,-4.9018,-4.9086,-5.0425,-5.1031,-5.1133,-5.1196,-5.1196,-5.0997,-4.952,-4.9588,-5.0299,-5.0232,-5.0541,-5.1217,-5.186,-5.1657,-5.098,-5.0304,-5.0101,-4.9965,-4.9221,-4.9018,-4.9154,-4.9796,-5.0549,-5.1222,-5.1879,-5.2144,-5.2413,-5.3137,-5.3381,-5.3664,-5.4517,-5.5229,-5.5721,-5.5794,-5.6373,-5.6583,-5.593,-5.565,-5.5379,-5.4695,-5.3946,-5.3717,-5.4419,-5.4482,-5.4757,-5.5552,-5.6259,-5.6367,-5.5552,-5.5552,-5.561,-5.561,-5.6367,-5.6809,-5.6912,-5.8324,-5.8767,-5.7997,-5.8731,-5.8731,-5.7997,-5.7997,-5.7923,-5.774,-5.7005,-5.6602,-5.6455,-5.5757,-5.5941,-5.6748,-5.7629,-5.7997,-5.7997,-5.7997,-5.7997,-5.7997,-5.7997,-5.7997,-5.7997,-4.9526,-4.9526,-4.9492,-4.9627,-4.9289,-4.8748,-4.8037,-4.7936,-4.8037,-4.8308,-4.8105,-4.8206,-4.8917,-4.9018,-4.9012,-4.8991,-4.8572,-4.8538,-4.8957,-4.8572,-4.8545,-4.8984,-4.9018,-4.9018,-4.9018,-4.9018,-4.9018,-4.9018,-4.8639,-4.845,-4.845,-4.845,-4.8875,-4.9661,-4.9661,-4.9898,-5.0338,-5.0642,-5.0973,-5.1099,-5.0265,-4.9864,-4.9853,-4.9187,-4.9492,-5.0333,-5.0642,-5.1183,-5.186,-5.2736,-5.2196,-5.1183,-5.0845,-5.0473,-4.9965,-4.9221,-4.9323,-4.982,-5.0643,-5.1381,-5.201,-5.2292,-5.2626,-5.2996,-5.3268,-5.3255,-5.3608,-5.4884,-5.5359,-5.5574,-5.5574,-5.6271,-5.6694,-5.6426,-5.6371,-5.615,-5.5379,-5.4606,-5.4264,-5.4544,-5.4606,-5.4885,-5.5634,-5.6433,-5.6747,-5.6378,-5.6381,-5.6421,-5.6421,-5.6721,-5.7116,-5.7546,-5.815,-5.8327,-5.7997,-5.8327,-5.8327,-5.7997,-5.7997,-5.774,-5.7262,-5.6969,-5.6822,-5.6785,-5.6455,-5.6785,-5.7556,-5.7886,-5.7997,-5.7997,-5.7997,-5.7997,-5.7997,-5.7997,-5.7997,-5.7997,-4.9255,-4.9221,-4.9086,-4.939,-4.9187,-4.8748,-4.8037,-4.7936,-4.7936,-4.7936,-4.7936,-4.8206,-4.8917,-4.9018,-4.9012,-4.8999,-4.8538,-4.847,-4.8999,-4.8504,-4.8477,-4.8984,-4.9018,-4.9018,-4.9018,-4.9018,-4.912,-4.9323,-4.912,-4.912,-4.9323,-4.9323,-4.9593,-5.0101,-5.0338,-5.0574,-5.0879,-5.0716,-5.0909,-5.1094,-4.9932,-4.9531,-4.9622,-4.952,-4.9965,-5.0811,-5.1352,-5.1961,-5.257,-5.3243,-5.2465,-5.1183,-5.1014,-5.0574,-5.0028,-4.9767,-5.0168,-5.0967,-5.2033,-5.2796,-5.3429,-5.3602,-5.3842,-5.3951,-5.3951,-5.3543,-5.3518,-5.4656,-5.4876,-5.4876,-5.4876,-5.5537,-5.6161,-5.6418,-5.6528,-5.6469,-5.6114,-5.5379,-5.4999,-5.5238,-5.5297,-5.5603,-5.6319,-5.6889,-5.7231,-5.7143,-5.7207,-5.7216,-5.7216,-5.7216,-5.7449,-5.7997,-5.7997,-5.7997,-5.7997,-5.7997,-5.7997,-5.7997,-5.7997,-5.7703,-5.7152,-5.7152,-5.7152,-5.7152,-5.7152,-5.7483,-5.7997,-5.7997,-5.7997,-5.7997,-5.7997,-5.7997,-5.7997,-5.7997,-5.7997,-5.7997,-4.7936,-4.8511,-4.8781,-4.8071,-4.8545,-4.8748,-4.8037,-4.7936,-4.7936,-4.7936,-4.7936,-4.8206,-4.8917,-4.9018,-4.9018,-4.8984,-4.8984,-4.8984,-4.8984,-4.8984,-4.8984,-4.9018,-4.9018,-4.9018,-4.9018,-4.9018,-4.9357,-5.0067,-4.9357,-4.9357,-5.0067,-5.0067,-5.0067,-5.0135,-5.0879,-5.0811,-5.0135,-5.0879,-5.1172,-5.1145,-5.0725,-5.0764,-5.1099,-5.0634,-5.1214,-5.2266,-5.2266,-5.2807,-5.345,-5.3481,-5.2465,-5.1116,-5.0638,-5.0333,-5.0255,-5.1035,-5.1789,-5.2695,-5.4141,-5.515,-5.5952,-5.666,-5.6212,-5.5574,-5.5574,-5.4363,-5.3225,-5.3225,-5.3225,-5.3225,-5.3225,-5.3885,-5.4693,-5.5464,-5.5691,-5.601,-5.6804,-5.6204,-5.5948,-5.6809,-5.6861,-5.7166,-5.7867,-5.7997,-5.7997,-5.7997,-5.7997,-5.7997,-5.7997,-5.7997,-5.7997,-5.7997,-5.7997,-5.7997,-5.7997,-5.7997,-5.7997,-5.7997,-5.7997,-5.7997,-5.7997,-5.7997,-5.7997,-5.7997,-5.7997,-5.7997,-5.7997,-5.7997,-5.7997,-5.7997,-5.7997,-5.7997,-5.7997,-5.7997,-5.7997,-5.7997,-4.8443,-4.8443,-4.8342,-4.8612,-4.8849,-4.8748,-4.8037,-4.8342,-4.8477,-4.8003,-4.8342,-4.8748,-4.8984,-4.9018,-4.9018,-4.9018,-4.9018,-4.9018,-4.9018,-4.9018,-4.9018,-4.9018,-4.9018,-4.9018,-4.9018,-4.9018,-4.9357,-5.0101,-4.9357,-4.912,-4.9357,-4.9864,-5.0371,-5.0879,-5.1623,-5.1826,-5.1623,-5.186,-5.1651,-5.1162,-5.104,-5.0469,-4.9757,-5.0672,-5.1217,-5.1623,-5.2131,-5.2807,-5.3382,-5.2734,-5.1688,-5.0811,-5.1348,-5.1252,-5.1114,-5.1835,-5.2927,-5.4126,-5.5114,-5.5584,-5.5749,-5.5968,-5.5404,-5.462,-5.4106,-5.3592,-5.3225,-5.3225,-5.3225,-5.3225,-5.3225,-5.3849,-5.4656,-5.5464,-5.6054,-5.6539,-5.6855,-5.6668,-5.6616,-5.6861,-5.6912,-5.6985,-5.718,-5.7666,-5.7776,-5.7226,-5.7703,-5.7997,-5.7997,-5.7997,-5.7997,-5.7997,-5.7997,-5.7997,-5.7997,-5.7997,-5.7997,-5.7997,-5.7997,-5.7997,-5.7997,-5.7997,-5.7997,-5.7997,-5.7997,-5.7997,-5.7997,-5.7997,-5.7997,-5.7997,-5.7997,-5.7997,-5.7997,-5.7997,-5.7997,-5.7997,-4.8409,-4.8443,-4.8376,-4.8578,-4.8815,-4.8849,-4.8376,-4.8714,-4.8849,-4.8376,-4.8714,-4.9018,-4.9018,-4.9018,-4.9018,-4.9018,-4.9018,-4.9018,-4.9018,-4.9018,-4.9018,-4.9018,-4.9018,-4.9018,-4.9018,-4.9018,-4.9492,-5.0507,-5.0067,-4.956,-4.9018,-5.0033,-5.0777,-5.1251,-5.23,-5.2469,-5.1896,-5.1896,-5.1285,-5.0425,-5.0676,-5.0773,-5.073,-5.1248,-5.1691,-5.2131,-5.2569,-5.3109,-5.3381,-5.236,-5.1541,-5.1241,-5.2275,-5.2551,-5.2674,-5.347,-5.4524,-5.5615,-5.6405,-5.637,-5.6091,-5.6071,-5.5207,-5.4179,-5.3408,-5.3225,-5.3225,-5.3225,-5.3225,-5.3225,-5.3225,-5.3628,-5.4216,-5.5023,-5.5831,-5.6356,-5.637,-5.6903,-5.7193,-5.6903,-5.712,-5.7316,-5.7253,-5.7703,-5.7776,-5.7299,-5.7703,-5.7997,-5.7997,-5.7997,-5.7997,-5.7997,-5.7997,-5.7997,-5.7997,-5.7997,-5.785,-5.7556,-5.7226,-5.7262,-5.7556,-5.7556,-5.7556,-5.7556,-5.7886,-5.7997,-5.7997,-5.7997,-5.7997,-5.7997,-5.7997,-5.7997,-5.7997,-5.7997,-5.7997,-5.8033,-4.8003,-4.8511,-4.8714,-4.8105,-4.8545,-4.9018,-4.9018,-4.9018,-4.9018,-4.9018,-4.9046,-4.9046,-4.9018,-4.9107,-4.9107,-4.9012,-4.8984,-4.9018,-4.908,-4.908,-4.9046,-4.9168,-4.9107,-4.9046,-4.9046,-4.9046,-4.9723,-5.1082,-5.1116,-5.0405,-4.9052,-5.0473,-5.1183,-5.1285,-5.2739,-5.2605,-5.1258,-5.1191,-5.0379,-4.9187,-4.9869,-5.1414,-5.3232,-5.2425,-5.2569,-5.3315,-5.3447,-5.3479,-5.3309,-5.2292,-5.1946,-5.2184,-5.3171,-5.4027,-5.4832,-5.5627,-5.6386,-5.7116,-5.7821,-5.7373,-5.6712,-5.6712,-5.55,-5.4106,-5.3371,-5.3225,-5.3188,-5.3151,-5.3188,-5.3188,-5.3151,-5.3188,-5.3482,-5.4289,-5.5023,-5.5537,-5.5574,-5.6932,-5.7629,-5.6895,-5.7519,-5.7997,-5.7997,-5.7997,-5.7997,-5.7997,-5.7997,-5.7997,-5.7997,-5.7997,-5.7997,-5.7997,-5.8042,-5.8042,-5.8042,-5.7969,-5.7565,-5.6785,-5.6051,-5.6088,-5.6822,-5.6859,-5.6859,-5.6859,-5.7666,-5.7997,-5.7997,-5.7997,-5.7997,-5.7997,-5.7997,-5.7997,-5.7997,-5.807,-5.807,-5.8217,-4.8646,-4.8443,-4.8308,-4.868,-4.8883,-4.9018,-4.9018,-4.9018,-4.9018,-4.9018,-4.9462,-4.958,-4.9046,-4.9953,-5.0195,-4.9079,-4.9018,-4.9324,-4.9987,-4.9419,-4.9462,-5.0589,-5.009,-4.978,-4.978,-4.978,-4.9692,-4.9526,-5.0067,-4.9898,-4.9018,-4.9932,-5.0676,-5.1251,-5.2196,-5.2399,-5.1995,-5.1423,-5.0781,-5.0168,-5.0308,-5.0913,-5.1854,-5.2806,-5.2336,-5.1396,-5.2909,-5.3549,-5.3275,-5.1857,-5.2152,-5.316,-5.3429,-5.4437,-5.5663,-5.6407,-5.7157,-5.7774,-5.795,-5.6969,-5.5868,-5.5868,-5.4656,-5.3445,-5.3261,-5.3225,-5.3041,-5.2417,-5.2784,-5.3004,-5.2417,-5.2784,-5.3482,-5.4289,-5.4546,-5.4913,-5.55,-5.6455,-5.7005,-5.6822,-5.7519,-5.7997,-5.7997,-5.7997,-5.7997,-5.7997,-5.7997,-5.7997,-5.7997,-5.7997,-5.7997,-5.7997,-5.8332,-5.8508,-5.8508,-5.7914,-5.7334,-5.6822,-5.6602,-5.6638,-5.6822,-5.7446,-5.7373,-5.6859,-5.7666,-5.7997,-5.7997,-5.7997,-5.7997,-5.7997,-5.7997,-5.7997,-5.807,-5.8694,-5.8914,-5.9024,-4.8849,-4.868,-4.8545,-4.8951,-4.9018,-4.9107,-4.9402,-4.9462,-4.9512,-4.9597,-5.0154,-5.046,-5.0275,-5.0768,-5.0823,-5.006,-4.9972,-5.009,-5.0375,-5.0111,-5.0314,-5.1086,-5.0716,-5.05,-5.05,-5.0202,-4.9664,-4.9018,-4.9729,-4.9898,-4.9526,-5.027,-5.1014,-5.1725,-5.2132,-5.2134,-5.1798,-5.1361,-5.0955,-5.0514,-5.1121,-5.1659,-5.2363,-5.3177,-5.2841,-5.2034,-5.3144,-5.3515,-5.3375,-5.2511,-5.2779,-5.362,-5.4331,-5.536,-5.643,-5.7182,-5.7679,-5.7997,-5.7997,-5.6822,-5.5427,-5.4693,-5.3849,-5.3225,-5.3225,-5.2931,-5.2637,-5.2564,-5.2601,-5.2637,-5.2564,-5.2931,-5.3335,-5.3775,-5.4179,-5.4436,-5.4473,-5.5831,-5.6675,-5.6308,-5.7299,-5.8051,-5.8326,-5.8142,-5.8097,-5.8326,-5.8142,-5.7997,-5.7997,-5.8194,-5.8326,-5.8326,-5.8549,-5.8609,-5.8428,-5.7041,-5.631,-5.6235,-5.5868,-5.5904,-5.6271,-5.7079,-5.7226,-5.6859,-5.7666,-5.7997,-5.7997,-5.7997,-5.7997,-5.8033,-5.84,-5.8327,-5.8143,-5.9318,-5.9538,-5.9391,-4.918,-4.9316,-4.9316,-4.9316,-4.9316,-4.9521,-5.009,-5.0077,-5.016,-5.0347,-5.089,-5.1347,-5.1773,-5.1592,-5.1343,-5.1205,-5.1343,-5.12,-5.0677,-5.0961,-5.1189,-5.1393,-5.1292,-5.1241,-5.1241,-5.0445,-4.9664,-4.9018,-4.9627,-4.9965,-5.0101,-5.0744,-5.1488,-5.23,-5.2336,-5.2034,-5.1564,-5.1396,-5.1195,-5.1054,-5.2065,-5.294,-5.371,-5.3874,-5.3977,-5.3949,-5.3874,-5.3802,-5.3695,-5.3671,-5.3914,-5.4403,-5.5476,-5.6357,-5.7116,-5.7813,-5.7997,-5.796,-5.785,-5.6638,-5.506,-5.3592,-5.3225,-5.3225,-5.3225,-5.2674,-5.2344,-5.2894,-5.2564,-5.2344,-5.2931,-5.3115,-5.3225,-5.3225,-5.3775,-5.3995,-5.3298,-5.517,-5.6381,-5.5684,-5.7095,-5.8282,-5.8673,-5.8369,-5.8282,-5.8673,-5.8282,-5.8042,-5.8097,-5.8503,-5.8756,-5.8913,-5.8913,-5.8578,-5.7921,-5.6067,-5.5204,-5.539,-5.484,-5.495,-5.5611,-5.6565,-5.6932,-5.6859,-5.7666,-5.7997,-5.7997,-5.7997,-5.807,-5.8253,-5.8951,-5.8877,-5.8547,-6.0015,-6.0162,-5.9795,-5.077,-5.077,-5.077,-5.077,-5.077,-5.0823,-5.0929,-5.0594,-5.0382,-5.0416,-5.1137,-5.1741,-5.1825,-5.2448,-5.2563,-5.1754,-5.2436,-5.2599,-5.1862,-5.1358,-5.1629,-5.285,-5.2289,-5.1934,-5.1934,-5.0662,-4.9664,-4.9018,-4.912,-4.9492,-5.0101,-5.0202,-5.098,-5.23,-5.2295,-5.2629,-5.3068,-5.2437,-5.2505,-5.3077,-5.3272,-5.3894,-5.4849,-5.5718,-5.6024,-5.5988,-5.5543,-5.5085,-5.4741,-5.455,-5.5741,-5.7102,-5.6111,-5.6721,-5.785,-5.796,-5.7997,-5.785,-5.7189,-5.5794,-5.4363,-5.3445,-5.3225,-5.3225,-5.3225,-5.3115,-5.2858,-5.2307,-5.2637,-5.2858,-5.227,-5.2747,-5.3225,-5.3225,-5.3298,-5.3335,-5.3225,-5.4693,-5.5721,-5.5611,-5.7371,-5.8632,-5.8713,-5.8632,-5.8632,-5.8676,-5.8282,-5.8186,-5.8549,-5.8673,-5.9028,-5.9855,-5.9885,-5.9001,-5.7192,-5.6111,-5.5248,-5.4583,-5.5133,-5.5464,-5.5647,-5.7152,-5.7446,-5.6859,-5.7666,-5.7997,-5.7997,-5.7997,-5.84,-5.9061,-5.9171,-5.9538,-6.0126,-6.108,-6.1337,-6.1374,-5.1015,-5.1086,-5.1086,-5.1086,-5.1086,-5.1241,-5.1593,-5.1379,-5.1334,-5.186,-5.2282,-5.2554,-5.2542,-5.2959,-5.3023,-5.2615,-5.2944,-5.306,-5.2725,-5.2417,-5.2509,-5.3146,-5.2893,-5.2335,-5.1593,-5.0929,-5.009,-4.9018,-4.939,-4.9965,-5.071,-5.1082,-5.1894,-5.2942,-5.2536,-5.2503,-5.2806,-5.2438,-5.2505,-5.2943,-5.3798,-5.4409,-5.4869,-5.5742,-5.6064,-5.6064,-5.5794,-5.5745,-5.5786,-5.583,-5.6809,-5.7905,-5.7195,-5.7481,-5.7997,-5.7997,-5.7703,-5.7189,-5.6381,-5.528,-5.4216,-5.3408,-5.3225,-5.3225,-5.3225,-5.2858,-5.2564,-5.2637,-5.2601,-5.2564,-5.2637,-5.2968,-5.3225,-5.3225,-5.3225,-5.3225,-5.3225,-5.4583,-5.5705,-5.5969,-5.7587,-5.8913,-5.9389,-5.9028,-5.8796,-5.9065,-5.8418,-5.8097,-5.8326,-5.8796,-5.9284,-5.9728,-5.949,-5.8631,-5.7003,-5.6284,-5.5434,-5.4399,-5.5647,-5.6235,-5.6271,-5.7446,-5.7813,-5.7483,-5.785,-5.7997,-5.7997,-5.7997,-5.8474,-5.9245,-5.9685,-6.0089,-6.0566,-6.1777,-6.1961,-6.1777,-5.1472,-5.1579,-5.1579,-5.1579,-5.1579,-5.1777,-5.2289,-5.2226,-5.2409,-5.3103,-5.3225,-5.3225,-5.3225,-5.3225,-5.3225,-5.3225,-5.3225,-5.3225,-5.3225,-5.3225,-5.3225,-5.3225,-5.3225,-5.2635,-5.1343,-5.1343,-5.0768,-4.9528,-5.0107,-5.073,-5.1488,-5.2225,-5.3034,-5.3749,-5.3309,-5.2975,-5.2876,-5.2874,-5.2773,-5.2674,-5.3873,-5.4452,-5.4695,-5.561,-5.5948,-5.6004,-5.6169,-5.6492,-5.685,-5.7072,-5.7543,-5.7969,-5.8004,-5.7997,-5.7997,-5.7997,-5.7446,-5.6638,-5.5794,-5.4987,-5.4216,-5.3408,-5.3225,-5.3225,-5.3225,-5.2711,-5.2454,-5.3078,-5.2711,-5.2454,-5.3115,-5.3225,-5.3225,-5.3225,-5.3225,-5.3298,-5.3445,-5.4785,-5.596,-5.6515,-5.8015,-5.9284,-6.0006,-5.9354,-5.9028,-5.9354,-5.8508,-5.8042,-5.8186,-5.8951,-5.9458,-5.9559,-5.9049,-5.8266,-5.7137,-5.6519,-5.5677,-5.4693,-5.6124,-5.6822,-5.6822,-5.7629,-5.7997,-5.7997,-5.7997,-5.7997,-5.7997,-5.8217,-5.8767,-5.9575,-6.0382,-6.0786,-6.1153,-6.2585,-6.2695,-6.2401,-5.3023,-5.306,-5.306,-5.306,-5.306,-5.306,-5.3103,-5.3103,-5.3146,-5.3188,-5.3225,-5.3225,-5.3225,-5.3225,-5.3225,-5.3225,-5.3225,-5.3225,-5.3225,-5.3225,-5.3225,-5.3225,-5.3225,-5.2813,-5.2065,-5.2018,-5.1699,-5.1025,-5.1094,-5.1527,-5.2232,-5.3032,-5.3818,-5.4544,-5.5166,-5.507,-5.4431,-5.4655,-5.4259,-5.3449,-5.3518,-5.3963,-5.4757,-5.6259,-5.6809,-5.6912,-5.7594,-5.7857,-5.7857,-5.7904,-5.7987,-5.7987,-5.7997,-5.7997,-5.7997,-5.7997,-5.7446,-5.6638,-5.5794,-5.4987,-5.4216,-5.3408,-5.3225,-5.3225,-5.3225,-5.3151,-5.3151,-5.3188,-5.3151,-5.3151,-5.3188,-5.3225,-5.3225,-5.3225,-5.3225,-5.3482,-5.4216,-5.5414,-5.6552,-5.7297,-5.8929,-6.0006,-6.0103,-5.9625,-5.9354,-5.9389,-5.8508,-5.8186,-5.8632,-5.9102,-5.9592,-6.0006,-5.9235,-5.8375,-5.745,-5.6627,-5.5936,-5.55,-5.6381,-5.6822,-5.6822,-5.7629,-5.7997,-5.7997,-5.7997,-5.7997,-5.807,-5.8804,-5.9612,-6.0382,-6.119,-6.1961,-6.2768,-6.3649,-6.3943,-6.4016,-5.3225,-5.3225,-5.3225,-5.3225,-5.3225,-5.3225,-5.3225,-5.3225,-5.3225,-5.3225,-5.3225,-5.3225,-5.3225,-5.3225,-5.3225,-5.3225,-5.3225,-5.3225,-5.3225,-5.3225,-5.3225,-5.3225,-5.3702,-5.3624,-5.2882,-5.3339,-5.334,-5.2614,-5.3071,-5.3427,-5.3753,-5.4478,-5.4981,-5.5262,-5.5578,-5.5402,-5.4878,-5.4957,-5.4757,-5.4409,-5.443,-5.5072,-5.615,-5.7166,-5.7546,-5.7631,-5.7904,-5.7997,-5.7997,-5.7997,-5.7997,-5.7997,-5.7997,-5.7997,-5.7997,-5.7997,-5.7776,-5.7373,-5.6565,-5.5757,-5.506,-5.4766,-5.4326,-5.3959,-5.3959,-5.3555,-5.3225,-5.3225,-5.3225,-5.3225,-5.3225,-5.3225,-5.3225,-5.3225,-5.3225,-5.3482,-5.4289,-5.5492,-5.6706,-5.7788,-5.9197,-6.0103,-6.0103,-5.9696,-5.9284,-5.899,-5.8375,-5.8051,-5.8238,-5.8713,-5.9065,-5.9212,-5.8911,-5.8315,-5.7484,-5.7376,-5.7007,-5.6345,-5.7152,-5.7556,-5.7556,-5.785,-5.7997,-5.7997,-5.7997,-5.829,-5.8767,-5.9098,-5.9979,-6.1153,-6.1484,-6.2401,-6.3649,-6.398,-6.442,-6.4971,-5.3225,-5.3225,-5.3225,-5.3225,-5.3225,-5.3225,-5.3225,-5.3225,-5.3225,-5.3225,-5.3225,-5.3225,-5.3225,-5.3225,-5.3225,-5.3225,-5.3225,-5.3225,-5.3225,-5.3225,-5.3335,-5.3592,-5.4106,-5.4298,-5.4034,-5.4615,-5.4688,-5.4153,-5.4688,-5.4972,-5.4965,-5.5699,-5.6059,-5.6059,-5.6331,-5.6134,-5.5593,-5.5816,-5.5631,-5.5221,-5.5419,-5.5897,-5.6616,-5.7401,-5.7679,-5.7679,-5.795,-5.7997,-5.7997,-5.7997,-5.7997,-5.7997,-5.7997,-5.7997,-5.7997,-5.7997,-5.7997,-5.7886,-5.7336,-5.6785,-5.6235,-5.5721,-5.4987,-5.4399,-5.4399,-5.3775,-5.3225,-5.3225,-5.3225,-5.3225,-5.3225,-5.3408,-5.3482,-5.3261,-5.3628,-5.4228,-5.4912,-5.6104,-5.7375,-5.8651,-5.9731,-6.0283,-6.0132,-5.9696,-5.9248,-5.8951,-5.8332,-5.8051,-5.8194,-5.8375,-5.8549,-5.8713,-5.8549,-5.8243,-5.765,-5.7892,-5.7703,-5.7189,-5.774,-5.7997,-5.7997,-5.7997,-5.7997,-5.7997,-5.7997,-5.8327,-5.8877,-5.9391,-6.0236,-6.1263,-6.1777,-6.2842,-6.4127,-6.4383,-6.5007,-6.5778,-5.3225,-5.3225,-5.3225,-5.3225,-5.3225,-5.3225,-5.3225,-5.3225,-5.3225,-5.3225,-5.3225,-5.3225,-5.3225,-5.3225,-5.3225,-5.3225,-5.3225,-5.3225,-5.3225,-5.3225,-5.3555,-5.4363,-5.4399,-5.4803,-5.5574,-5.5611,-5.567,-5.5721,-5.5721,-5.5721,-5.5724,-5.6563,-5.6912,-5.6964,-5.7679,-5.7594,-5.6964,-5.7679,-5.713,-5.5759,-5.6298,-5.6227,-5.5836,-5.6616,-5.6912,-5.7015,-5.7726,-5.7997,-5.7997,-5.7997,-5.7997,-5.7997,-5.7997,-5.7997,-5.7997,-5.7997,-5.7997,-5.7997,-5.7997,-5.7997,-5.7629,-5.6014,-5.5023,-5.4436,-5.4399,-5.3812,-5.3225,-5.3225,-5.3225,-5.3225,-5.3225,-5.3885,-5.4142,-5.3371,-5.4546,-5.5754,-5.6253,-5.7411,-5.8684,-5.996,-6.0508,-6.0622,-6.0132,-5.9658,-5.9389,-5.9389,-5.8508,-5.8194,-5.8673,-5.8238,-5.8194,-5.8673,-5.8238,-5.7997,-5.7997,-5.7997,-5.7997,-5.7997,-5.7997,-5.7997,-5.7997,-5.7997,-5.7997,-5.7997,-5.7997,-5.7997,-5.8143,-5.9758,-6.0419,-6.0603,-6.2181,-6.3356,-6.42,-6.5007,-6.5815,-6.6623,-5.3225,-5.3225,-5.3225,-5.3225,-5.3225,-5.3225,-5.3225,-5.3225,-5.3225,-5.3225,-5.3225,-5.3225,-5.3225,-5.3225,-5.3225,-5.3225,-5.3225,-5.3225,-5.3225,-5.3225,-5.3812,-5.517,-5.5581,-5.5912,-5.6153,-5.6895,-5.7281,-5.7313,-5.7313,-5.7291,-5.7315,-5.7546,-5.7679,-5.7679,-5.7904,-5.7904,-5.7679,-5.7904,-5.7726,-5.7302,-5.749,-5.7433,-5.7364,-5.7594,-5.7679,-5.7726,-5.795,-5.7997,-5.7997,-5.7997,-5.7997,-5.7997,-5.7997,-5.7997,-5.7997,-5.7997,-5.7997,-5.7997,-5.7997,-5.7997,-5.7886,-5.7409,-5.6675,-5.5941,-5.5354,-5.506,-5.473,-5.4179,-5.4473,-5.4876,-5.4876,-5.506,-5.5133,-5.4913,-5.5549,-5.632,-5.7037,-5.8065,-5.9033,-5.9989,-6.0508,-6.0622,-6.0132,-5.9977,-5.9592,-5.8951,-5.8332,-5.8051,-5.8194,-5.8051,-5.8051,-5.8194,-5.8051,-5.7997,-5.7997,-5.7997,-5.7997,-5.7997,-5.7997,-5.7997,-5.7997,-5.7997,-5.7997,-5.8033,-5.8621,-5.9171,-5.9758,-6.0823,-6.1557,-6.2218,-6.3282,-6.4427,-6.5598,-6.6405,-6.7431,-6.8459,-5.3225,-5.3225,-5.3225,-5.3225,-5.3225,-5.3225,-5.3225,-5.3225,-5.3225,-5.3225,-5.3225,-5.3225,-5.3225,-5.3225,-5.3225,-5.3225,-5.3225,-5.3225,-5.3225,-5.3225,-5.3849,-5.52,-5.5985,-5.6573,-5.6997,-5.7666,-5.7997,-5.7997,-5.7997,-5.7997,-5.7997,-5.7997,-5.7997,-5.7997,-5.7997,-5.7997,-5.7997,-5.7997,-5.7997,-5.7987,-5.7984,-5.8007,-5.7997,-5.7997,-5.7997,-5.7997,-5.7997,-5.7997,-5.7997,-5.7997,-5.7997,-5.7997,-5.7997,-5.7997,-5.7997,-5.7997,-5.7997,-5.7997,-5.7997,-5.7997,-5.7997,-5.7997,-5.7409,-5.6675,-5.6198,-5.5831,-5.5464,-5.495,-5.5244,-5.5574,-5.5574,-5.5868,-5.5978,-5.5647,-5.6529,-5.7338,-5.7754,-5.8678,-5.9616,-6.0326,-6.0622,-6.0622,-6.0132,-6.0103,-5.9728,-5.8756,-5.8591,-5.8503,-5.8282,-5.8282,-5.8282,-5.8282,-5.8097,-5.7997,-5.7997,-5.7997,-5.7997,-5.7997,-5.7997,-5.7997,-5.7997,-5.7997,-5.818,-5.851,-5.8988,-5.9685,-6.0456,-6.1263,-6.1887,-6.2438,-6.3873,-6.5143,-6.6254,-6.7261,-6.8307,-6.9272,-5.3188,-5.3225,-5.3225,-5.3225,-5.3225,-5.3225,-5.3225,-5.3267,-5.3309,-5.323,-5.3235,-5.3277,-5.3277,-5.3277,-5.3314,-5.3314,-5.3235,-5.3193,-5.3225,-5.3225,-5.3659,-5.4752,-5.5838,-5.6912,-5.796,-5.7997,-5.7997,-5.7997,-5.7997,-5.7997,-5.7997,-5.7997,-5.7997,-5.7997,-5.7997,-5.7997,-5.7997,-5.7997,-5.7997,-5.7997,-5.7997,-5.7997,-5.7997,-5.7997,-5.7997,-5.7997,-5.7997,-5.7997,-5.7997,-5.7997,-5.7997,-5.7997,-5.7997,-5.7997,-5.7997,-5.7997,-5.7997,-5.7997,-5.7997,-5.7997,-5.7997,-5.7997,-5.7446,-5.6895,-5.6822,-5.6271,-5.5794,-5.5721,-5.5757,-5.5794,-5.5794,-5.6463,-5.6728,-5.5992,-5.7538,-5.8728,-5.8404,-5.9391,-6.0311,-6.0757,-6.0781,-6.0622,-6.0189,-6.0132,-5.976,-5.8874,-5.9176,-5.9212,-5.8796,-5.8756,-5.8716,-5.8713,-5.8282,-5.8079,-5.8107,-5.8107,-5.8107,-5.8107,-5.8107,-5.8143,-5.8217,-5.8217,-5.8621,-5.9318,-5.9391,-5.9832,-6.0566,-6.1422,-6.1838,-6.2118,-6.4249,-6.5596,-6.6506,-6.7799,-6.8828,-6.9546,-5.3198,-5.3225,-5.3225,-5.3225,-5.3225,-5.3225,-5.3225,-5.3558,-5.3794,-5.3682,-5.3755,-5.3815,-5.3815,-5.4074,-5.4225,-5.4225,-5.3609,-5.3191,-5.3188,-5.3225,-5.3659,-5.4752,-5.5838,-5.6912,-5.796,-5.7997,-5.7997,-5.7997,-5.7997,-5.7997,-5.7997,-5.7997,-5.7997,-5.7997,-5.7997,-5.7997,-5.7997,-5.7997,-5.7997,-5.7997,-5.7997,-5.7997,-5.7997,-5.7997,-5.7997,-5.7997,-5.7997,-5.7997,-5.7997,-5.7997,-5.7997,-5.7997,-5.7997,-5.7997,-5.7997,-5.7997,-5.7997,-5.7997,-5.7997,-5.7997,-5.7997,-5.7997,-5.7886,-5.7556,-5.6932,-5.7152,-5.7299,-5.6675,-5.7042,-5.7483,-5.7483,-5.7919,-5.8252,-5.8066,-5.9022,-5.9779,-5.9718,-6.0223,-6.071,-6.0781,-6.0781,-6.0757,-6.0647,-6.0311,-6.0044,-5.9823,-5.9526,-5.9354,-5.9248,-5.9248,-5.9065,-5.8713,-5.8591,-5.8665,-5.8951,-5.8951,-5.8951,-5.8951,-5.8951,-5.9281,-5.9869,-5.9869,-5.9979,-6.0162,-6.0823,-6.119,-6.1422,-6.2632,-6.3565,-6.4324,-6.582,-6.7165,-6.8405,-6.9312,-7.0462,-7.1605,-5.3228,-5.3208,-5.3225,-5.3225,-5.3225,-5.3272,-5.3444,-5.3719,-5.3944,-5.4118,-5.4171,-5.4226,-5.4226,-5.4742,-5.4969,-5.4711,-5.4029,-5.3607,-5.3561,-5.3521,-5.399,-5.5126,-5.5317,-5.6242,-5.7932,-5.7271,-5.7226,-5.7997,-5.7997,-5.7997,-5.7997,-5.7997,-5.7997,-5.7997,-5.7997,-5.7997,-5.7997,-5.7997,-5.7997,-5.7997,-5.7997,-5.7997,-5.7997,-5.7997,-5.7997,-5.7997,-5.7997,-5.7997,-5.7997,-5.7997,-5.7997,-5.7997,-5.7997,-5.7997,-5.7997,-5.7997,-5.7997,-5.7997,-5.7997,-5.7997,-5.7997,-5.7997,-5.7997,-5.7886,-5.7483,-5.7703,-5.7886,-5.7446,-5.7703,-5.8088,-5.8282,-5.8508,-5.8756,-5.9028,-5.9625,-6.0103,-6.0103,-6.0508,-6.0781,-6.0781,-6.0781,-6.0781,-6.0781,-6.0365,-6.0103,-6.0103,-5.9885,-5.9912,-6.0329,-6.0097,-6.0039,-6.0228,-5.9743,-5.9604,-5.9795,-5.9795,-5.9979,-6.0346,-5.9979,-6.0015,-6.0419,-6.0419,-6.0823,-6.1594,-6.1998,-6.2781,-6.3817,-6.451,-6.5185,-6.5974,-6.7278,-6.8247,-6.9093,-7.0585,-7.1842,-7.2803,-5.3421,-5.3343,-5.3318,-5.3326,-5.3326,-5.345,-5.3758,-5.3977,-5.4262,-5.4547,-5.464,-5.4701,-5.4701,-5.5299,-5.5527,-5.5094,-5.4579,-5.4204,-5.4019,-5.3907,-5.4422,-5.5691,-5.4913,-5.5434,-5.7381,-5.6389,-5.6528,-5.8006,-5.785,-5.7886,-5.7997,-5.7997,-5.7997,-5.7997,-5.7997,-5.7997,-5.7997,-5.7997,-5.7997,-5.7997,-5.7997,-5.7997,-5.7997,-5.7997,-5.7997,-5.7997,-5.7997,-5.7997,-5.7997,-5.7997,-5.7997,-5.7997,-5.7997,-5.7997,-5.7997,-5.7997,-5.8107,-5.8217,-5.8217,-5.8327,-5.84,-5.84,-5.84,-5.84,-5.84,-5.818,-5.7997,-5.7997,-5.8051,-5.8238,-5.8632,-5.8835,-5.9065,-5.9458,-5.9916,-6.0293,-6.0485,-6.0687,-6.0896,-6.1204,-6.1243,-6.1166,-6.105,-6.0801,-6.0676,-6.0676,-6.0676,-6.0981,-6.1669,-6.1202,-6.1271,-6.1879,-6.1001,-6.0551,-6.0603,-6.0603,-6.1055,-6.1923,-6.1165,-6.0896,-6.1043,-6.1043,-6.1863,-6.3321,-6.3321,-6.4493,-6.6275,-6.6325,-6.6695,-6.7354,-6.8574,-6.912,-6.9527,-7.1631,-7.2783,-7.3265,-5.3941,-5.3826,-5.3758,-5.3883,-5.3912,-5.3912,-5.3941,-5.4814,-5.5341,-5.5064,-5.5312,-5.5554,-5.5554,-5.5631,-5.5691,-5.5576,-5.5511,-5.5042,-5.4055,-5.3982,-5.4684,-5.6257,-5.5287,-5.4869,-5.5249,-5.6145,-5.7087,-5.8023,-5.7308,-5.7336,-5.7997,-5.7997,-5.7997,-5.7997,-5.7997,-5.7997,-5.7997,-5.7997,-5.7997,-5.7997,-5.7997,-5.7997,-5.7997,-5.7997,-5.7997,-5.7997,-5.7997,-5.7997,-5.7997,-5.7997,-5.7997,-5.7997,-5.7997,-5.7997,-5.7997,-5.7997,-5.851,-5.9061,-5.9061,-5.9575,-6.0089,-6.0089,-6.0089,-6.0089,-6.0089,-5.8988,-5.7997,-5.7997,-5.8326,-5.8632,-5.8713,-5.9354,-5.9878,-5.9824,-6.0315,-6.1041,-6.2041,-6.1373,-6.1358,-6.2781,-6.2974,-6.2704,-6.1973,-6.2502,-6.2861,-6.2861,-6.2861,-6.29,-6.3053,-6.2586,-6.2184,-6.1917,-6.1341,-6.1152,-6.141,-6.1447,-6.2066,-6.3312,-6.2719,-6.2879,-6.3576,-6.3576,-6.4365,-6.5663,-6.5663,-6.6095,-6.6822,-6.7233,-6.7897,-6.8684,-6.9327,-7.0008,-7.0843,-7.264,-7.2937,-7.2668,-5.4553,-5.4333,-5.4217,-5.4301,-5.4295,-5.4358,-5.46,-5.5037,-5.5377,-5.5437,-5.5599,-5.5703,-5.5703,-5.5703,-5.5698,-5.5677,-5.5963,-5.5797,-5.4972,-5.4912,-5.5426,-5.6581,-5.6036,-5.5691,-5.5697,-5.5668,-5.6418,-5.8023,-5.7638,-5.7666,-5.7997,-5.7997,-5.7997,-5.7997,-5.7997,-5.7997,-5.7997,-5.7997,-5.7997,-5.7997,-5.7997,-5.7997,-5.7997,-5.7997,-5.7997,-5.7997,-5.7997,-5.7997,-5.7997,-5.7997,-5.7997,-5.807,-5.8547,-5.8694,-5.8767,-5.9208,-5.9612,-5.9869,-5.9869,-6.0126,-6.0419,-6.0419,-6.0419,-6.0419,-6.0419,-5.9624,-5.9072,-5.9634,-5.9924,-6.0257,-6.0785,-6.1223,-6.1488,-6.1349,-6.1837,-6.2281,-6.2474,-6.232,-6.2474,-6.3205,-6.332,-6.3166,-6.282,-6.3089,-6.332,-6.332,-6.332,-6.3512,-6.4012,-6.3307,-6.3038,-6.3276,-6.2807,-6.2427,-6.2254,-6.2556,-6.3251,-6.4301,-6.4113,-6.4345,-6.4911,-6.467,-6.5485,-6.7213,-6.7213,-6.7803,-6.8709,-6.8921,-6.9419,-7.0017,-7.0266,-7.1168,-7.2437,-7.3245,-7.386,-7.4476]},{"header":{"parameterUnit":"m.s-1","parameterCategory":1,"la1":30.6,"la2":28.766,"lo1":-90.7593,"lo2":-88.6598,"dy":0.0162,"dx":0.0183,"nx":116,"ny":114,"refTime":"2024-05-13T12:00:00:Z","depth":0,"parameterNumber":3,"parameterNumberName":"V-component_of_WINDS"},"data":[0.0,0.0,0.0,0.0,0.0,0.0,0.0,0.0,0.0,0.0,0.0,0.0,0.0,0.0,0.0,0.0,0.0,0.0,0.0,0.0,0.0,0.0,0.0,0.0,0.0,0.0,0.0,0.0,0.0,0.0,0.0,0.0,0.0,0.0,0.0,0.0,0.0,0.0,0.0,0.0,0.0,0.0,0.0,0.0,0.0,0.0,0.0,0.0,0.0,0.0,0.0,0.0,0.0,0.0,0.0,0.0,0.0,0.0,0.0,0.0,0.0,0.0,0.0,0.0,0.0,0.0,0.0,0.0,0.0,0.0,0.0,0.0,0.0,0.0,0.0,0.0,0.0,0.0,0.0,0.0,0.0,0.0,0.0,0.0,0.0,0.0,0.0,0.0,0.0,0.0,0.0,0.0,0.0,0.0,0.0,0.0,0.0,0.0,0.0,0.0,0.0,0.0,0.0,0.0,0.0,0.0,0.0,0.0,0.0,0.0,0.0,0.0,0.0,0.0,0.0,0.0,0.0,0.0,0.0,0.0,0.0,0.0,0.0,0.0,0.0,0.0,0.0,0.0,0.0,0.0,0.0,0.0,0.0,0.0,0.0,0.0,0.0,0.0,0.0,0.0,0.0,0.0,0.0,0.0,0.0,0.0,0.0,0.0,0.0,0.0,0.0,0.0,0.0,0.0,0.0,0.0,0.0,0.0,0.0,0.0,0.0,0.0,0.0,0.0,0.0,0.0,0.0,0.0,0.0,0.0,0.0,0.0,0.0,0.0,0.0,0.0,0.0,0.0,0.0,0.0,0.0,0.0,0.0,0.0,0.0,0.0,0.0,0.0,0.0,0.0,0.0,0.0,0.0,0.0,0.0,0.0,0.0,0.0,0.0,0.0,0.0,0.0,0.0,0.0,0.0,0.0,0.0,0.0,0.0,0.0,0.0,0.0,0.0,0.0,0.0,0.0,0.0,0.0,0.0,0.0,0.0,0.0,0.0,0.0,0.0,0.0,0.0,0.0,0.0,0.0,0.0,0.0,0.0,0.0,0.0,0.0,0.0,0.0,0.0,0.0,0.0,0.0,0.0,0.0,0.0,0.0,0.0,0.0,0.0,0.0,0.0,0.0,0.0,0.0,0.0,0.0,0.0,0.0,0.0,0.0,0.0,0.0,0.0,0.0,0.0,0.0,0.0,0.0,0.0,0.0,0.0,0.0,0.0,0.0,0.0,0.0,0.0,0.0,0.0,0.0,0.0,0.0,0.0,0.0,0.0,0.0,0.0,0.0,0.0,0.0,0.0,0.0,0.0,0.0,0.0,0.0,0.0,0.0,0.0,0.0,0.0,0.0,0.0,0.0,0.0,0.0,0.0,0.0,0.0,0.0,0.0,0.0,0.0,0.0,0.0,0.0,0.0,0.0,0.0,0.0,0.0,0.0,0.0,0.0,0.0,0.0,0.0,0.0,0.0,0.0,0.0,0.0,0.0,0.0,0.0,0.0,0.0,0.0,0.0,0.0,0.0,0.0,0.0,0.0,0.0,0.0,0.0,0.0,0.0,0.0,0.0,0.0,0.0,0.0,0.0,0.0,0.0,0.0,0.0,0.0,0.0,0.0,0.0,0.0,0.0,0.0,0.0,0.0,0.0,0.0,0.0,0.0,0.0,0.0,0.0,0.0,0.0,0.0,0.0,0.0,0.0,0.0,0.0,0.0,0.0,0.0,0.0,0.0,0.0,0.0,0.0,0.0,0.0,0.0,0.0,0.0,0.0,0.0,0.0,0.0,0.0,0.0,0.0,0.0,0.0,0.0,0.0,0.0,0.0,0.0,0.0,0.0,0.0,0.0,0.0,0.0,0.0,0.0,0.0,0.0,0.0,0.0,0.0,0.0,0.0,0.0,0.0,0.0,0.0,0.0,0.0,0.0,0.0,0.0,0.0,0.0,0.0,0.0,0.0,0.0,0.0,0.0,0.0,0.0,0.0,0.0,0.0,0.0,0.0,0.0,0.0,0.0,0.0,0.0,0.0,0.0,0.0,0.0,0.0,0.0,0.0,0.0,0.0,0.0,0.0,0.0,0.0,0.0,0.0,0.0,0.0,0.0,0.0,0.0,0.0,0.0,0.0,0.0,0.0,0.0,0.0,0.0,0.0,0.0,0.0,0.0,0.0,0.0,0.0,0.0,0.0,0.0,0.0,0.0,0.0,0.0,0.0,0.0,0.0,0.0,0.0,0.0,0.0,0.0,0.0,0.0,0.0,0.0,0.0,0.0,0.0,0.0,0.0,0.0,0.0,0.0,0.0,0.0,0.0,0.0,0.0,0.0,0.0,0.0,0.0,0.0,0.0,0.0,0.0,0.0,0.0,0.0,0.0,0.0,0.0,0.0,0.0,0.0,0.0,0.0,0.0,0.0,0.0,0.0,0.0,0.0,0.0,0.0,0.0,0.0,0.0,0.0,0.0,0.0,0.0,0.0,0.0,0.0,0.0,0.0,0.0,0.0,0.0,0.0,0.0,0.0,0.0,0.0,0.0,0.0,0.0,0.0,0.0,0.0,0.0,0.0,0.0,0.0,0.0,0.0,0.0,0.0,0.0,0.0,0.0,0.0,0.0,0.0,0.0,0.0,0.0,0.0,0.0,0.0,0.0,0.0,0.0,0.0,0.0,0.0,0.0,0.0,0.0,0.0,0.0,0.0,0.0,0.0,0.0,0.0,0.0,0.0,0.0,0.0,0.0,0.0,0.0,0.0,0.0,0.0,0.0,0.0,0.0,0.0,0.0,0.0,0.0,0.0,0.0,0.0,0.0,0.0,0.0,0.0,0.0,0.0,0.0,0.0,0.0,0.0,0.0,0.0,0.0,0.0,0.0,0.0,0.0,0.0,0.0,0.0,0.0,0.0,0.0,0.0,0.0,0.0,0.0,0.0,0.0,0.0,0.0,0.0,0.0,0.0,0.0,0.0,0.0,0.0,0.0,0.0,0.0,0.0,0.0,0.0,0.0,0.0,0.0,0.0,0.0,0.0,0.0,0.0,0.0,0.0,0.0,0.0,0.0,0.0,0.0,0.0,0.0,0.0,0.0,0.0,0.0,0.0,0.0,0.0,0.0,0.0,0.0,0.0,0.0,0.0,0.0,0.0,0.0,0.0,0.0,0.0,0.0,0.0,0.0,0.0,0.0,0.0,0.0,0.0,0.0,0.0,0.0,0.0,0.0,0.0,0.0,0.0,0.0,0.0,0.0,0.0,0.0,0.0,0.0,0.0,0.0,0.0,0.0,0.0,0.0,0.0,0.0,0.0,0.0,0.0,0.0,0.0,0.0,0.0,0.0,0.0,0.0,0.0,0.0,0.0,0.0,0.0,0.0,0.0,0.0,0.0,0.0,0.0,0.0,0.0,0.0,0.0,0.0,0.0,0.0,0.0,0.0,0.0,0.0,0.0,0.0,0.0,0.0,0.0,0.0,0.0,0.0,0.0,0.0,0.0,0.0,0.0,0.0,0.0,0.0,0.0,0.0,0.0,0.0,0.0,0.0,0.0,0.0,0.0,0.0,0.0,0.0,0.0,0.0,0.0,0.0,0.0,0.0,0.0,0.0,0.0,0.0,0.0,0.0,0.0,0.0,0.0,0.0,0.0,0.0,0.0,0.0,0.0,0.0,0.0,0.0,0.0,0.0,0.0,0.0,0.0,0.0,0.0,0.0,0.0,0.0,0.0,0.0,0.0,0.0,0.0,0.0,0.0,0.0,0.0,0.0,0.0,0.0,0.0,0.0,0.0,0.0,0.0,0.0,0.0,0.0,0.0,0.0,0.0,0.0,0.0,0.0,0.0,0.0,0.0,0.0,0.0,0.0,0.0,0.0,0.0,0.0,0.0,0.0,0.0,0.0,0.0,0.0,0.0,0.0,0.0,0.0,0.0,0.0,0.0,0.0,0.0,0.0,0.0,0.0,0.0,0.0,0.0,0.0,0.0,0.0,0.0,0.0,0.0,0.0,0.0,0.0,0.0,0.0,0.0,0.0,0.0,0.0,0.0,0.0,0.0,0.0,0.0,0.0,0.0,0.0,0.0,0.0,0.0,0.0,0.0,0.0,0.0,0.0,0.0,0.0,0.0,0.0,0.0,0.0,0.0,0.0,0.0,0.0,0.0,0.0,0.0,0.0,0.0,0.0,0.0,0.0,0.0,0.0,0.0,0.0,0.0,0.0,0.0,0.0,0.0,0.0,0.0,0.0,0.0,0.0,0.0,0.0,0.0,0.0,0.0,0.0,0.0,0.0,0.0,0.0,0.0,0.0,0.0,0.0,0.0,0.0,0.0,0.0,0.0,0.0,0.0,0.0,0.0,0.0,0.0,0.0,0.0,0.0,0.0,0.0,0.0,0.0,0.0,0.0,0.0,0.0,0.0,0.0,0.0,0.0,0.0,0.0,0.0,0.0,0.0,0.0,0.0,0.0,0.0,0.0,0.0,0.0,0.0,0.0,0.0,0.0,0.0,0.0,0.0,0.0,0.0,0.0,0.0,0.0,0.0,0.0,0.0,0.0,0.0,0.0,0.0,0.0,0.0,0.0,0.0,0.0,0.0,0.0,0.0,0.0,0.0,0.0,0.0,0.0,0.0,0.0,0.0,0.0,0.0,0.0,0.0,0.0,0.0,0.0,0.0,0.0,0.0,0.0,0.0,0.0,0.0,0.0,0.0,0.0,0.0,0.0,0.0,0.0,0.0,0.0,0.0,0.0,0.0,0.0,0.0,0.0,0.0,0.0,0.0,0.0,0.0,0.0,0.0,0.0,0.0,0.0,0.0,0.0,0.0,0.0,0.0,0.0,0.0,0.0,0.0,0.0,0.0,0.0,0.0,0.0,0.0,0.0,0.0,0.0,0.0,0.0,0.0,0.0,0.0,0.0,0.0,0.0,0.0,0.0,0.0,0.0,0.0,0.0,0.0,0.0,0.0,0.0,0.0,0.0,0.0,0.0,0.0,0.0,0.0,0.0,0.0,0.0,0.0,0.0,0.0,0.0,0.0,0.0,0.0,0.0,0.0,0.0,0.0,0.0,0.0,0.0,0.0,0.0,0.0,0.0,0.0,0.0,0.0,0.0,0.0,0.0,0.0,0.0,0.0,0.0,0.0,0.0,0.0,0.0,0.0,0.0,0.0,0.0,0.0,0.0,0.0,0.0,0.0,0.0,0.0,0.0,0.0,0.0,0.0,0.0,0.0,0.0,0.0,0.0,0.0,0.0,0.0,0.0,0.0,0.0,0.0,0.0,0.0,0.0,0.0,0.0,0.0,0.0,0.0,0.0,0.0,0.0,0.0,0.0,0.0,0.0,0.0,0.0,0.0,0.0,0.0,0.0,0.0,0.0,0.0,0.0,0.0,0.0,0.0,0.0,0.0,0.0,0.0,0.0,0.0,0.0,0.0,0.0,0.0,0.0,0.0,0.0,0.0,0.0,0.0,0.0,0.0,0.0,0.0,0.0,0.0,0.0,0.0,0.0,0.0,0.0,0.0,0.0,0.0,0.0,0.0,0.0,0.0,0.0,0.0,0.0,0.0,0.0,0.0,0.0,0.0,0.0,0.0,0.0,0.0,0.0,0.0,0.0,0.0,0.0,0.0,0.0,0.0,0.0,0.0,0.0,0.0,0.0,0.0,0.0,0.0,0.0,0.0,0.0,0.0,0.0,0.0,0.0,0.0,0.0,0.0,0.0,0.0,0.0,0.0,0.0,0.0,0.0,0.0,0.0,0.0,0.0,0.0,0.0,0.0,0.0,0.0,0.0,0.0,0.0,0.0,0.0,0.0,0.0,0.0,0.0,0.0,0.0,0.0,0.0,0.0,0.0,0.0,0.0,0.0,0.0,0.0,0.0,0.0,0.0,0.0,0.0,0.0,0.0,0.0,0.0,0.0,0.0,0.0,0.0,0.0,0.0,0.0,0.0,0.0,0.0,0.0,0.0,0.0,0.0,0.0,0.0,0.0,0.0,0.0,0.0,0.0,0.0,0.0,0.0,0.0,0.0,0.0,0.0,0.0,0.0,0.0,0.0,0.0,0.0,0.0,0.0,0.0,0.0,0.0,0.0,0.0,0.0,0.0,0.0,0.0,0.0,0.0,0.0,0.0,6.0244,6.098,0.0,0.0,0.0,0.0,0.0,0.0,0.0,0.0,0.0,0.0,0.0,0.0,0.0,0.0,0.0,0.0,0.0,0.0,0.0,0.0,0.0,0.0,0.0,0.9363,0.9566,0.8818,0.9392,0.9345,0.8488,0.0,0.0,0.0,0.0,0.0,0.8147,0.9359,1.0228,1.0502,1.2312,1.3193,1.349,1.4251,1.4565,1.466,0.0,0.0,0.0,0.0,0.0,0.0,0.0,0.0,0.0,0.0,0.0,0.0,0.0,0.0,0.0,0.0,0.0,0.0,0.0,0.0,0.0,0.0,0.0,0.0,0.0,0.0,0.0,0.0,0.0,0.0,0.0,0.0,0.0,0.0,0.0,0.0,0.0,0.0,0.0,0.0,0.0,0.0,0.0,0.0,0.0,0.0,0.0,0.0,0.0,0.0,0.0,0.0,0.0,0.0,0.0,0.0,0.0,0.0,0.0,0.0,0.0,0.0,0.0,0.0,0.0,0.0,0.0,0.0,0.0,0.0,6.0721,6.0925,0.0,0.0,0.0,0.0,0.0,0.0,0.0,0.0,0.0,0.0,0.0,0.0,0.0,0.0,0.0,0.0,0.0,0.0,0.0,0.0,0.0,0.8673,0.9012,1.0031,1.0241,0.9037,0.9892,0.9838,0.821,0.828,0.8248,0.8119,0.8065,0.822,0.8706,1.0029,1.0988,1.1362,1.3204,1.5108,1.7155,1.5421,1.3946,1.2777,1.512,0.0,0.0,0.0,0.0,0.0,0.0,0.0,0.0,0.0,0.0,0.0,0.0,0.0,0.0,0.0,0.0,0.0,0.0,0.0,0.0,0.0,0.0,0.0,0.0,0.0,0.0,0.0,0.0,0.0,0.0,0.0,0.0,0.0,0.0,0.0,0.0,0.0,0.0,0.0,0.0,0.0,0.0,0.0,0.0,0.0,0.0,0.0,0.0,0.0,0.0,0.0,0.0,0.0,0.0,0.0,0.0,0.0,0.0,0.0,0.0,0.0,0.0,0.0,5.9658,6.0165,6.0159,6.164,6.1807,6.0906,6.1143,6.0783,6.0079,6.0324,0.0,0.0,0.0,0.0,0.0,0.0,0.0,0.0,0.0,0.0,0.0,0.0,0.0,0.0,0.0,0.0,0.0,0.0,0.0,0.9219,1.0502,0.9813,0.914,0.8886,0.9113,0.8504,0.684,0.7787,0.8445,0.8425,0.818,0.8765,1.0397,1.2683,1.3987,1.423,1.456,1.6143,1.887,1.5155,1.3806,1.4733,1.4838,1.4274,1.3416,0.0,0.0,0.0,0.0,0.0,0.0,0.0,0.0,0.0,0.0,0.0,0.0,0.0,0.0,0.0,0.0,0.0,0.0,0.0,0.0,0.0,0.0,0.0,0.0,0.0,0.0,0.0,0.0,0.0,0.0,0.0,0.0,0.0,0.0,0.0,0.0,0.0,0.0,0.0,0.0,0.0,4.9531,4.8311,0.0,0.0,0.0,0.0,0.0,0.0,0.0,0.0,0.0,0.0,0.0,0.0,0.0,5.4235,5.6377,5.5173,5.6139,5.9175,5.9154,5.9462,6.01,6.1172,6.1194,6.0427,6.084,0.0,6.1085,6.0971,0.0,0.0,0.0,0.0,0.0,0.0,0.0,0.0,0.0,0.0,0.0,0.0,0.0,0.0,0.0,0.0,0.0,0.0,0.0,0.0,0.0,1.1702,1.0992,1.021,0.9332,0.8182,0.6645,0.7022,0.7387,0.7317,0.8749,1.0314,1.1898,1.4178,1.6206,1.7732,1.8394,1.9245,2.0257,1.7803,1.6972,1.7374,1.6403,1.4855,1.3091,1.5095,0.0,0.0,0.0,0.0,0.0,0.0,0.0,0.0,0.0,0.0,0.0,0.0,0.0,0.0,0.0,0.0,0.0,0.0,0.0,0.0,0.0,0.0,0.0,0.0,0.0,0.0,0.0,0.0,0.0,0.0,0.0,0.0,0.0,0.0,0.0,0.0,0.0,0.0,0.0,4.8075,4.7525,4.4887,4.6162,4.6836,0.0,0.0,0.0,0.0,0.0,0.0,0.0,0.0,0.0,5.3379,5.4932,5.6046,5.6808,5.7074,5.7882,5.9311,5.9956,6.0411,6.0675,6.197,6.1747,6.0479,6.0769,6.0621,6.0273,6.08,6.1159,6.1295,0.0,0.0,0.0,0.0,5.6759,5.6805,0.0,0.0,0.0,0.0,0.0,0.0,0.0,0.0,0.0,0.0,0.0,0.0,1.3783,1.3207,1.2346,1.1202,0.9801,0.8109,0.6141,0.633,0.6609,0.6973,0.9302,1.1737,1.4074,1.6021,1.8334,2.1162,2.1395,2.1862,2.249,2.1445,2.0945,2.0818,1.9299,1.6698,1.3642,1.5871,1.6968,1.7556,0.0,0.0,0.0,0.0,0.0,0.0,0.0,0.0,0.0,0.0,0.0,0.0,0.0,0.0,0.0,0.0,0.0,0.0,0.0,0.0,0.0,0.0,0.0,0.0,0.0,0.0,0.0,0.0,0.0,0.0,0.0,0.0,0.0,0.0,0.0,0.0,0.0,4.6473,4.5686,4.3189,4.4819,4.5862,0.0,0.0,0.0,0.0,0.0,0.0,5.1028,5.2977,5.4566,5.5651,5.7682,5.878,5.8642,5.9905,6.069,6.0808,6.1615,6.1882,6.1589,6.2598,6.2211,6.0724,6.0954,6.0537,5.9793,6.0526,6.0969,6.103,5.9775,5.925,5.8894,5.6586,5.638,5.697,0.0,0.0,0.0,0.0,0.0,0.0,0.0,0.0,0.0,0.0,0.0,1.3793,1.5198,1.2998,1.1262,1.1042,0.9913,0.7826,0.4804,0.5823,0.7219,0.8736,0.9774,1.2535,1.7226,1.8425,2.0692,2.405,2.2144,2.2892,2.6109,2.5469,2.5199,2.5064,2.3542,1.987,1.4755,1.6004,1.7288,1.8701,2.1648,0.0,0.0,0.0,0.0,0.0,0.0,0.0,0.0,0.0,0.0,0.0,0.0,0.0,0.0,0.0,0.0,0.0,0.0,0.0,0.0,0.0,0.0,0.0,0.0,0.0,0.0,0.0,0.0,0.0,0.0,0.0,0.0,0.0,0.0,0.0,0.0,0.0,0.0,4.652,4.6904,0.0,0.0,0.0,0.0,5.0249,5.2454,5.3105,5.1336,5.4577,5.7227,5.892,6.0642,6.2175,6.3639,6.3733,6.4182,6.4992,6.431,6.3503,6.2708,6.248,6.1885,6.111,6.1582,6.1359,6.0714,6.0437,6.0261,6.0149,5.989,5.9375,5.8708,5.7797,5.7225,5.6912,0.0,0.0,0.0,0.0,0.0,0.6056,0.7973,1.1897,1.4957,1.5469,1.6573,1.7582,1.8328,1.5791,1.4049,1.4092,1.0974,0.8497,0.7448,0.7737,0.8689,1.0109,1.3288,1.6472,1.9643,2.211,2.3386,2.3502,2.3895,2.4749,2.5957,2.6592,2.6853,2.6853,2.7066,2.563,2.2793,2.1196,2.0361,2.0459,2.367,2.6907,0.0,0.0,0.0,0.0,0.0,0.0,0.0,0.0,0.0,0.0,0.0,0.0,0.0,0.0,0.0,0.0,0.0,0.0,0.0,0.0,0.0,0.0,0.0,0.0,0.0,0.0,0.0,0.0,0.0,0.0,0.0,0.0,0.0,0.0,0.0,0.0,0.0,5.0782,5.2244,0.0,5.3401,5.5352,5.6328,5.5634,5.7152,5.7729,5.6918,5.9804,6.2169,6.376,6.5452,6.6604,6.712,6.6609,6.6439,6.6579,6.5396,6.4794,6.4599,6.4084,6.3221,6.1954,6.2126,6.1562,6.0468,5.97,5.9264,5.9089,5.7891,5.6869,5.6018,5.5474,5.4652,5.387,0.0,0.0,0.0,0.1428,0.4714,0.7589,0.9776,1.4283,1.7541,1.7924,1.925,1.9994,1.9926,1.7609,1.6138,1.5896,1.211,0.9478,0.8982,0.9283,1.0425,1.2153,1.7378,2.0788,2.2079,2.4024,2.4609,2.3683,2.4963,2.5956,2.66,2.8113,2.8773,2.8866,3.0461,3.0725,2.9759,2.801,2.5564,2.322,2.5503,2.7811,3.0037,0.0,0.0,0.0,0.0,0.0,0.0,0.0,0.0,0.0,0.0,0.0,0.0,0.0,0.0,0.0,0.0,0.0,0.0,0.0,0.0,0.0,0.0,0.0,0.0,0.0,0.0,0.0,0.0,0.0,0.0,0.0,0.0,0.0,0.0,5.1234,5.2624,5.454,5.6608,5.8093,5.8469,5.9529,6.0449,6.1048,6.175,6.242,6.3148,6.4712,6.6316,6.7926,6.9282,6.9794,6.9302,6.9466,6.9075,6.8101,6.7131,6.6598,6.6407,6.5608,6.4488,6.3221,6.3082,6.1993,6.0368,5.935,5.8396,5.746,5.6694,5.6158,5.5723,5.5504,5.4688,5.3709,0.0,-0.4787,-0.1615,0.1529,0.5589,0.9623,1.3435,1.6616,1.8911,1.9903,2.0669,2.0664,1.9598,1.8485,1.7257,1.6126,1.3246,1.0826,0.9318,1.0425,1.2365,1.5172,2.1858,2.5156,2.4427,2.4081,2.4263,2.5027,2.5465,2.6557,2.8326,3.0262,3.1223,3.1311,3.3623,3.4759,3.4841,3.5814,3.2675,2.711,2.7098,2.8411,3.0577,0.0,0.0,0.0,0.0,0.0,0.0,0.0,0.0,0.0,0.0,0.0,0.0,0.0,0.0,0.0,0.0,0.0,0.0,0.0,0.0,0.0,0.0,0.0,0.0,0.0,0.0,0.0,0.0,0.0,0.0,0.0,0.0,0.0,5.1601,5.3057,5.5198,5.772,5.9841,6.1549,6.2652,6.3441,6.4547,6.6179,6.6093,6.703,6.9461,6.905,6.9451,7.1093,7.1876,7.165,7.0331,7.2173,7.204,6.9863,6.9595,6.9015,6.8107,6.678,6.5687,6.4897,6.4353,6.2777,6.0375,5.9656,5.777,5.5383,5.6455,5.7237,5.7793,5.7791,5.7304,5.633,-1.0599,-0.8105,-0.3987,0.2133,0.5898,0.9792,1.4998,1.8275,2.0537,2.169,2.2532,2.2863,2.2466,2.0395,1.8998,1.8921,1.6042,1.4493,1.5117,1.626,1.9108,2.3777,2.5909,2.6873,2.6532,2.7421,2.7484,2.6714,2.7767,2.8609,2.9135,3.0554,3.1223,3.1311,3.3623,3.5385,3.6493,3.6916,3.6844,3.5931,3.2198,3.1284,3.2262,0.0,0.0,0.0,0.0,0.0,0.0,0.0,0.0,0.0,0.0,0.0,0.0,0.0,0.0,0.0,0.0,0.0,0.0,0.0,0.0,0.0,0.0,0.0,0.0,0.0,0.0,0.0,0.0,0.0,0.0,0.0,5.7815,5.8571,5.6673,5.7072,5.8825,6.2438,6.4745,6.6663,6.8304,6.9554,7.0971,7.2618,7.2206,7.2467,7.3767,7.3708,7.3868,7.4305,7.466,7.4898,7.4976,7.4496,7.4026,7.3609,7.2054,7.072,6.9503,6.8258,6.6616,6.4783,6.526,6.4177,6.196,6.0689,5.9236,5.7464,5.5094,5.2739,5.0756,5.1045,4.9909,4.8225,-1.3973,-1.016,-0.5254,0.095,0.543,0.9908,1.5281,1.8732,2.1234,2.2612,2.3634,2.4036,2.3233,2.156,2.0369,2.0091,1.7264,1.6225,1.8123,2.098,2.4218,2.8064,2.88,2.9254,2.9569,3.0217,3.056,3.0651,3.1248,3.1836,3.2325,3.3044,3.3683,3.4264,3.647,3.7969,3.89,4.016,4.1009,4.1264,3.8529,3.6493,3.5117,3.6192,3.9415,4.3502,4.5207,4.7594,4.9887,4.9676,0.0,0.0,0.0,0.0,0.0,0.0,0.0,0.0,0.0,0.0,0.0,0.0,0.0,0.0,0.0,0.0,0.0,0.0,0.0,0.0,0.0,0.0,0.0,0.0,6.276,6.4101,6.3345,6.293,6.3579,6.5841,6.8783,7.0893,7.1612,7.3041,7.4527,7.5881,7.5779,7.598,7.6829,7.6609,7.6493,7.6493,7.6639,7.6466,7.5897,7.5641,7.5004,7.3817,7.2925,7.1522,6.9697,6.8775,6.6965,6.4658,6.4967,6.3992,6.2053,6.0896,5.9525,5.7823,0.0,0.0,0.0,0.0,4.6851,4.4723,-1.6551,-1.1202,-0.5469,-0.0737,0.4683,1.0045,1.5132,1.8594,2.1268,2.3124,2.4428,2.4584,2.3057,2.2025,2.0979,2.0046,1.7279,1.6873,2.0039,2.4603,2.8061,2.992,3.0932,3.2026,3.3277,3.2772,3.3618,3.5737,3.5226,3.5574,3.6583,3.6802,3.7338,3.8419,4.0448,4.1503,4.187,4.4399,4.509,4.4552,4.505,4.2655,3.8737,3.9279,4.1127,4.3781,4.5965,4.8342,5.0545,5.1193,0.0,0.0,0.0,0.0,0.0,0.0,0.0,0.0,0.0,0.0,0.0,0.0,0.0,0.0,0.0,0.0,0.0,0.0,0.0,0.0,0.0,0.0,0.0,0.0,6.7829,6.9246,7.033,6.9745,6.909,6.8621,7.2043,7.4194,7.3543,7.4948,7.6314,7.7284,7.7719,7.8258,7.9072,7.8391,0.0,0.0,0.0,7.7099,7.5146,7.6064,7.5191,7.2447,7.2725,7.1545,6.9199,6.8636,6.7045,6.4602,6.4067,6.2956,6.1466,6.0601,5.8942,5.6751,5.4442,5.2454,5.0699,4.8454,4.6195,4.418,-1.6912,-1.1074,-0.5002,0.1753,0.5722,1.0237,1.6728,1.9447,2.1731,2.4561,2.5325,2.5061,2.364,2.1202,1.9576,1.904,1.7645,1.9451,2.5408,2.7814,3.0345,3.3513,3.2953,3.4037,3.741,3.6607,3.6989,3.8795,3.7952,3.759,3.7841,3.8605,3.9139,3.9456,4.1455,4.3384,4.5244,4.635,4.7753,4.923,4.9109,4.6309,4.2161,4.2568,4.4269,4.6364,4.7099,4.8811,5.0838,5.1269,5.1367,5.1252,5.118,5.1074,0.0,0.0,0.0,0.0,0.0,0.0,0.0,0.0,0.0,0.0,0.0,0.0,0.0,0.0,0.0,0.0,0.0,0.0,0.0,6.9688,7.2112,7.376,7.3971,7.5292,7.5218,7.2384,7.4008,7.5623,7.6323,7.7341,7.8552,8.0075,7.9996,8.0215,8.1087,8.02,7.9629,7.9629,7.8709,7.8278,7.8295,7.6638,7.5421,7.4621,7.2857,0.0,6.9249,6.8601,6.7029,6.4742,6.4319,6.3481,6.2122,6.0506,5.7663,5.4017,5.0564,4.8135,4.6214,4.3621,4.3061,4.3614,-1.6426,-1.1349,-0.5941,0.0615,0.4786,0.9107,1.5096,1.7548,1.9989,2.33,2.4126,2.4143,2.3355,2.1514,2.0273,2.0221,2.1913,2.4753,2.8856,3.1399,3.3604,3.5332,3.5251,3.6267,3.864,3.9466,4.0194,4.1037,4.0749,4.0924,4.1538,4.1342,4.2016,4.3479,4.4937,4.6566,4.8277,4.9508,5.0814,5.2022,5.2233,5.0785,4.8377,4.7484,4.7928,4.9144,4.9658,5.0713,5.1944,5.2677,5.2817,5.2621,5.2589,5.2486,5.2436,0.0,0.0,0.0,0.0,0.0,0.0,0.0,0.0,0.0,0.0,0.0,0.0,0.0,0.0,5.6875,6.1803,0.0,7.0315,7.2716,7.5337,7.6902,7.6457,7.7882,7.779,7.4669,7.6297,7.7638,7.7634,7.8848,7.9942,8.0801,8.0896,8.1,8.1233,8.053,7.9969,7.9642,7.8754,7.8011,7.7378,7.5836,7.4597,7.3614,7.2023,7.057,6.9283,6.8172,6.6813,6.5206,6.4316,6.3597,6.2871,6.0782,5.8197,5.5183,5.2269,4.8786,4.5128,4.3337,4.3075,4.3462,-1.6674,-1.2344,-0.7521,-0.1224,0.3456,0.7865,1.2331,1.496,1.744,2.0634,2.1717,2.2056,2.1926,2.0835,2.0468,2.1461,2.6207,2.9792,3.1563,3.4955,3.7106,3.7402,3.8127,3.9047,4.0323,4.214,4.3077,4.3107,4.327,4.3883,4.4998,4.4373,4.5466,4.7967,4.8965,5.0035,5.1129,5.2474,5.3311,5.3781,5.4371,5.4355,5.3721,5.1767,5.1131,5.1343,5.1741,5.2144,5.2657,5.3863,5.3987,5.3708,5.4254,5.428,5.4086,5.4373,5.4814,0.0,0.0,0.0,0.0,0.0,0.0,0.0,0.0,4.7866,4.7475,5.2735,5.5776,5.895,6.402,6.8556,7.2385,7.4937,7.761,7.9057,7.8184,7.9257,7.9191,7.6825,7.8371,7.9363,7.8675,7.9821,8.0661,8.0708,8.1039,8.1014,8.0577,8.0042,7.9513,7.9058,7.8432,7.7402,7.5946,7.4863,7.3582,7.2148,7.1,7.0078,6.9325,6.8049,6.6885,6.5797,6.4472,6.3863,6.368,6.1792,5.9763,5.7609,5.5555,5.1145,4.5829,4.5034,4.4306,4.3833,-1.9396,-1.4851,-0.9359,-0.1403,0.3299,0.6964,0.985,1.2802,1.5403,1.7507,1.777,1.7879,1.8056,1.6657,1.7245,2.0802,2.6372,3.1146,3.4507,3.7662,4.0197,4.1792,4.1965,4.3183,4.5668,4.5198,4.5202,4.5762,4.5017,4.5015,4.5832,4.72,4.8796,5.0638,5.1882,5.2857,5.3616,5.3792,5.4269,5.4922,5.4988,5.479,5.4284,5.3038,5.2353,5.1922,5.1393,5.1241,5.1535,5.3003,5.3236,5.3237,5.5105,5.5343,5.5034,5.5553,5.5687,5.5663,5.5829,5.5046,5.4002,5.3353,5.3051,5.2688,0.0,5.2063,5.2875,5.5008,5.7251,6.0272,6.4827,6.9672,7.372,7.5916,7.8484,7.9981,7.9143,8.0436,8.1077,7.9998,7.9588,7.9697,8.0353,8.044,8.0543,8.0743,8.064,8.0267,7.9664,7.8925,7.8484,7.8379,7.7768,7.7292,7.7121,7.4578,7.3254,7.3,7.0498,6.9288,6.9117,6.8947,6.8048,6.6625,6.5746,6.5131,6.4831,6.4375,6.2238,5.9082,5.733,5.3271,4.8224,4.6855,4.5759,4.497,-2.0268,-1.6048,-1.1753,-0.7576,-0.168,0.3384,0.6023,0.8146,1.0449,1.2896,1.3182,1.3601,1.4801,1.5708,1.7823,2.1665,2.6975,3.2042,3.6826,4.0033,4.2237,4.3363,4.4364,4.4982,4.5179,4.6651,4.7011,4.6244,4.722,4.7838,4.82,4.9393,5.0822,5.2439,5.3453,5.4155,5.4605,5.4897,5.4881,5.476,5.5026,5.4701,5.3975,5.3108,5.1936,5.0722,5.1028,5.1086,0.0,5.2035,5.2548,5.3006,5.4403,5.4989,5.5228,5.5894,5.6327,5.6585,5.6756,5.6397,5.594,5.5472,5.5805,5.6141,5.5993,5.6147,5.7109,5.9806,6.1448,6.3722,6.7966,7.1523,7.4571,7.6814,7.8978,8.0414,8.0459,8.1193,8.1563,8.1213,8.0896,8.0857,8.1087,8.1158,8.098,8.0613,8.035,7.9858,7.9031,7.8979,7.8573,7.771,7.7965,7.7531,7.6432,7.4726,7.3546,7.2923,7.0738,6.9958,7.0364,7.0072,6.9679,6.9162,6.8615,6.7502,6.6022,6.5093,6.3249,6.0723,5.7883,5.3593,4.8706,4.638,4.5262,4.4914,-2.1125,-1.7684,-1.491,-1.3578,-0.8021,-0.2466,0.1186,0.3273,0.5277,0.7793,0.7759,0.8505,1.1019,1.3868,1.7584,2.2102,2.7729,3.3198,3.8572,4.2294,4.4783,4.5925,4.7352,4.7547,4.6518,4.8944,4.9362,4.7593,4.9493,5.0526,5.0793,5.156,5.2788,5.4385,5.5088,5.5478,5.5658,5.5908,5.5442,5.4547,5.4705,5.3896,5.2426,5.1338,4.9811,4.8425,4.9901,5.029,5.0224,5.0807,5.142,5.2193,5.329,5.4177,5.4916,5.5477,5.6406,5.7278,5.738,5.7773,5.8197,5.824,5.8769,5.9526,6.0506,6.0719,6.1521,6.4124,6.5437,6.7038,7.0142,7.2768,7.5088,7.7036,7.9054,8.0491,8.0983,8.1381,8.1636,8.1636,8.1734,8.1664,8.1414,8.1524,8.1359,8.0696,8.0163,7.9443,7.8586,7.8735,7.8417,7.7341,7.7928,7.7578,7.6264,7.5227,7.4234,7.3171,7.1644,7.1231,7.1708,7.1628,7.1756,7.206,7.1242,7.0049,6.8583,6.6716,6.4819,6.2648,5.8626,5.3239,4.7263,4.3588,4.2559,4.2982,-2.2538,-2.0503,-1.8803,-1.7505,-1.5032,-1.1067,-0.4736,-0.1489,0.0697,0.2099,0.113,0.1894,0.6197,1.0121,1.5083,2.1582,2.8575,3.4685,3.9668,4.4767,4.8607,5.0805,5.167,5.2122,5.2146,5.293,5.252,5.0875,5.1675,5.2379,5.3107,5.3852,5.5134,5.6804,5.7162,5.733,5.7295,5.7,5.5988,5.4577,5.4179,5.219,4.9224,4.7106,4.5601,4.5012,4.7713,4.8327,4.7962,4.8998,4.9673,5.0365,5.1933,5.318,5.4058,5.4142,5.5699,5.7383,5.7383,5.8739,6.0399,6.1634,6.2334,6.3257,6.5343,6.6153,6.6642,6.7034,6.827,6.9507,7.0365,7.2644,7.4843,7.6245,7.8504,8.0125,8.0125,8.0868,8.143,8.143,8.1739,8.1844,8.1436,8.1407,8.1396,8.1385,8.0011,7.8962,7.8325,7.7747,7.7341,7.7304,7.7341,7.7279,7.7243,7.6264,7.5299,7.4234,7.3217,7.2714,7.2762,7.3583,7.4409,7.4979,7.3108,7.27,7.3091,7.0271,6.7643,6.4911,6.0057,5.2298,4.3254,3.7882,3.6905,3.8394,-2.2974,-2.1642,-2.0515,-2.0065,-1.7934,-1.5445,-1.332,-0.926,-0.6018,-0.5027,-0.3745,0.0,0.0,0.0,0.0,0.0,2.4345,3.1022,3.7788,4.3251,4.7222,4.9442,5.0803,5.1759,5.2318,5.3333,5.3882,5.3831,5.4927,5.5555,5.5808,5.6593,5.7098,5.7386,5.8011,5.7802,5.6977,5.6631,5.531,5.3315,5.1387,4.9377,4.7207,4.393,4.1546,4.0227,0.0,4.3797,4.5479,4.5406,4.657,4.8118,4.8085,4.9697,5.2022,5.4518,5.6747,5.8538,5.9218,6.1131,6.3113,6.3982,6.557,6.7368,6.928,7.0182,7.0866,7.1733,7.097,7.0213,7.0485,7.1712,7.3091,7.4585,7.7453,7.9851,8.082,8.1221,8.1407,8.1407,8.1504,8.1553,8.1426,8.1656,8.1465,8.0583,8.02,7.9502,7.8379,7.8611,7.8322,7.7341,7.7855,7.7892,7.7341,7.633,7.5649,7.5299,7.3615,7.3171,7.385,7.4511,7.5189,7.5737,7.4274,7.2926,7.1522,6.9005,6.6445,6.361,5.7749,5.0005,4.1246,3.4518,3.0917,2.9917,0.0,-2.292,-2.2246,-2.331,-2.1621,0.0,0.0,0.0,0.0,0.0,0.0,0.0,0.0,0.0,0.0,0.0,0.0,2.6995,3.3915,3.9881,4.4553,4.7688,4.9387,5.0901,5.2192,5.3396,5.4282,5.4857,5.608,5.6965,5.7641,5.7641,5.7786,5.8058,5.8016,5.782,5.7463,5.6757,5.5268,5.3086,4.9951,4.7053,4.4113,3.99,3.7007,0.0,3.4692,3.6893,4.0089,4.146,4.2375,4.2062,3.7247,3.8488,4.2264,4.5217,5.2601,6.0037,6.1004,6.3436,6.5858,6.6517,6.8047,6.9833,7.1647,7.2339,7.27,7.2987,7.1331,6.9723,6.9477,6.9843,7.0874,7.2803,7.5533,7.8122,8.0159,8.0528,8.0824,8.1406,8.132,8.1142,8.1032,8.1127,8.0942,8.0271,8.0087,7.9461,7.8379,7.8555,7.8285,7.7341,7.7855,7.7978,7.7651,7.6783,7.5751,7.4579,7.2638,7.1626,7.1404,7.2871,7.3483,7.3312,7.3628,7.2228,6.9608,6.7701,6.5111,6.1884,5.6192,4.8166,3.8957,3.2686,2.78,2.4788,0.0,0.0,-2.4028,0.0,0.0,0.0,0.0,0.0,0.0,0.0,0.0,0.0,0.0,0.0,0.0,0.0,0.0,0.0,2.8151,3.4747,4.0518,4.5251,4.7251,4.9279,5.1551,5.2831,5.3683,5.3944,5.5139,5.6664,5.8504,5.7089,5.7276,5.8751,5.7427,5.7476,5.8446,5.7228,5.5567,5.354,4.9538,4.4853,3.9845,3.5083,3.1893,2.9598,2.7103,2.851,3.2218,3.7164,3.6649,3.2098,2.1087,2.1584,2.6683,2.919,4.4989,6.1822,6.2803,6.5654,6.8475,6.9093,6.9762,7.0649,7.225,7.2396,7.1819,7.0528,6.9009,6.765,6.679,6.6948,6.8108,7.0836,7.3008,7.5386,7.8456,7.9039,7.9765,8.1454,8.1053,8.0524,8.0229,7.9851,7.9779,8.017,7.9567,7.8962,7.8416,7.771,7.7304,7.7304,7.7304,7.7629,7.8255,7.7651,7.5711,7.2359,7.0396,6.8069,6.5655,6.8547,6.891,6.7487,7.0581,7.0253,6.7396,6.6116,6.3621,6.0047,5.5345,4.6855,3.6838,3.2669,2.7818,2.3551,0.0,0.0,0.0,0.0,0.0,0.0,0.0,0.0,0.0,0.0,0.0,0.0,0.0,0.0,0.0,0.0,0.0,0.0,2.1097,2.645,3.1663,3.677,3.9628,4.2664,4.6028,4.8416,5.0365,5.1971,5.3581,5.5427,5.7396,5.7043,5.7063,5.7427,5.738,5.7004,5.6344,5.5239,5.275,4.9114,4.4281,3.9312,3.4336,3.0053,2.716,2.5591,2.5829,2.674,2.8328,3.0674,2.5562,1.8447,1.9506,2.2679,2.9132,4.4772,5.5957,6.3826,6.6198,6.8398,7.0076,7.0147,7.0382,7.0286,6.9131,6.7653,6.5836,6.3753,6.0635,5.857,5.9348,6.1163,6.3819,6.7837,7.2656,7.6848,7.9605,8.0057,8.0227,8.069,7.94,7.8285,7.7782,7.734,7.677,7.5954,7.8078,7.9296,7.901,7.8379,7.7826,7.7304,7.7304,7.7365,7.757,7.7846,7.6627,7.3709,6.837,6.2963,5.7872,5.8022,5.681,5.4819,5.9355,6.1676,6.2063,6.012,5.9234,5.8671,5.3138,4.6946,4.0606,3.5799,3.271,3.1404,0.0,0.0,0.0,0.0,0.0,0.0,0.0,0.0,0.0,0.0,0.0,0.0,0.0,0.0,0.0,0.0,0.0,0.0,0.0,1.5248,1.9802,2.4746,2.7047,2.9849,3.3502,3.6486,3.9075,4.1306,4.488,4.7941,5.0534,5.1074,5.1674,5.2322,5.2199,5.1634,5.0629,4.9953,4.7354,0.0,0.0,3.3107,2.8083,2.3423,2.0332,1.8697,2.0988,2.4093,2.6695,2.4156,1.8938,1.364,1.4453,2.0735,3.0242,4.2966,5.5457,6.5597,6.798,6.9869,7.1065,7.0676,6.9652,6.8158,6.5881,6.3036,5.9857,5.6278,5.3346,5.1262,5.0865,5.3511,5.7358,6.246,6.7596,7.2528,7.6948,7.7564,7.783,7.8593,7.7424,7.624,7.5297,7.5339,7.4723,7.3069,7.5837,7.7436,7.7113,7.6741,7.6076,7.5118,7.4795,7.4812,7.516,7.7222,7.6593,7.3075,5.7766,4.809,4.3255,3.2975,3.1634,3.7628,4.348,5.0046,5.6555,5.5857,5.4369,5.226,4.9587,4.4753,3.9176,3.8294,3.6226,3.4449,0.0,0.0,0.0,0.0,0.0,0.0,0.0,0.0,0.0,0.0,-2.2135,-1.9568,-1.7469,-1.4802,0.0,0.0,0.0,0.0,0.0,0.0,0.6803,1.1338,1.2555,1.484,1.8312,2.1459,2.4296,2.681,3.2101,3.6465,3.9851,4.0883,4.23,4.3887,4.3234,4.2611,4.2008,4.173,3.9476,3.5647,3.0882,2.5808,2.0587,0.0,1.2208,1.0632,1.5066,2.1329,2.6492,2.0847,1.7269,1.4556,1.0797,1.9244,3.1523,3.6267,5.1386,6.7023,6.8873,7.0403,7.1193,7.033,6.7737,6.4613,6.1533,5.746,5.2845,4.7812,4.5495,4.3817,4.1813,4.4631,4.9194,5.516,5.9857,6.5152,7.1867,7.3035,7.3828,7.5587,7.4892,7.3901,7.2683,7.3046,7.2533,7.0412,7.2458,7.3822,7.3835,7.3751,7.3107,7.1636,7.0912,7.1007,7.1986,7.5839,7.591,7.1826,4.5012,2.8335,2.061,0.2078,0.2245,1.7851,2.5479,3.7069,5.073,5.1439,4.9407,4.5833,4.5907,4.2167,3.7036,3.8995,3.7398,3.4825,0.0,0.0,0.0,0.0,0.0,0.0,0.0,0.0,0.0,0.0,-2.4887,-2.2647,0.0,0.0,0.0,0.0,0.0,0.0,0.0,0.0,0.0,0.0431,0.2511,0.5311,0.8867,1.1363,1.4213,1.761,1.977,2.313,2.7525,2.7705,2.8795,3.0554,3.0759,3.0447,2.9704,2.942,2.7431,2.4185,2.0328,1.5442,1.0134,0.7122,0.0,0.0,1.3258,2.0424,2.668,3.1744,2.6317,1.7947,2.1223,2.7491,3.6547,5.136,6.0859,6.7166,6.9749,7.0114,6.9342,6.7515,6.3898,5.9073,5.2551,4.6904,4.1586,3.6625,3.3421,3.1793,3.2783,3.5175,3.934,4.6126,5.2732,5.9161,6.5662,6.8233,7.0174,7.1833,7.0754,6.9769,6.9461,6.8822,6.7651,6.5917,6.6192,6.8002,7.1492,7.1179,6.9964,6.7802,6.7191,6.781,6.9713,7.3416,7.4612,7.3064,4.4053,1.2802,-1.9308,-1.8116,-1.195,-0.1455,0.9691,2.5949,4.4483,4.2424,4.5751,5.1466,4.4492,4.3424,4.454,3.352,3.2319,3.5751,0.0,0.0,0.0,0.0,0.0,0.0,0.0,-3.0987,-2.9568,-2.7933,-2.6732,-2.5351,-2.3441,-2.1952,-2.0311,0.0,0.0,0.0,0.0,0.0,0.0,-1.022,-0.9962,-0.8424,-0.5364,-0.3635,-0.0859,0.299,0.0,1.0055,1.3723,1.492,1.6004,1.6885,1.7274,1.661,1.5458,1.6689,1.5258,1.1942,0.9678,0.6083,0.1595,-0.2063,0.0,0.0,0.8236,1.6121,2.3739,3.0918,3.0507,2.8136,3.4482,3.938,4.4606,5.4018,5.9732,6.327,6.4437,6.5653,6.5727,6.2208,5.7834,5.2389,4.4938,3.844,3.251,2.7318,2.5078,2.4098,2.4089,2.7168,3.1736,3.7887,4.4089,5.0706,5.8307,6.1289,6.393,6.7323,6.7066,6.6274,6.5544,6.5702,6.4521,6.1439,6.2678,6.4827,6.7552,6.6482,6.4019,6.0298,6.0465,6.0116,5.8906,5.598,5.334,5.0656,1.6065,-1.0923,-3.065,-4.1501,-3.569,-1.6728,-0.9548,0.7985,3.1339,3.0644,3.2096,3.4163,2.841,2.4483,2.1509,1.4993,1.1104,0.9723,0.0,0.0,0.0,0.0,0.0,0.0,-3.2593,-3.0839,-2.9144,-2.8191,-2.8004,-2.7457,-2.6154,-2.5059,-2.407,0.0,0.0,0.0,0.0,0.0,0.0,0.0,0.0,0.0,-1.8361,0.0,0.0,-1.1263,-0.6401,0.0,0.0,0.0,0.0,0.0,0.3776,0.2976,0.1491,0.3868,0.3258,0.0,0.0,-0.3284,-0.6846,0.0,0.0,0.0,0.0,0.9273,1.7728,2.4281,2.8752,3.2696,3.8982,4.4488,4.9069,5.096,5.4151,5.7057,5.7479,5.9046,5.9541,5.5347,5.0198,4.4316,3.7416,3.077,2.4678,1.9999,1.8766,1.807,1.6519,1.9722,2.4131,2.8646,3.4262,4.1084,4.9558,5.2945,5.6336,6.1243,6.2085,6.1774,6.0179,6.1397,6.0793,5.7547,6.0493,6.3079,6.4009,6.1815,5.8465,5.3889,5.2877,4.9616,4.388,3.576,2.7808,1.9884,-1.3628,-3.2744,-3.9245,-6.1016,-5.5792,-2.9367,-2.6693,-0.9631,1.6365,1.6491,1.5823,1.4153,0.9373,0.3417,-0.3036,-0.5663,-1.0919,-1.5533,0.0,0.0,0.0,0.0,0.0,0.0,-3.2735,-3.0839,-2.9485,-2.9427,-2.8523,-2.8187,-2.8965,-2.8586,-2.7826,0.0,0.0,0.0,0.0,0.0,0.0,0.0,0.0,0.0,0.0,0.0,0.0,-2.0337,-1.7373,0.0,0.0,0.0,0.0,0.0,0.0,-0.8935,-1.0273,-0.8642,0.0,0.0,0.0,0.0,0.0,0.0,0.0,0.0,0.0,-0.012,0.7067,1.3567,1.7227,1.9402,2.1597,3.1682,4.305,4.4472,4.6401,4.876,5.1452,5.0829,4.9001,4.7127,4.0844,3.3797,2.9071,2.317,1.8106,1.6194,1.4336,1.261,1.0979,1.2658,1.4723,1.6429,2.3,3.0627,3.8719,4.3284,4.7496,5.2151,5.4202,5.4299,5.2104,5.3562,5.4638,5.4746,5.964,6.2565,6.2348,5.8864,5.5496,5.2855,4.5124,3.6199,2.602,2.0328,0.7654,-1.2019,-2.6942,-4.417,-6.3115,-6.9692,-6.0311,-3.8725,-3.634,-2.0941,0.2191,-0.0737,0.1147,0.4845,-0.459,-0.7522,-0.7959,-2.1053,-2.2998,-1.9035,0.0,0.0,0.0,0.0,0.0,0.0,-3.2213,-3.047,-2.9383,-2.9986,-2.9785,-2.9805,-3.0415,-3.1056,-3.0443,-2.8252,-2.7875,0.0,0.0,0.0,0.0,0.0,0.0,0.0,0.0,0.0,-2.8021,-2.4839,-2.3764,0.0,0.0,0.0,0.0,0.0,0.0,-1.8525,-1.8964,-1.7359,0.0,0.0,0.0,0.0,0.0,0.0,0.0,0.0,0.0,0.0,-0.3754,0.2028,0.5341,0.722,0.8794,1.4322,2.1682,2.924,3.4152,3.7258,3.7998,3.8931,3.8936,3.5886,3.0812,2.5749,2.1781,1.6877,1.2979,1.2192,1.1409,1.0379,0.8769,0.9237,0.9967,1.0575,1.4241,1.97,2.6957,3.1461,3.6403,4.2794,4.4914,4.4735,4.1971,4.0951,4.1808,4.4775,5.0028,5.5631,6.1476,6.0056,5.6953,5.2722,3.5524,2.2971,1.6058,-0.5651,-2.126,-3.079,-4.4006,-5.5372,-6.4717,-6.735,-5.8292,-4.0598,-4.0799,-2.9819,-1.2067,-1.5169,-1.6222,-1.6609,-2.431,-2.9601,-3.3985,-4.215,-4.5137,-4.4248,0.0,0.0,0.0,0.0,0.0,-3.1827,-3.2146,-3.0788,-2.9939,-3.0858,-3.0979,-3.1283,-3.1728,-3.2525,-3.229,-3.0285,-2.9708,0.0,0.0,0.0,0.0,0.0,0.0,0.0,0.0,0.0,-3.1711,-2.8307,-2.75,-2.6041,0.0,0.0,-2.3771,-2.4224,0.0,0.0,0.0,0.0,0.0,0.0,0.0,0.0,0.0,0.0,0.0,0.0,0.0,0.0,0.0,0.0,0.0,-0.3254,-0.1662,0.06,0.4764,1.6034,2.2348,2.5577,2.559,2.7044,2.7765,2.4931,2.1296,1.7686,1.574,1.229,0.9347,0.9155,0.9111,0.8465,0.6381,0.6031,0.5886,0.5481,0.7163,1.0704,1.7078,2.0672,2.5338,3.2098,3.3699,3.2947,2.9296,2.7362,2.8364,3.3413,4.0561,4.9369,5.9986,5.9687,5.6809,5.1736,3.0248,1.4163,0.4598,-2.3541,-4.0036,-4.4936,-5.5345,-5.9147,-5.6957,-6.0018,-5.0808,-3.2835,-3.9308,-3.4018,-2.1276,-2.7771,-3.2368,-3.5838,-4.1435,-4.7355,-5.3101,-5.6459,-5.8673,-5.8615,0.0,0.0,0.0,0.0,0.0,-3.2804,-3.2804,-3.1983,-3.1587,-3.2139,-3.2215,-3.2441,-3.3018,-3.3068,-3.3068,-3.3068,-3.1865,0.0,0.0,0.0,0.0,0.0,0.0,0.0,-3.6452,-3.5186,-3.3538,-3.1493,-2.8778,-2.694,-2.6027,-2.4488,-2.4599,-2.6045,0.0,0.0,0.0,0.0,0.0,0.0,0.0,0.0,0.0,0.0,0.0,0.0,0.0,0.0,0.0,0.0,0.0,0.0,0.0,-0.737,-0.2774,0.7339,1.188,1.4226,1.6234,1.5788,1.4832,1.5184,1.2066,0.9416,1.0967,0.9484,0.7656,0.7656,0.7562,0.6381,0.3198,0.2513,0.2045,0.0384,0.1557,0.4528,0.9745,1.1869,1.4822,1.9469,2.0192,1.8454,1.3802,1.3287,1.5668,2.1292,3.3008,4.5272,5.7473,5.6403,5.3522,4.9442,3.1338,1.1223,-1.057,-2.8415,-4.346,-5.5556,-5.8436,-5.306,-4.097,-4.8255,-3.7341,-1.365,-3.0605,-3.2171,-2.3917,-3.8313,-4.6204,-4.9602,-5.4225,-5.6929,-5.8486,-6.0315,-5.8496,-5.3935,0.0,0.0,0.0,0.0,0.0,0.0,-3.2306,-3.2104,-3.2164,-3.2742,-3.2792,-3.2867,-3.3068,-3.3068,-3.3068,-3.3068,-3.2698,0.0,0.0,0.0,0.0,0.0,0.0,0.0,-3.816,-3.7404,-3.5357,-3.2007,-3.1483,-2.9994,-2.7618,-2.7341,-2.7431,-2.7618,-2.706,-2.7168,0.0,0.0,0.0,0.0,0.0,0.0,-3.3781,0.0,0.0,0.0,0.0,0.0,0.0,0.0,0.0,0.0,0.0,0.0,0.0,-0.6345,-0.0493,0.475,0.5653,0.5669,0.5388,0.5594,0.3557,0.1999,0.3708,0.2293,0.0982,0.2208,0.2321,0.1706,-0.0489,-0.1002,-0.1533,-0.3203,-0.3142,-0.1868,0.1079,0.2728,0.489,0.8169,0.4617,0.0754,-0.227,-0.5121,-0.223,0.8504,1.7736,2.9794,4.584,4.0406,3.8572,4.2483,1.8595,-0.146,-1.6389,-3.1116,-3.6621,-3.2898,-2.8395,-2.3086,-1.7245,-2.0879,-2.0169,-1.6682,-2.79,-3.2867,-3.3662,-4.2016,-4.7827,-5.1937,-5.5649,-5.7978,-5.9246,-5.9734,-5.6878,-5.1728,0.0,0.0,0.0,0.0,0.0,0.0,-3.2441,-3.2365,-3.2416,-3.2993,-3.2893,-3.2842,-3.3043,-3.3068,-3.3169,-3.337,-3.3395,0.0,0.0,0.0,0.0,0.0,0.0,0.0,-3.8613,-3.8282,-3.6182,-3.2331,-3.2744,-3.1398,-2.8301,-2.8711,-2.8691,-2.8281,-2.8794,-2.9006,0.0,0.0,0.0,0.0,0.0,0.0,-3.4997,0.0,0.0,0.0,0.0,0.0,0.0,0.0,0.0,0.0,0.0,0.0,0.0,0.0,-1.1511,-0.6447,-0.386,-0.3033,-0.295,-0.2839,-0.3843,-0.44,-0.2692,-0.336,-0.3996,-0.2901,-0.2658,-0.3265,-0.4855,-0.5826,-0.6683,-0.7713,-0.8559,-0.8338,-0.5981,-0.5705,-0.5597,-0.5229,-0.878,-1.2685,-1.6268,-1.7578,-1.4145,-0.4436,0.3549,1.3492,2.6029,2.0147,1.5689,1.4229,0.0052,-0.9783,-1.4665,-2.4174,-2.2971,-1.1051,-0.4462,0.0492,0.3581,-0.0674,-0.3385,-0.5356,-1.7995,-2.5559,0.0,-3.9869,-4.6442,-5.0492,-5.3866,-5.6142,-5.7439,-5.642,-5.3592,-4.9032,0.0,0.0,0.0,0.0,0.0,0.0,0.0,-3.2516,-3.2365,-3.2943,-3.2541,-3.2441,-3.3018,-3.3068,-3.3294,-3.3759,-3.3834,0.0,0.0,0.0,0.0,0.0,0.0,-3.936,-3.8107,-3.8017,-3.6088,-3.2331,-3.2641,-3.1294,-2.8301,-2.8711,-2.8691,-2.8495,-2.9702,-3.0432,0.0,0.0,0.0,0.0,-3.491,-3.5002,0.0,0.0,0.0,0.0,0.0,0.0,0.0,0.0,0.0,0.0,0.0,0.0,0.0,0.0,0.0,0.0,0.0,-1.029,-1.0227,-1.0104,-1.0006,-0.9602,-0.804,-0.7718,0.0,-0.7687,-0.7687,-0.8181,-0.9806,-1.1526,-1.2638,-1.2656,-1.426,-1.461,-1.1403,-1.3349,-1.612,-1.8931,-1.9823,-2.209,-2.7326,-2.4756,-2.0843,-1.6111,-0.86,-0.2893,0.0572,-0.2822,-1.2206,-2.8268,-2.2356,-1.5726,-0.9296,-1.0891,-0.4779,0.9145,1.4347,1.8913,2.2461,1.411,1.2734,1.5913,-0.3077,-1.2772,-1.6426,-3.3493,-4.2534,-4.601,-4.9852,-5.2364,-5.3604,-5.1562,-4.9303,-4.6281,0.0,0.0,0.0,0.0,0.0,0.0,0.0,0.0,0.0,0.0,-3.229,-3.2441,-3.3018,-3.3068,-3.2922,0.0,0.0,0.0,0.0,0.0,0.0,0.0,-3.9656,-3.936,-3.8107,-3.7088,-3.5184,-3.2331,-3.1711,-3.0367,-2.8301,-2.8711,-2.9212,-2.9807,-3.012,-3.144,0.0,0.0,0.0,0.0,-3.5493,-3.5426,0.0,0.0,0.0,0.0,-2.955,-2.7619,0.0,0.0,0.0,0.0,0.0,0.0,0.0,0.0,-1.9652,-1.8971,-1.7539,0.0,-1.4891,-1.3742,-1.3481,-1.3314,0.0,-1.291,-1.2848,-1.2848,-1.2848,-1.3021,-1.3676,-1.4922,-1.5608,-1.4735,-1.6096,-1.7096,-1.6669,-1.8331,-2.0393,-2.2676,-2.5364,-2.7122,-2.7732,-2.871,-2.5664,-1.6617,-1.3733,-1.3265,-1.5228,-1.9081,-2.707,-3.9758,-3.7804,-3.2945,-2.5486,-1.3497,0.3583,2.555,3.4951,4.2028,4.6397,3.5864,2.5933,1.6116,0.1285,-1.1415,-2.225,-3.0148,-3.6384,-4.1391,-4.8411,-5.0845,-5.0561,-5.1367,-4.9889,-4.6552,0.0,0.0,0.0,0.0,0.0,0.0,0.0,0.0,0.0,0.0,-3.2215,-3.2247,-3.2277,-3.2239,-3.2002,0.0,0.0,0.0,0.0,0.0,0.0,-3.8595,-3.8621,-3.8477,-3.8084,-3.6671,-3.498,-3.3003,-3.2041,-3.0663,-2.8887,-2.9739,-3.0355,-3.0622,-3.1013,-3.2733,-3.5283,-3.397,0.0,-3.6137,-3.4563,0.0,0.0,0.0,0.0,0.0,-2.8937,-2.7573,0.0,-2.5249,-2.3521,-2.1616,0.0,0.0,0.0,0.0,-2.1373,-2.1303,-2.0758,-1.9362,-1.7929,-1.7138,-1.7124,-1.7183,-1.7066,-1.7031,-1.6996,-1.6879,-1.6738,-1.6938,-1.7194,-1.801,-1.8642,-1.8666,-1.9936,-2.1383,-2.2706,-2.2781,-2.4214,-2.8038,-2.9229,-2.9828,-2.9844,-2.9225,-2.5731,-1.8192,-1.799,-1.9911,-2.4126,-2.8839,-3.569,-4.4879,-4.3746,-3.7055,-2.4645,-0.939,0.9399,3.1436,4.1649,4.7374,4.869,3.9594,2.7816,1.3874,0.2995,-0.9141,-2.1432,-2.7199,-3.2386,-3.7365,-4.4933,-4.8088,-4.8273,-4.857,-4.7336,-4.4777,0.0,0.0,0.0,0.0,0.0,0.0,0.0,0.0,0.0,0.0,0.0,0.0,0.0,0.0,0.0,0.0,0.0,0.0,0.0,0.0,-3.5259,-3.7287,-3.7236,-3.7362,-3.7739,-3.6242,-3.4935,-3.3698,-3.2466,-3.1096,-2.957,-3.073,-3.1246,-3.1,-3.2031,-3.3645,-3.5766,-3.3277,-3.333,-3.4675,-3.2825,0.0,0.0,0.0,0.0,0.0,0.0,0.0,0.0,-2.646,-2.4648,-2.241,-2.3504,0.0,0.0,0.0,0.0,0.0,-2.1989,-2.0844,-2.004,-1.9907,-2.016,-2.0402,-1.992,-2.0104,-2.0128,-1.9609,-1.9699,-2.0068,-2.0397,-2.1199,-2.2198,-2.3278,-2.4594,-2.6033,-2.7632,-2.6878,-2.7836,-3.2579,-3.1786,-3.1219,-3.2241,-2.8443,-2.4419,-2.0453,-2.1437,-2.376,-2.7645,-3.29,-3.8262,-4.4102,-4.2244,-3.3649,-1.8277,-0.5195,1.0823,2.9561,3.8135,4.1452,3.9726,3.2793,2.2749,1.0166,0.2256,-0.7612,-1.8635,-2.4712,-2.9977,-3.5003,-4.1516,-4.5002,-4.6076,-4.5028,-4.3777,-4.2027,0.0,0.0,0.0,0.0,0.0,0.0,0.0,0.0,0.0,0.0,0.0,0.0,0.0,0.0,0.0,0.0,0.0,0.0,0.0,-3.3773,-3.5404,-3.7741,-3.7437,-3.701,-3.6634,-3.4949,-3.3817,-3.3079,-3.1045,-2.9852,-2.957,-2.9774,-3.0287,-3.1021,-3.2279,-3.3163,-3.3447,-3.2611,-3.2724,-3.3173,-3.1758,0.0,0.0,0.0,0.0,0.0,0.0,0.0,0.0,-2.6573,-2.5863,-2.5041,-2.2765,0.0,0.0,0.0,0.0,0.0,-2.0178,-2.0767,-2.1109,-2.0361,-2.1258,-2.1872,-2.0536,-2.123,-2.1727,-2.0142,-2.1095,-2.2393,-2.323,-2.5228,-2.6815,-2.6736,-2.8455,-2.9172,-2.754,-2.9904,-3.1478,-3.0926,-3.1218,-3.1581,-3.1433,-2.9652,-2.6613,-2.2424,-2.3668,-2.477,-2.4974,-2.8161,-3.1237,-3.3863,-3.1043,-2.7511,-2.333,-1.3223,0.1159,1.9449,2.4033,2.7787,3.0269,2.0984,1.3172,0.6373,-0.1405,-1.063,-2.0663,-2.3588,-2.9373,-3.6583,-4.1624,-4.3489,-4.3261,-4.3196,-4.1793,-3.9572,0.0,0.0,0.0,0.0,0.0,0.0,0.0,0.0,0.0,0.0,0.0,0.0,0.0,0.0,0.0,0.0,0.0,0.0,-3.1905,-3.3511,-3.5187,-3.7086,-3.6431,-3.6431,-3.6965,-3.5455,-3.4073,-3.3095,-3.1156,-3.0273,-3.0273,-3.077,-3.1366,-3.2054,-3.2209,-3.2503,-3.2886,-3.1466,-3.1381,-3.2104,0.0,0.0,0.0,0.0,0.0,0.0,0.0,0.0,0.0,0.0,-2.6717,-2.57,-2.3487,0.0,0.0,0.0,0.0,0.0,-1.972,-2.0187,-2.0615,-2.0695,-2.2412,-2.4149,-2.3855,-2.419,-2.4316,-2.3273,-2.3535,-2.4261,-2.5274,-2.7169,-2.9119,-3.095,-3.2331,-3.2823,-3.1767,-3.1992,-3.2205,-3.2104,-3.1488,-3.094,-3.0291,-2.9412,-2.7129,-2.2853,-2.4009,-2.4088,-2.2256,-2.4345,-2.6176,-2.7425,-2.5257,-2.3545,-2.2511,-1.7123,-0.8324,0.3852,0.7658,1.0847,1.346,0.7873,0.2369,-0.3058,-0.7839,-1.4844,-2.3161,-2.5943,-2.9926,-3.4869,-3.9206,-4.0734,-4.0342,-3.9932,-3.8587,-3.6729,0.0,0.0,0.0,0.0,0.0,0.0,0.0,0.0,0.0,0.0,0.0,0.0,0.0,0.0,0.0,0.0,0.0,0.0,-3.2402,-3.3664,-3.5211,-3.6887,-3.5795,-3.5795,-3.6906,-3.5432,-3.4007,-3.291,-3.1496,-3.0898,-3.0879,-3.1613,-3.2112,-3.2295,-3.1584,-3.165,-3.2189,-3.0429,-3.0258,-3.1203,0.0,0.0,0.0,0.0,0.0,0.0,0.0,0.0,0.0,0.0,0.0,0.0,0.0,0.0,0.0,-2.0486,-1.9924,-1.9877,-1.9838,-2.0186,-2.0846,-2.1948,-2.3563,-2.5091,-2.5644,-2.6124,-2.6288,-2.5643,-2.5911,-2.6611,-2.7395,-2.9017,-3.1361,-3.4257,-3.533,-3.5626,-3.5393,-3.3632,-3.2485,-3.3179,-3.1409,-3.0001,-2.9513,-2.8703,-2.6808,-2.3384,-2.4006,-2.3533,-2.1302,-2.2618,-2.3736,-2.4297,-2.3292,-2.2483,-2.2103,-2.0224,-1.5782,-0.8768,-0.5781,-0.341,-0.1695,-0.3555,-0.7252,-1.2248,-1.4431,-1.9387,-2.6226,-2.8478,-3.1123,-3.3766,-3.7102,-3.8224,-3.8031,-3.6933,-3.5598,-3.4414,0.0,0.0,0.0,0.0,0.0,0.0,0.0,0.0,0.0,0.0,0.0,0.0,0.0,0.0,0.0,0.0,0.0,0.0,-3.4768,-3.4678,-3.5743,-3.862,-3.6455,-3.517,-3.5212,-3.3482,-3.2538,-3.2295,-3.1337,-3.0898,-3.0898,-3.0976,-3.0797,-3.0438,-3.0364,-3.0344,-3.0418,-2.9839,-2.9898,-3.025,-3.0156,0.0,0.0,0.0,0.0,0.0,0.0,0.0,0.0,0.0,0.0,0.0,0.0,0.0,-2.5261,-2.2251,-2.1472,-2.1203,-2.006,-2.1348,-2.3394,-2.4956,-2.4248,-2.3186,-2.2759,-2.5085,-2.6739,-2.5068,-2.7587,-2.9887,-2.9723,-3.2166,-3.4561,-3.5162,-3.6113,-3.6258,-3.5247,-3.4559,-3.3603,-3.2274,-3.0228,-2.903,-2.9404,-2.7495,-2.5872,-2.4993,-2.4661,-2.4223,-2.3625,-2.4521,-2.5084,-2.5145,-2.5785,-2.5837,-2.5481,-2.3703,-1.9261,-1.2434,-1.1894,-1.0671,-0.9016,-1.1075,-1.4143,-1.7863,-1.9927,-2.4306,-2.9796,-3.0012,-3.242,-3.5871,-3.6602,-3.6792,-3.6666,-3.4999,-3.3975,-3.3574,0.0,0.0,0.0,0.0,0.0,0.0,0.0,0.0,0.0,0.0,0.0,-3.0136,-3.0461,0.0,0.0,0.0,0.0,0.0,-3.3659,-3.4936,-3.5741,-3.6081,-3.4402,-3.3198,-3.2889,-3.2596,-3.2085,-3.1391,-3.1033,-3.0898,-3.0898,-3.0898,-3.0644,-3.0215,-3.0508,-3.0469,-3.0195,-3.0332,-3.0488,-3.0625,-3.0625,-3.0351,0.0,0.0,0.0,0.0,0.0,0.0,0.0,0.0,-2.8301,-2.8067,-2.6608,-2.6155,-2.57,-2.3599,-2.2927,-2.2846,-2.242,-2.3115,-2.4188,-2.4858,-2.4801,-2.5092,-2.6761,-2.7849,-2.8403,-2.801,-2.9375,-3.1048,-3.2592,-3.4293,-3.5664,-3.6113,-3.668,-3.6585,-3.4956,-3.4433,-3.2971,-2.9976,-2.8972,-2.8037,-2.6766,-2.5922,-2.5237,-2.4836,-2.4529,-2.4439,-2.473,-2.5125,-2.6013,-2.7554,-2.6852,-2.6109,-2.5654,-2.3758,-2.0939,-1.7097,-1.7165,-1.692,-1.6284,-1.7022,-1.9183,-2.2421,-2.3764,-2.6789,-3.066,-3.1437,-3.2708,-3.4,-3.4161,-3.4242,-3.4242,-3.3513,-3.334,-3.3496,0.0,0.0,0.0,0.0,0.0,0.0,0.0,0.0,-3.1546,0.0,0.0,0.0,0.0,-3.0376,0.0,0.0,0.0,0.0,-3.4237,-3.5219,-3.562,-3.5138,-3.306,-3.2093,-3.2512,-3.2416,-3.1963,-3.0898,-3.0898,-3.0898,-3.0898,-3.0898,-3.0723,-3.043,-3.0742,-3.0703,-3.043,-3.0762,-3.0898,-3.0898,-3.0898,-3.0605,0.0,0.0,0.0,0.0,0.0,0.0,0.0,0.0,-2.8301,-2.8067,-2.7168,-2.6825,-2.6499,-2.4931,-2.4488,-2.4394,-2.4082,-2.4553,-2.5111,-2.5473,-2.6059,-2.7147,-2.9083,-2.978,-2.9996,-3.0516,-3.0847,-3.163,-3.3514,-3.4394,-3.498,-3.5547,-3.5915,-3.5774,-3.5321,-3.4001,-3.2296,-3.0034,-2.9252,-2.8073,-2.5973,-2.6143,-2.5786,-2.4249,-2.4929,-2.5331,-2.4997,-2.589,-2.7177,-2.8796,-2.8026,-2.709,-2.6116,-2.4226,-2.2258,-2.0344,-2.0091,-1.996,-1.996,-2.0054,-2.1546,-2.4242,-2.4956,-2.685,-2.9468,-3.0307,-3.0736,-3.0866,-3.1484,-3.1703,-3.1941,-3.2455,-3.2773,-3.3105,0.0,0.0,0.0,0.0,0.0,0.0,0.0,0.0,-3.1384,-3.2097,-3.0537,0.0,0.0,0.0,0.0,0.0,0.0,0.0,-3.7148,-3.5486,-3.5017,-3.6571,-3.2981,-3.2062,-3.4289,-3.3136,-3.1963,-3.0879,-3.0879,-3.0898,-3.0898,-3.0898,-3.0898,-3.0898,-3.0898,-3.0898,-3.0898,-3.0898,-3.0898,-3.0898,-3.0898,-3.0605,-3.0195,0.0,0.0,0.0,0.0,0.0,0.0,0.0,-2.8301,-2.8301,-2.8301,-2.8301,-2.8067,-2.6608,-2.6155,-2.5898,-2.4834,-2.5336,-2.6354,-2.7151,-2.8089,-2.8911,-2.8781,-2.9941,-3.1154,-3.1817,-3.2053,-3.2168,-3.2168,-3.2168,-3.2441,-3.3281,-3.3348,-3.3992,-3.6305,-3.3304,-3.1557,-3.3287,-3.1378,-2.9171,-2.746,-2.857,-2.7819,-2.3633,-2.6252,-2.6935,-2.456,-2.7226,-2.8882,-2.8882,-2.9676,-2.9279,-2.7236,-2.5463,-2.3504,-2.1586,-2.0155,-1.9372,-1.9372,-1.9666,-2.0886,-2.2721,-2.2931,-2.4205,-2.5968,-2.5984,-2.6199,-2.6794,-2.8394,-2.9379,-2.9847,-3.152,-3.2168,-3.2285,0.0,0.0,0.0,0.0,0.0,0.0,0.0,0.0,-2.9942,-2.9695,-2.9945,0.0,0.0,0.0,0.0,0.0,0.0,0.0,-3.4686,-3.4438,-3.3884,-3.2775,-3.1612,-3.1655,-3.3005,-3.39,-3.3828,-3.2416,-3.2416,-3.1883,-3.0879,-2.9648,-2.9785,-3.0879,-2.9648,-2.9785,-3.0898,-3.0898,-3.0898,-3.0898,-3.0898,-3.0605,-3.0195,0.0,0.0,0.0,0.0,0.0,0.0,0.0,0.0,0.0,-2.8301,-2.8301,-2.8174,-2.7726,-2.7618,-2.753,-2.721,-2.7578,-2.8115,-2.8363,-2.9119,-2.9925,-3.0157,-2.9841,-2.9816,-3.1163,-3.1847,-3.2266,-3.2559,-3.2363,-3.1957,-3.1313,-3.2335,-3.2955,-3.1577,-3.2639,-3.2666,-3.0327,-3.0856,-3.0429,-2.8381,-2.8316,-2.789,-2.676,-2.6985,-2.7333,-2.7599,-2.8465,-2.913,-2.9754,-2.9025,-2.7622,-2.5332,-2.3729,-2.1915,-2.004,-1.9591,-1.9372,-1.9372,-1.9452,-2.0447,-2.2243,-2.2587,-2.3863,-2.5501,-2.5869,-2.605,-2.6394,-2.7988,-2.8841,-2.9446,-3.1079,-3.1894,-3.2246,0.0,0.0,0.0,0.0,0.0,0.0,-3.0548,-2.9473,-2.8744,-2.8656,-2.9461,-3.0617,0.0,0.0,0.0,0.0,0.0,0.0,-3.3087,-3.2895,-3.2272,-3.1106,-3.1188,-3.2233,-3.436,-3.611,-3.6054,-3.3957,-3.3417,-3.2052,-2.9903,-2.8902,-2.892,-2.9903,-2.8902,-2.9275,-3.0898,-3.0898,-3.0898,-3.0898,-3.0898,-3.0508,-2.998,0.0,0.0,0.0,0.0,0.0,0.0,0.0,0.0,0.0,-2.8301,-2.8301,-2.8301,-2.8301,-2.8301,-2.832,-2.8496,-2.873,-2.9004,-2.9336,-2.9805,-3.0312,-3.0781,-3.061,-3.0649,-3.1652,-3.1913,-3.1852,-3.1351,-3.0793,-3.0083,-2.8994,-2.9924,-3.0537,-2.9837,-3.152,-3.2245,-3.0414,-3.1411,-3.1393,-2.9145,-2.9561,-2.9258,-2.7536,-2.826,-2.8711,-2.8684,-2.9287,-2.9842,-3.0215,-2.8629,-2.6717,-2.448,-2.285,-2.1104,-1.9372,-1.9372,-1.9372,-1.9372,-1.9372,-1.9973,-2.1188,-2.1646,-2.2612,-2.3627,-2.3947,-2.4039,-2.4286,-2.5863,-2.6621,-2.719,-2.9407,-3.0433,-3.0838,0.0,0.0,-3.2272,-3.271,0.0,0.0,-3.0232,-2.8715,-2.7849,-2.8272,-2.899,-3.0284,0.0,0.0,0.0,-3.4388,-3.4385,-3.3773,-3.223,-3.103,-3.0433,-3.0787,-3.1611,-3.3766,-3.7382,-3.8767,-3.8137,-3.5288,-3.3957,-3.1667,-2.8664,-2.8426,-2.8545,-2.8664,-2.8426,-2.9257,-3.082,-3.082,-3.0801,-3.0781,-3.082,-3.0312,-2.9609,-3.0026,0.0,0.0,0.0,0.0,0.0,0.0,0.0,0.0,-2.834,-2.832,-2.8301,-2.834,-2.832,-2.8398,-2.8848,-2.8945,-2.9121,-2.998,-3.0234,-3.0371,-3.0801,-3.1797,-3.2637,-3.2676,-3.2051,-3.1026,-2.9386,-2.8408,-2.7529,-2.6521,-2.681,-2.7807,-2.9833,-3.014,-3.0788,-3.2487,-3.2734,-3.1941,-2.9883,-3.156,-3.1058,-2.7182,-2.973,-3.0658,-2.8683,-3.002,-3.0664,-3.0156,-2.8122,-2.6224,-2.4431,-2.2374,-2.0673,-1.9372,-1.9345,-1.9345,-1.9372,-1.9372,-1.9546,-1.9867,-2.0428,-2.0842,-2.1109,-2.1109,-2.1109,-2.1235,-2.2966,-2.3574,-2.3931,-2.7091,-2.8289,-2.8719,0.0,0.0,-3.1192,-3.0305,0.0,0.0,-2.8549,-2.8094,-2.7668,-2.6491,-2.8378,-3.0296,-3.1285,-3.3373,0.0,-3.4388,-3.4385,-3.3377,-3.0927,-3.0411,-3.0013,-2.9431,-3.2318,-3.491,-3.6859,-3.758,-3.7156,-3.5288,-3.4958,-3.3304,-3.0274,-2.9039,-2.9157,-3.0274,-2.9039,-2.909,-3.0351,-3.0351,-3.0156,-2.9883,-3.0215,-2.9883,-2.9167,-2.9906,-2.9643,0.0,0.0,0.0,0.0,0.0,0.0,0.0,-2.8789,-2.8555,-2.8359,-2.8691,-2.8555,-2.8457,-2.9219,-2.918,-2.9121,-2.998,-3.0469,-3.0762,-3.0859,-3.1113,-3.1387,-3.1719,-3.1641,-3.1026,-2.9386,-2.8625,-2.7469,-2.4968,-2.6844,-2.8412,-2.7916,-3.0135,-3.1918,-3.2305,-3.2305,-3.2144,-3.1661,-3.1692,-3.1339,-3.0528,-3.0837,-3.0859,-3.0392,-3.0645,-3.0527,-2.9726,-2.7043,-2.5057,-2.3954,-2.0925,-1.9462,-1.9359,-1.9132,-1.9145,-1.9372,-1.9372,-1.9653,-2.016,-2.0521,-2.0842,-2.1109,-2.1109,-2.1109,-2.1235,-2.2966,-2.3574,-2.3807,-2.5741,-2.7314,-2.8426,0.0,0.0,0.0,0.0,0.0,0.0,0.0,0.0,-2.7868,-2.5898,-2.7689,-2.9298,-2.9729,-3.1596,0.0,0.0,-3.2319,-3.1542,-2.9513,-2.9303,-2.9606,-3.0255,-3.2231,-3.4092,-3.5964,-3.6348,-3.5727,-3.4292,-3.4292,-3.2716,-2.9648,-2.8783,-2.8902,-2.9648,-2.8783,-2.9034,-3.0195,-3.0195,-2.9961,-2.959,-2.9805,-2.9609,-2.9219,-2.9536,-2.9388,-2.9279,-2.9269,0.0,0.0,0.0,0.0,0.0,0.0,0.0,-2.8379,-2.8789,-2.8769,-2.873,-2.9394,-2.9551,-2.9687,-3.0371,-3.0703,-3.0898,-3.0898,-3.0898,-3.0957,-3.1172,-3.1211,-3.0481,-2.8112,-2.7453,-2.6294,-2.317,-2.5418,-2.7313,-2.6653,-2.9422,-3.1304,-3.0426,-3.1219,-3.1517,-3.0445,-3.1026,-3.1426,-3.123,-3.1016,-3.0898,-3.0898,-3.0684,-3.0254,-2.959,-2.6469,-2.4497,-2.3822,-2.0499,-1.8998,-1.9158,-1.8998,-1.8722,-1.8286,-1.8286,-1.847,-1.8998,-1.9259,-1.9562,-1.9941,-2.0716,-2.1109,-2.1235,-2.2104,-2.2341,-2.2591,-2.4286,-2.5863,-2.7314,0.0,0.0,0.0,0.0,0.0,0.0,0.0,0.0,0.0,-2.6035,-2.7191,-2.8334,-2.86,-3.0022,-3.0634,0.0,0.0,0.0,-2.8388,-2.8301,-2.922,-3.144,-3.1716,-3.2771,-3.4907,-3.4868,-3.414,-3.2847,-3.2684,-3.1242,-2.8674,-2.8765,-2.8783,-2.8783,-2.8783,-2.925,-3.0078,-3.0059,-2.9766,-2.9355,-2.9453,-2.9447,-2.9341,-2.9172,-2.9211,-2.9487,-2.9203,-2.9108,-2.9041,-2.9113,0.0,0.0,0.0,0.0,-2.8379,-2.8789,-2.8926,-2.9023,-2.9531,-3.0,-3.041,-3.0801,-3.0898,-3.0898,-3.0898,-3.0898,-3.0898,-3.0898,-3.0898,-2.9903,-2.6591,-2.5984,-2.4885,-2.1601,-2.3915,-2.5984,-2.5984,-2.8545,-3.002,-2.892,-3.0068,-3.0401,-2.8938,-3.0325,-3.1269,-3.0918,-3.0898,-3.0859,-3.0781,-3.041,-2.9961,-2.9473,-2.624,-2.4281,-2.3739,-2.0413,-1.8878,-1.8918,-1.863,-1.8083,-1.7032,-1.6442,-1.656,-1.7245,-1.7403,-1.7816,-1.864,-2.0068,-2.0843,-2.1109,-2.1109,-2.1109,-2.1235,-2.2716,-2.4178,-2.5863,0.0,0.0,0.0,0.0,0.0,0.0,0.0,0.0,0.0,0.0,-2.7374,-2.8565,-2.9463,-3.0319,-3.0767,-3.0263,-3.0286,-2.9702,-2.8388,0.0,0.0,-3.0391,-3.1379,-3.2319,-3.351,-3.3031,-3.2501,-3.199,-3.1095,-3.0388,-2.993,-3.0335,-3.0528,-3.0528,-3.0528,-3.018,-2.9648,-2.9695,-2.9242,-2.8496,-2.8855,-2.8758,-2.8535,-2.9269,-2.9277,-2.9132,-2.9826,-2.98,-2.9584,-2.9944,-2.9459,0.0,0.0,0.0,-2.8379,-2.8789,-2.8926,-2.9101,-2.9902,-3.0449,-3.082,-3.0879,-3.0898,-3.0898,-3.0898,-3.0898,-3.0898,-3.0898,-3.0898,-2.9903,-2.6591,-2.5984,-2.4885,-2.1601,-2.3915,-2.5984,-2.5984,-2.7572,-2.9157,-3.0392,-2.9568,-2.9331,-3.0411,-3.082,-3.0957,-3.0898,-3.0898,-3.0723,-3.0312,-3.0234,-2.9824,-2.9023,-2.6099,-2.4149,-2.3485,-2.0207,-1.8677,-1.8931,-1.7762,-1.7174,-1.7063,-1.4275,-1.392,-1.5639,-1.571,-1.6838,-1.8512,-1.8768,-1.9674,-2.1109,-2.1109,-2.1109,-2.1109,-2.1362,-2.2466,-2.4178,0.0,0.0,0.0,0.0,0.0,0.0,0.0,0.0,0.0,0.0,0.0,-2.7743,-2.8147,-2.8716,-2.9023,-2.8813,-2.9076,-2.89,-2.8281,-2.8301,-2.87,-2.9454,-2.9944,-3.0493,-3.1183,-3.0942,-3.0732,-3.053,-3.032,-3.0195,-3.0215,-3.0664,-3.0898,-3.0898,-3.0898,-3.0508,-2.9937,-2.9656,-2.9253,-2.8613,-2.8574,-2.8643,-2.8632,-2.8848,-2.8878,-2.8965,-2.9388,-2.9238,-2.8976,-2.9362,-2.9115,-2.8574,-2.8574,0.0,0.0,0.0,-2.8926,-2.9101,-2.9961,-3.0351,-3.0566,-3.082,-3.1556,-3.2092,-3.2092,-3.2092,-3.2092,-3.2092,-3.1441,-3.0157,-2.7811,-2.6591,-2.5497,-2.4039,-2.5008,-2.5984,-2.5984,-2.7452,-2.8307,-2.8188,-2.8289,-2.8664,-2.9412,-3.0392,-3.0781,-3.0527,-3.0508,-3.0312,-2.9863,-2.9609,-2.9316,-2.8926,-2.574,-2.3933,-2.3402,-2.0149,-1.8099,-1.7291,-1.7018,-1.6034,-1.4446,-1.3207,-1.3095,-1.3934,-1.4152,-1.5199,-1.7076,-1.8116,-1.9546,-2.1109,-2.1109,-2.1109,-2.1109,-2.1109,-2.2702,-2.5024,0.0,0.0,0.0,0.0,0.0,0.0,0.0,0.0,0.0,0.0,0.0,-2.6934,-2.7148,0.0,0.0,0.0,-2.8008,-2.8125,-2.8125,-2.8125,-2.832,-2.875,-2.8965,-2.9141,-2.9238,-2.9453,-2.9473,-2.9238,-2.9668,-2.9922,-3.0059,-3.0508,-3.0781,-3.0898,-3.0898,-3.0605,-3.0192,-2.9872,-2.947,-2.8917,-2.8486,-2.8436,-2.8549,-2.8223,-2.8301,-2.8652,-2.8855,-2.868,-2.8359,-2.8789,-2.8652,-2.8301,-2.8301,-2.8301,0.0,0.0,0.0,-2.9101,-2.9961,-3.0195,-3.0312,-3.0781,-3.1767,-3.2644,-3.2964,-3.2851,-3.2644,-3.2964,-3.1883,-3.0528,-2.9275,-2.7692,-2.647,-2.6106,-2.6349,-2.6591,-2.6591,-2.7692,-2.8051,-2.7331,-2.7931,-2.8545,-2.9039,-3.0374,-3.0892,-3.0215,-3.0418,-3.0181,-2.9434,-2.9101,-2.8867,-2.8769,-2.5529,-2.3657,-2.3402,-2.0221,-1.7751,-1.6086,-1.6204,-1.4922,-1.2457,-1.2393,-1.2306,-1.2354,-1.2475,-1.3837,-1.6043,-1.7334,-1.9152,-2.1109,-2.1109,-2.1109,-2.1109,-2.1109,-2.2937,-2.5497,0.0,0.0,0.0,0.0,0.0,0.0,0.0,0.0,0.0,0.0,0.0,-2.6738,-2.7539,-2.7656,-2.7832,-2.8223,-2.791,-2.7695,-2.7695,-2.7695,-2.7891,-2.8301,-2.9101,0.0,-2.8379,-2.916,-2.918,-2.8359,-2.8769,-2.9199,-2.9609,-3.0039,-3.0469,-3.0898,-3.0898,-3.0625,-3.0176,-3.0192,-2.9648,-2.8894,-2.8496,-2.8081,-2.7736,-2.7718,-2.7718,-2.7863,-2.8632,-2.8632,-2.832,-2.8759,-2.8613,-2.8301,-2.8301,-2.8301,-2.8301,0.0,0.0,0.0,-2.9961,-3.0195,-3.0312,-3.0781,-3.1015,-3.1325,-3.2737,-3.1977,-3.1441,-3.2851,-3.1883,-3.0879,-3.0762,-2.9412,-2.7811,-2.6227,-2.7314,-2.8289,-2.8289,-2.8289,-2.892,-3.0509,-2.9294,-2.9039,-3.0645,-3.1572,-3.1625,-3.0309,-3.0994,-3.0785,-2.9074,-2.8926,-2.873,-2.834,-2.5388,-2.3657,-2.3402,-2.0439,-1.7943,-1.6098,-1.53,-1.4156,-1.2632,-1.1313,-1.0699,-1.0836,-1.0836,-1.2791,-1.5913,-1.6043,-1.7988,-2.1109,-2.1109,-2.1109,-2.1109,-2.1109,-2.2215,-2.3931,0.0,0.0,0.0,0.0,0.0,0.0,0.0,0.0,0.0,0.0,0.0,0.0,0.0,-2.791,-2.8125,-2.8281,-2.791,-2.7676,-2.7676,-2.7676,-2.7851,-2.8281,-2.8594,-2.8613,-2.8301,-2.8594,-2.8594,-2.8301,-2.8711,-2.9004,-2.916,-2.9863,-3.0293,-3.0449,-3.0762,-3.0801,-3.0625,-3.0348,-2.9917,-2.9316,-2.8601,-2.8038,-2.7703,-2.7334,-2.7461,-2.7766,-2.8038,-2.833,-2.8711,-2.8828,-2.8965,-2.9062,-2.8789,-2.8691,-2.8633,-2.8379,-2.8398,-2.8633,-2.9219,-2.9375,-2.9492,-2.9922,-3.081,-3.1663,-3.2196,-3.2093,-3.1984,-3.2525,-3.1681,-3.0898,-3.0898,-2.953,-2.8545,-2.9039,-2.8783,-2.8426,-2.8426,-2.8426,-2.8664,-2.9157,-2.8783,-2.9474,-3.2072,-3.2209,-3.1927,-3.1326,-3.12,-3.0422,-2.8643,-2.8516,-2.8437,-2.8301,-2.5388,-2.2768,-2.0565,-1.8229,-1.6374,-1.4834,-1.3965,-1.2707,-1.1165,-1.0788,-1.067,-1.0717,-1.0717,-1.2025,-1.4362,-1.5394,-1.7334,-1.9546,-2.0716,-2.1109,-2.1109,-2.1109,-2.2215,-2.3807,0.0,0.0,0.0,0.0,0.0,-2.8031,-2.7641,-2.6476,-2.584,-2.6133,0.0,0.0,0.0,0.0,-2.8184,-2.7891,-2.7598,-2.7383,-2.7246,-2.7363,-2.7637,-2.8066,-2.8359,-2.8437,-2.8301,-2.8437,-2.8437,-2.8301,-2.8574,-2.8789,-2.8926,-2.9492,-2.9922,-3.0215,-3.0527,-3.0742,-3.0859,-3.0623,-3.0062,-2.9579,-2.8829,-2.8177,-2.7703,-2.7511,-2.7623,-2.7924,-2.8105,-2.8457,-2.8878,-2.87,-2.8965,-2.9101,-2.8809,-2.8711,-2.8652,-2.8379,-2.8301,-2.8379,-2.8809,-2.8926,-2.9062,-2.9629,-3.0429,-3.121,-3.1902,-3.1719,-3.1643,-3.2232,-3.1438,-3.0703,-3.0859,-3.002,-2.9648,-3.0762,-3.002,-2.9275,-2.9275,-2.9275,-2.9375,-2.9944,-2.9925,-3.0974,-3.362,-3.3595,-3.2987,-3.1822,-3.1551,-3.0538,-2.8408,-2.8301,-2.7853,-2.6844,-2.47,-2.21,-1.8918,-1.7102,-1.5602,-1.4149,-1.3233,-1.1901,-1.029,-1.0588,-1.0717,-1.0717,-1.0717,-1.163,-1.3456,-1.5135,-1.6947,-1.864,-2.0449,-2.1109,-2.1109,-2.1109,-2.2215,-2.3698,0.0,0.0,-2.8007,-2.7568,-2.7505,-2.7505,-2.7505,-2.6476,-2.5742,-2.5762,0.0,0.0,0.0,0.0,0.0,-2.7109,-2.7031,-2.6836,-2.6426,-2.6777,-2.7207,-2.7656,-2.8457,-2.8711,-2.8301,-2.8691,-2.8711,-2.8301,-2.8301,-2.8496,-2.8906,-2.8906,-2.9355,-3.0156,-3.0176,-3.043,-3.0976,-3.0879,-3.0412,-2.9562,-2.9045,-2.8447,-2.7756,-2.8153,-2.8272,-2.8341,-2.8774,-2.8886,-2.8886,-2.8486,-2.8359,-2.8359,-2.834,-2.832,-2.832,-2.8301,-2.8301,-2.8379,0.0,0.0,0.0,-2.9941,-2.9824,-3.0076,-3.1885,-3.0924,-3.0095,-3.1927,-3.1176,-3.0332,-3.0801,-3.0898,-3.0898,-3.0898,-3.0898,-3.0898,-3.0898,-3.0879,-3.1556,-3.2964,-3.3191,-3.3733,-3.5178,-3.5689,-3.4774,-3.2038,-3.2214,-3.1154,-2.8427,-2.832,-2.6952,-2.3933,-2.3585,-2.1883,-1.8818,-1.7285,-1.5654,-1.4149,-1.311,-1.1775,-1.029,-1.0588,-1.0717,-1.0717,-1.0717,-1.1762,-1.3456,-1.5135,-1.6947,-1.864,-2.0449,-2.1109,-2.1109,-2.1109,-2.209,-2.3574,0.0,-2.5875,-2.6346,-2.6227,-2.6207,-2.6207,-2.6207,-2.5917,-2.5859,0.0,0.0,0.0,-2.7461,-2.7969,-2.8066,-2.7539,-2.7207,-2.6973,-2.6855,-2.6953,-2.7207,-2.7656,-2.8184,-2.8418,-2.8301,-2.8398,-2.8398,-2.8301,-2.8301,-2.8359,-2.8476,-2.8769,-2.9043,-2.9277,-2.9609,-3.0346,-3.1379,-3.1067,-3.0412,-2.9581,-2.9408,-2.87,-2.768,-2.7776,-2.7917,-2.791,-2.8357,-2.8849,-2.9431,-2.9643,-2.9883,-3.0059,-2.9414,-2.9004,-2.8691,-2.8379,-2.8301,-2.832,-2.8437,0.0,0.0,0.0,0.0,0.0,-2.9311,-2.9273,-2.9329,-3.0187,-3.03,-3.0332,-3.0801,-3.0898,-3.0898,-3.0898,-3.0898,-3.0898,-3.0898,-3.1767,-3.2644,-3.3077,-3.4069,-3.5288,-3.6703,-3.6649,-3.5725,-3.3918,-3.3554,-3.2146,-2.9439,-2.8926,-2.725,-2.3933,-2.3585,-2.1516,-1.7566,-1.5732,-1.4103,-1.2729,-1.1588,-1.0777,-1.029,-1.0588,-1.0717,-1.0717,-1.2025,-1.28,-1.3456,-1.5135,-1.6947,-1.864,-2.0449,-2.1109,-2.1109,-2.1109,-2.1348,-2.1978,-2.5039,-2.543,-2.5742,-2.5742,-2.5742,-2.5742,-2.5742,-2.5742,-2.582,0.0,0.0,0.0,-2.7851,-2.8144,-2.8125,-2.7695,-2.7441,-2.7207,-2.7031,-2.7012,-2.7129,-2.7383,-2.7859,-2.8094,-2.8027,-2.8203,-2.8301,-2.8301,-2.8301,-2.8301,-2.8301,-2.8535,-2.9075,-2.9776,-3.0037,-3.0983,-3.2362,-3.2176,-3.1311,-3.0161,-3.0162,-2.9262,-2.799,-2.8184,-2.8172,-2.8285,-2.8711,-2.9164,-2.9688,-2.9902,-3.0137,-3.027,-2.9711,-2.9414,-2.9113,-2.8652,-2.8555,-2.8516,-2.834,-2.8301,-2.834,-2.8516,0.0,0.0,-2.8516,-2.8613,-2.8828,-2.9434,-2.9766,-3.0137,-3.0762,-3.0898,-3.0898,-3.0898,-3.0898,-3.0898,-3.0898,-3.2207,-3.3304,-3.3957,-3.5288,-3.6811,-3.8243,-3.7316,-3.6145,-3.4657,-3.3546,-3.1909,-2.9682,-2.8588,-2.6773,-2.4165,-2.3005,-2.0652,-1.7079,-1.5067,-1.3546,-1.2217,-1.0871,-1.0283,-1.029,-1.0588,-1.0683,-1.0754,-1.2433,-1.3596,-1.4493,-1.6167,-1.7502,-1.864,-2.0449,-2.1109,-2.1109,-2.1109,-2.1109,-2.1235,0.0,-2.5352,-2.5684,-2.5723,-2.5742,-2.5762,-2.5801,-2.5762,-2.5684,0.0,-2.6439,-2.7234,-2.8203,-2.8301,-2.8144,-2.7773,-2.7695,-2.748,-2.7051,-2.7012,-2.7012,-2.6973,-2.7408,-2.7663,-2.7734,-2.8105,-2.8301,-2.8301,-2.8301,-2.8301,-2.8301,-2.8495,-2.9419,-3.0937,-3.1043,-3.21,-3.3675,-3.3656,-3.2809,-3.137,-3.1195,-3.0065,-2.8514,-2.875,-2.8819,-2.8926,-2.9372,-2.9518,-2.9636,-2.975,-2.9766,-2.9734,-2.9731,-2.9687,-2.9538,-2.9062,-2.8945,-2.8848,-2.8457,-2.832,-2.8379,-2.875,-2.8574,0.0,-2.8769,-2.8555,-2.8535,-2.9394,-2.957,-2.9844,-3.0723,-3.0898,-3.0898,-3.0898,-3.0898,-3.1015,-3.1112,-3.2477,-3.3909,-3.5398,-3.6858,-3.8315,-3.9362,-3.7806,-3.611,-3.4508,-3.2617,-3.0982,-2.9741,-2.7903,-2.6056,-2.4594,-2.2158,-1.9608,-1.6727,-1.4855,-1.3339,-1.1976,-1.0856,-1.0256,-1.0263,-1.0541,-1.0609,-1.0616,-1.2387,-1.4171,-1.5833,-1.7611,-1.853,-1.8896,-2.0462,-2.1109,-2.1109,-2.1109,-2.1109,-2.1109,-2.4453,-2.4902,-2.5312,-2.5684,-2.5742,-2.5859,-2.6211,-2.5957,-2.5679,-2.5522,-2.5949,-2.6766,-2.8155,-2.8301,-2.8262,-2.8184,-2.7851,-2.748,-2.7051,-2.7012,-2.7035,-2.7041,-2.7432,-2.78,-2.8164,-2.8262,-2.8301,-2.8301,-2.8301,-2.8301,-2.8281,-2.9408,-3.0057,-3.0454,-3.157,-3.2836,-3.4199,-3.4263,-3.4004,-3.364,-3.2104,-3.0801,-2.9808,-2.9124,-2.8672,-2.8506,-2.8926,-2.9303,-2.9657,-3.0373,-3.0644,-3.0527,-3.0234,-3.0078,-3.0054,-2.9551,-2.9199,-2.8906,-2.8809,-2.8555,-2.832,-2.8398,-2.8359,0.0,-2.8398,-2.8359,-2.8535,-2.9394,-2.957,-2.9844,-3.0723,-3.0898,-3.0898,-3.0898,-3.0898,-3.1325,-3.253,-3.4302,-3.5959,-3.6965,-3.8737,-3.9389,-3.8056,-3.7594,-3.6218,-3.3604,-3.1889,-3.0794,-3.0098,-2.8477,-2.6619,-2.4611,-2.1538,-1.8361,-1.5074,-1.337,-1.1823,-1.0301,-1.0129,-1.0093,-1.01,-1.0283,-1.0412,-1.061,-1.3509,-1.5041,-1.5843,-1.8888,-2.0328,-2.0589,-2.0982,-2.1109,-2.1109,-2.1109,-2.1109,-2.1109,-2.4375,-2.4941,-2.5469,-2.5703,-2.5118,-2.5055,-2.6209,-2.4958,-2.4176,-2.4948,-2.5504,-2.6387,-2.8155,-2.8301,-2.8301,-2.8301,-2.8105,-2.7793,-2.7363,-2.7344,-2.7192,-2.6743,-2.7097,-2.7393,-2.7402,-2.7734,-2.8008,-2.8009,-2.8155,-2.8601,-2.9303,-3.0016,-3.0901,-3.1972,-3.2941,-3.3609,-3.4005,-3.5017,-3.4623,-3.3292,-3.2301,-3.1317,-3.0223,-2.8985,-2.8476,-2.834,-2.876,-2.9322,-3.0026,-3.0645,-3.0898,-3.0859,-3.0625,-3.0547,-3.0449,-3.0019,-2.9726,-2.9512,-2.9297,-2.9082,-2.8926,-2.8926,-2.8926,0.0,0.0,-2.8926,-2.9101,-2.9746,-2.9883,-3.0098,-3.0762,-3.0898,-3.0898,-3.0898,-3.0898,-3.1441,-3.2851,-3.46,-3.62,-3.775,-3.8524,-3.8761,-3.7965,-3.63,-3.4403,-3.2207,-3.1325,-3.0781,-3.0547,-2.8056,-2.6234,-2.5028,-2.1669,-1.8237,-1.4891,-1.4038,-1.2302,-0.9822,-0.9978,-1.0046,-1.0053,-1.0209,-1.0276,-1.0397,-1.2892,-1.4567,-1.5679,-1.8185,-1.9949,-2.1109,-2.1109,-2.1109,-2.1109,-2.1109,-2.1109,-2.1109,-2.4414,-2.5059,-2.5644,-2.5723,-2.4609,-2.4262,-2.5906,-2.3821,-2.2787,-2.47,-2.4934,-2.5827,-2.8028,-2.8144,-2.8105,-2.8281,-2.8144,-2.791,-2.7559,-2.7604,-2.7212,-2.6289,-2.6744,-2.6804,-2.6406,-2.7153,-2.7617,-2.7728,-2.8251,-2.9157,-3.0307,-3.0824,-3.2029,-3.3743,-3.4486,-3.4535,-3.415,-3.5763,-3.4944,-3.27,-3.2431,-3.1521,-3.0278,-2.8846,-2.834,-2.8418,-2.8818,-2.9453,-3.0121,-3.0626,-3.082,-3.0898,-3.0898,-3.0898,-3.082,-3.0449,-3.0273,-3.0117,-2.9785,-2.9629,-2.957,-2.957,-2.957,-2.957,0.0,0.0,0.0,-3.0117,-3.0195,-3.0332,-3.0801,-3.0898,-3.0898,-3.0898,-3.0898,-3.1441,-3.2851,-3.4069,-3.5643,-3.7939,-3.781,-3.7631,-3.7746,-3.4622,-3.2207,-3.0995,-3.0898,-3.0898,-3.0898,-2.7529,-2.5641,-2.5559,-2.1775,-1.8362,-1.554,-1.4761,-1.3089,-1.0301,-1.0067,-1.0005,-1.0012,-1.0168,-1.0181,-1.01,-1.1956,-1.3788,-1.5576,-1.7067,-1.8914,-2.0949,-2.1002,-2.1056,-2.1109,-2.1109,-2.1109,-2.1109,-2.4414,-2.4805,-2.5273,-2.5664,-2.4609,-2.3935,-2.4899,-2.3358,-2.2871,-2.5076,-2.4235,-2.475,-2.7902,-2.7617,-2.7461,-2.8223,-2.7598,-2.7129,-2.709,-2.7097,-2.6684,-2.584,-2.6603,-2.6781,-2.6368,-2.6901,-2.7285,-2.7715,-2.8981,-2.9787,-3.0307,-3.2755,-3.4044,-3.4388,-3.5642,-3.6118,-3.6118,-3.6259,-3.5517,-3.4006,-3.2812,-3.1763,-3.0745,-2.8973,-2.8516,-2.8848,-2.8867,-2.9273,-2.9735,-3.0122,-3.0547,-3.0898,-3.0898,-3.0898,-3.0879,-3.082,-3.0527,-3.0176,-3.0137,-2.9863,-2.957,-2.957,-2.957,-2.957,-2.957,0.0,-2.9687,-3.0117,0.0,-3.0332,-3.0801,0.0,0.0,-3.0898,-3.0898,-3.1441,-3.2851,-3.3304,-3.4403,-3.7227,-3.7905,-3.7566,-3.584,-3.2913,-3.1112,-3.0898,-3.0898,-3.0898,-3.0898,-2.7776,-2.577,-2.5559,-2.0766,-1.7851,-1.7109,-1.401,-1.2354,-1.1856,-1.0558,-0.9849,-0.9849,-1.0005,-1.0141,-1.0383,-1.2012,-1.3735,-1.5676,-1.7326,-1.8989,-2.0361,-2.0628,-2.0882,-2.1109,-2.1109,-2.1109,-2.1109,-2.4473,-2.498,-2.5508,-2.5703,-2.4609,-2.4181,-2.5496,-2.4053,-2.3054,-2.411,-2.3804,-2.4844,-2.8269,-2.834,-2.8262,-2.8633,-2.832,-2.791,-2.7422,-2.7643,-2.7369,-2.6504,-2.6763,-2.6804,-2.6406,-2.6804,-2.7133,-2.7253,-2.9126,-3.053,-3.152,-3.3476,-3.4607,-3.5129,-3.6018,-3.5779,-3.4725,-3.5066,-3.3941,-3.1949,-3.1359,-3.0594,-2.9667,-2.87,-2.8398,-2.8594,-2.8828,-2.8991,-2.9283,-2.9726,-3.0117,-3.0449,-3.0195,-3.0469,-3.084,-3.0566,-3.0547,-3.0605,-3.0605,-3.0469,-3.0332,-3.0332,-3.0332,-3.0332,-3.0332,-3.0332,-3.0391,-3.0566,0.0,0.0,0.0,0.0,0.0,0.0,-3.0488,-3.062,-3.1023,-3.1952,-3.3741,-3.642,-3.5846,-3.4622,-3.2892,-3.1672,-3.0898,-3.0898,-3.0898,-3.0528,-2.953,-2.7194,-2.5554,-2.4436,-2.1369,-1.9125,-1.7694,-1.6243,-1.4358,-1.2217,-1.1495,-1.114,-1.1148,-1.0348,-1.0578,-1.1518,-1.1456,-1.241,-1.415,-1.5648,-1.7337,-1.8998,-1.9994,-2.0601,-2.0882,-2.1042,-2.1109,-2.1109,-2.4536,-2.4909,-2.5235,-2.5645,-2.4405,-2.3824,-2.5386,-2.4332,-2.3552,-2.4098,-2.4234,-2.5406,-2.852,-2.8613,-2.8535,-2.8887,-2.8594,-2.8184,-2.7761,-2.8015,-2.7695,-2.6672,-2.6894,-2.6724,-2.6091,-2.6606,-2.6937,-2.702,-2.9496,-3.1287,-3.2331,-3.4166,-3.5255,-3.578,-3.6182,-3.5635,-3.4293,-3.4366,-3.3059,-3.0794,-3.0495,-2.9708,-2.872,-2.8545,-2.8125,-2.7776,-2.8505,-2.88,-2.8908,-2.9341,-2.9721,-2.998,-2.9668,-3.0019,-3.0469,-3.0117,-3.0273,-3.0547,-3.0664,-3.0703,-3.0723,-3.0859,-3.0898,-3.0898,-3.0898,-3.0898,-3.0898,-3.0898,-3.0898,0.0,0.0,0.0,-3.0781,-3.0449,0.0,-3.0098,-2.9785,-3.0873,-3.249,-3.4845,-3.3861,-3.253,-3.0995,-3.0898,-3.084,-3.0703,-3.0451,-2.9846,-2.8991,-2.6661,-2.5024,-2.4301,-2.2131,-2.0224,-1.8484,-1.8105,-1.6409,-1.3611,-1.3305,-1.3089,-1.3098,-1.2069,-1.215,-1.3279,-1.2298,-1.2842,-1.4345,-1.5286,-1.6831,-1.8508,-1.9702,-2.0361,-2.0601,-2.0975,-2.1109,-2.1109,-2.4772,-2.4406,-2.4196,-2.543,-2.3824,-2.2645,-2.3361,-2.3684,-2.4361,-2.5809,-2.5595,-2.6206,-2.861,-2.7812,-2.7578,-2.8809,-2.7793,-2.7187,-2.7688,-2.7708,-2.7168,-2.5805,-2.6562,-2.6389,-2.5212,-2.5937,-2.6579,-2.7031,-3.0147,-3.1895,-3.2331,-3.5041,-3.6358,-3.6332,-3.6358,-3.6358,-3.6238,-3.4993,-3.3581,-3.2126,-3.0852,-2.9454,-2.834,-2.875,-2.7771,-2.6328,-2.7756,-2.8524,-2.8894,-2.8937,-2.9183,-2.959,-2.957,-2.959,-2.9609,-2.959,-2.959,-2.9707,-3.0098,-3.0215,-3.0332,-3.0781,-3.0898,-3.0898,-3.0898,-3.0898,-3.0898,-3.0898,-3.0898,-3.0898,-3.0898,-3.0898,-3.0879,-3.0879,-3.0488,0.0,0.0,-2.9956,-3.0398,-3.2253,-3.2805,-3.253,-3.0995,-3.0898,-3.0703,-3.0254,-2.917,-2.8972,-3.012,-2.6044,-2.4425,-2.5863,-2.2523,-2.0548,-2.0106,-1.8606,-1.7718,-1.7218,-1.5996,-1.536,-1.537,-1.5458,-1.5559,-1.5559,-1.5453,-1.635,-1.7964,-1.7596,-1.8337,-1.9721,-2.012,-2.0241,-2.0321,-2.0895,-2.1109,-2.1109,-2.5392,-2.4721,-2.4409,-2.5488,-2.5282,-2.4886,-2.4562,-2.4421,-2.4809,-2.5613,-2.5865,-2.6608,-2.8629,-2.8535,-2.8457,-2.8887,-2.8486,-2.8174,-2.8153,-2.8133,-2.7773,-2.704,-2.7285,-2.7133,-2.6367,-2.6902,-2.7379,-2.7441,-3.0572,-3.2184,-3.2331,-3.5138,-3.6358,-3.6358,-3.6358,-3.5858,-3.4969,-3.3562,-3.2248,-3.0895,-2.9513,-2.8319,-2.7233,-2.7085,-2.7225,-2.7592,-2.8135,-2.8418,-2.8535,-2.8506,-2.88,-2.9101,-2.8809,-2.9121,-2.9512,-2.9219,-2.9531,-3.0019,-3.0156,-3.043,-3.0703,-3.0859,-3.0898,-3.0898,-3.0898,-3.0898,-3.0898,-3.0898,-3.0898,-3.0898,-3.0898,-3.0898,-3.0801,-3.0488,-3.0293,-3.0098,0.0,-2.9902,-3.0364,-3.1257,-3.1572,-3.1441,-3.0995,-3.0898,-3.082,-3.0664,-3.0315,-2.971,-2.9071,-2.7621,-2.6001,-2.4409,-2.3222,-2.192,-2.0535,-2.0015,-1.9111,-1.7729,-1.7322,-1.7122,-1.6999,-1.6108,-1.6339,-1.7233,-1.597,-1.5751,-1.6344,-1.6975,-1.7684,-1.8357,-1.9624,-2.0361,-2.0548,-2.0748,-2.0949,-2.1109,-2.5645,-2.5229,-2.5064,-2.578,-2.6328,-2.6435,-2.5993,-2.5841,-2.5971,-2.6486,-2.6766,-2.7427,-2.8758,-2.8789,-2.875,-2.8906,-2.8739,-2.8544,-2.832,-2.8301,-2.8086,-2.7721,-2.7741,-2.7461,-2.7031,-2.7498,-2.7716,-2.7676,-3.0809,-3.2342,-3.2331,-3.5138,-3.6358,-3.6358,-3.6358,-3.5692,-3.4335,-3.2864,-3.1539,-3.0172,-2.8251,-2.7375,-2.7215,-2.6409,-2.6774,-2.7796,-2.8038,-2.8125,-2.8262,-2.8172,-2.832,-2.8652,-2.8379,-2.8672,-2.9101,-2.8965,-2.9316,-2.9805,-3.0117,-3.041,-3.0684,-3.0859,-3.0898,-3.0898,-3.0898,-3.0898,-3.0898,-3.0898,-3.0898,-3.0898,-3.0898,-3.0898,-3.0801,-3.0488,-3.0312,-3.0059,0.0,-2.9922,-3.0312,-3.0605,-3.0801,-3.0898,-3.0898,-3.0898,-3.082,-3.0644,-3.0296,-2.971,-2.9053,-2.8098,-2.6591,-2.4532,-2.3931,-2.2682,-2.0681,-2.0775,-2.0172,-1.8877,-1.8976,-1.9026,-1.9026,-1.7952,-1.7999,-1.9013,-1.7564,-1.701,-1.6963,-1.7697,-1.8126,-1.8344,-1.9627,-2.0321,-2.0681,-2.0788,-2.0949,-2.1109,-2.543,-2.5762,-2.5937,-2.6367,-2.6758,-2.7168,-2.7637,-2.7676,-2.7812,-2.8242,-2.8301,-2.8437,-2.8848,-2.8535,-2.8457,-2.8848,-2.8516,-2.8301,-2.8301,-2.8301,-2.8172,-2.7727,-2.7741,-2.75,-2.7051,-2.748,-2.7695,-2.7695,-3.0764,-3.2294,-3.2331,-3.5138,-3.6358,-3.6358,-3.6332,-3.5524,-3.4181,-3.2769,-3.1489,-3.0057,-2.7295,-2.7064,-2.8252,-2.6737,-2.6514,-2.6915,-2.7468,-2.7917,-2.829,-2.7885,-2.7957,-2.8301,-2.8301,-2.8301,-2.8379,-2.8789,-2.8945,-2.9141,-2.9961,-3.0195,-3.0293,-3.0742,-3.084,-3.084,-3.0859,-3.0859,-3.0859,-3.0879,-3.0879,-3.0762,-3.0762,-3.0762,-3.0762,-3.0762,-3.0508,-3.0098,-2.9687,-2.998,-3.0234,-3.0234,-3.0625,-3.0898,-3.0898,-3.0898,-3.0703,-3.0273,-2.917,-2.8972,-3.0139,-2.7599,-2.6106,-2.5984,-2.4409,-2.2697,-2.0695,-2.0975,-2.0975,-2.0695,-2.0975,-2.1096,-2.1082,-2.0802,-2.0668,-2.0615,-2.0054,-1.98,-1.9773,-1.9506,-1.9559,-1.9826,-1.984,-2.0187,-2.0735,-2.1002,-2.1109,-2.1109,-2.5645,-2.625,-2.6816,-2.7266,-2.7168,-2.7266,-2.8008,-2.7871,-2.7812,-2.8242,-2.8301,-2.834,-2.8437,-2.8359,-2.834,-2.8437,-2.8359,-2.8301,-2.8301,-2.8301,-2.8086,-2.7741,-2.7949,-2.793,-2.75,-2.791,-2.8125,-2.8125,-3.0927,-3.2297,-3.2331,-3.5138,-3.6358,-3.6332,-3.5367,-3.4125,-3.2778,-3.1396,-3.0245,-2.9192,-2.8183,-2.8365,-2.918,-2.8122,-2.7981,-2.8287,-2.7819,-2.7915,-2.8192,-2.787,-2.7957,-2.8301,-2.8301,-2.8301,-2.8379,-2.8789,-2.9141,-2.9512,-3.0059,-3.0195,-3.0234,-3.0351,-3.0137,-2.998,-3.0293,-3.0371,-3.0469,-3.082,-2.9903,-2.9039,-2.9039,-2.9039,-2.9039,-2.9039,-3.0043,-3.0684,-3.0566,-3.0644,-3.0703,-3.0703,-3.082,-3.0898,-3.0898,-3.0898,-3.084,-3.0723,-3.0451,-3.0353,-3.0723,-2.8847,-2.7194,-2.6106,-2.4409,-2.2798,-2.1002,-2.1069,-2.1069,-2.1002,-2.1069,-2.1002,-2.0788,-2.0708,-2.0548,-2.0321,-1.996,-1.98,-1.9786,-1.972,-1.9867,-2.0147,-2.0361,-2.0681,-2.1002,-2.1082,-2.1109,-2.1109,-2.6055,-2.6719,-2.7383,-2.7617,-2.7617,-2.7676,-2.7969,-2.7812,-2.7812,-2.8242,-2.8125,-2.8086,-2.8262,-2.8125,-2.8086,-2.8281,-2.8301,-2.8301,-2.8301,-2.8301,-2.8184,-2.7949,-2.8164,-2.8184,-2.7949,-2.8164,-2.8301,-2.8301,-3.103,-3.2331,-3.2331,-3.5138,-3.6073,-3.5451,-3.4747,-3.3305,-3.1316,-3.0016,-2.9166,-2.8887,-2.8457,-2.8691,0.0,-2.8555,-2.8476,-2.8544,-2.7871,-2.7963,-2.8206,-2.7865,-2.7996,-2.8301,-2.8301,-2.8301,-2.8379,-2.8789,-2.9101,-2.9375,-2.9805,-2.9922,-2.9922,-2.9922,-2.9883,-2.9902,-3.0137,-2.9738,-2.9464,-2.9728,-2.8545,-2.7314,-2.7314,-2.7314,-2.7572,-2.8289,-2.9785,-3.0898,-3.0898,-3.0898,-3.0898,-3.0898,-3.0898,-3.0898,-3.0898,-3.0898,-3.0898,-3.0898,-3.0898,-3.0898,-3.0898,-2.9275,-2.7692,-2.6106,-2.4409,-2.2841,-2.1109,-2.1109,-2.1109,-2.1109,-2.1109,-2.0962,-2.0668,-2.0548,-2.0321,-2.0027,-1.9733,-1.9679,-1.98,-1.98,-2.004,-2.0454,-2.0748,-2.0962,-2.1109,-2.1109,-2.1109,-2.1109,-2.6602,-2.7207,-2.7754,-2.7754,-2.8047,-2.8164,-2.7812,-2.7754,-2.7871,-2.8242,-2.7969,-2.7891,-2.8262,-2.7969,-2.7891,-2.8242,-2.8281,-2.8281,-2.8281,-2.8281,-2.8301,-2.8301,-2.8301,-2.8301,-2.8301,-2.8301,-2.8301,-2.8301,-3.103,-3.2331,-3.2331,-3.4945,-3.5571,-3.4362,-3.4006,-3.2446,-2.9911,-2.8794,-2.8555,-2.8926,-2.8535,-2.8544,-2.8984,-2.8476,-2.8301,-2.8281,-2.7863,-2.8009,-2.8223,-2.7812,-2.7988,-2.8359,-2.832,-2.834,-2.8437,-2.8809,-2.8926,-2.9004,-2.9453,-2.9531,-2.9492,-2.9492,-2.9726,-2.998,-3.0098,-2.9081,-2.83,-2.839,-2.6953,-2.5741,-2.5741,-2.5741,-2.6227,-2.8051,-2.9648,-3.0645,-3.0879,-3.0898,-3.0898,-3.0898,-3.0898,0.0,-3.0898,-3.0898,-3.0898,-3.0898,-3.0898,-3.0898,-3.0898,-2.9157,-2.7434,-2.6106,-2.4209,-2.2634,-2.1109,-2.1149,-2.1149,-2.1109,-2.1109,-2.0962,-2.0668,-2.0374,-2.0067,-1.9786,-1.9492,-1.9533,-1.98,-1.984,-2.0201,-2.0762,-2.1015,-2.1109,-2.1109,-2.1109,-2.1109,-2.1109,-2.7324,-2.7832,-2.8184,-2.8184,-2.8242,-2.8262,-2.8203,-2.8184,-2.8203,-2.8281,-2.8223,-2.8203,-2.8281,-2.8223,-2.8077,-2.7844,-2.8135,-2.8155,-2.7863,-2.8135,-2.8301,-2.8301,-2.8301,-2.8301,-2.8301,-2.8301,-2.8301,-2.8301,-3.103,-3.2331,-3.2331,-3.397,-3.4581,-3.4264,-3.2029,-3.0139,-2.8601,-2.8388,-2.876,-2.94,-2.8597,-2.8757,-2.9405,-2.8544,-2.8301,-2.8281,-2.8281,-2.8281,-2.8223,-2.7812,-2.8184,-2.875,-2.8398,-2.8535,-2.8828,-2.8906,-2.8926,-2.9004,-2.9453,-2.9316,-2.9023,-2.9023,-2.8828,-2.8809,-2.9512,-2.8445,-2.7517,-2.8282,-2.6106,-2.4054,-2.4054,-2.4054,-2.5024,-2.7931,-2.8664,-2.9275,-3.0762,-3.0898,-3.0898,-3.0898,-3.0898,-3.0898,-3.0898,-3.0898,-3.0898,-3.0898,-3.0898,-3.0898,-3.0898,-2.8068,-2.6349,-2.5984,-2.3325,-2.1733,-2.1109,-2.1349,-2.1349,-2.1109,-2.1109,-2.0962,-2.0668,-2.0374,-2.0067,-1.9786,-1.9492,-1.9533,-1.9813,-2.0054,-2.0508,-2.1042,-2.1082,-2.1109,-2.1109,-2.1109,-2.1109,-2.1109,-2.8144,-2.8301,-2.8359,-2.8574,-2.8437,-2.8301,-2.8301,-2.8105,-2.8047,-2.8262,-2.8105,-2.8047,-2.8262,-2.8105,-2.7902,-2.7718,-2.7921,-2.7921,-2.7699,-2.7921,-2.8066,-2.8281,-2.8301,-2.8301,-2.8301,-2.8301,-2.8301,-2.8301,-3.0328,-3.1235,-3.1338,-3.2655,-3.2955,-3.2151,-3.014,-2.8946,-2.8301,-2.8301,-2.8633,-2.918,-2.8569,-2.8703,-2.9172,-2.8486,-2.8301,-2.834,-2.8505,-2.8563,-2.8594,-2.8379,-2.8574,-2.8887,-2.8672,-2.875,-2.8867,-2.8652,-2.8594,-2.8633,-2.8848,-2.875,-2.8594,-2.8594,-2.8052,-2.7657,-2.8146,-2.6549,-2.5008,-2.5731,-2.3917,-2.2157,-2.2313,-2.2952,-2.4054,-2.5635,-2.7331,-2.8664,-2.953,-3.0392,-3.0898,-3.0898,-3.0898,-3.0528,-2.9648,-2.9648,-3.002,-3.0879,-3.0138,-2.9648,-2.9648,-2.7331,-2.5619,-2.4778,-2.2482,-2.1256,-2.1109,-2.1256,-2.1256,-2.1109,-2.1109,-2.0882,-2.0441,-2.0294,-1.9987,-1.9573,-1.9586,-1.976,-2.0054,-2.0508,-2.0855,-2.1109,-2.1109,-2.1109,-2.1109,-2.1109,-2.1109,-2.1109,-2.8672,-2.8594,-2.8496,-2.875,-2.8516,-2.8262,-2.8184,-2.7871,-2.7812,-2.8242,-2.793,-2.7832,-2.8242,-2.7988,-2.7785,-2.7699,-2.7824,-2.7785,-2.7699,-2.7824,-2.7949,-2.8281,-2.8301,-2.8301,-2.8301,-2.8301,-2.8301,-2.8301,-2.9618,-3.0307,-3.0307,-3.1418,-3.1133,-2.9807,-2.8794,-2.8301,-2.8301,-2.8349,-2.8661,-2.8829,-2.8573,-2.8573,-2.8881,-2.8408,-2.8359,-2.8516,-2.8797,-2.8953,-2.9062,-2.916,-2.9121,-2.9043,-2.8945,-2.8926,-2.8848,-2.8418,-2.8301,-2.832,-2.8398,-2.8203,-2.7898,-2.7975,-2.705,-2.6299,-2.6575,-2.4512,-2.2766,-2.3245,-2.1959,-2.0655,-2.0882,-2.2075,-2.3098,-2.3469,-2.5951,-2.8051,-2.8289,-2.9903,-3.0762,-3.0392,-3.0392,-2.9766,-2.8051,-2.7572,-2.8068,-2.9785,-2.8664,-2.7931,-2.7931,-2.6349,-2.4901,-2.3698,-2.2034,-2.1176,-2.1109,-2.1176,-2.1176,-2.1109,-2.1109,-2.0869,-2.0414,-2.0347,-2.008,-1.9653,-1.9813,-2.0054,-2.0374,-2.0895,-2.1109,-2.1109,-2.1109,-2.1109,-2.1109,-2.1109,-2.1109,-2.1109,-2.8418,-2.8633,-2.875,-2.8418,-2.832,-2.8164,-2.7793,-2.7695,-2.7812,-2.8242,-2.793,-2.7832,-2.8242,-2.8262,-2.8096,-2.7718,-2.799,-2.8096,-2.7718,-2.799,-2.8262,-2.8301,-2.8301,-2.8301,-2.8301,-2.8301,-2.8301,-2.8301,-2.9618,-3.0307,-3.0307,-3.0411,-2.9807,-2.8495,-2.8388,-2.8301,-2.834,-2.8674,-2.8872,-2.893,-2.8818,-2.8818,-2.8853,-2.8447,-2.8486,-2.8894,-2.8855,-2.918,-2.957,-2.9941,-2.9824,-2.9434,-2.9043,-2.8926,-2.8848,-2.8418,-2.8301,-2.8379,-2.875,-2.7732,-2.6807,-2.7151,-2.5856,-2.458,-2.5061,-2.3488,-2.2228,-2.2721,-2.1477,-2.0281,-2.0307,-2.0658,-2.1437,-2.2882,-2.4923,-2.6712,-2.817,-2.9903,-3.0392,-2.8783,-2.8664,-2.8051,-2.6349,-2.4901,-2.4655,-2.6349,-2.6349,-2.6227,-2.6227,-2.4655,-2.3822,-2.3574,-2.2243,-2.139,-2.1109,-2.1376,-2.1376,-2.1109,-2.1109,-2.1082,-2.1015,-2.0748,-2.0601,-2.0548,-2.0294,-2.0361,-2.0655,-2.0975,-2.1109,-2.1109,-2.1109,-2.1109,-2.1109,-2.1109,-2.1109,-2.1109,-2.8594,-2.8594,-2.8574,-2.8652,-2.8457,-2.8144,-2.7734,-2.7676,-2.7734,-2.7891,-2.7773,-2.7832,-2.8242,-2.8301,-2.8155,-2.7718,-2.7902,-2.7882,-2.7699,-2.7902,-2.8027,-2.8281,-2.8301,-2.8301,-2.8301,-2.8301,-2.8301,-2.8301,-2.8794,-2.9112,-2.9112,-2.9112,-2.8933,-2.8672,-2.8672,-2.8809,-2.9062,-2.9238,-2.9133,-2.8911,-2.8875,-2.8789,-2.8494,-2.8398,-2.8574,-2.8914,-2.9238,-2.9551,-2.9941,-3.0141,-2.9984,-2.9551,-2.9355,-2.9141,-2.8848,-2.8418,-2.8476,-2.8474,-2.764,-2.7176,-2.6644,-2.5646,-2.4122,-2.2906,-2.3162,-2.1787,-2.0578,-2.1068,-2.0698,-2.0227,-2.0227,-2.0481,-2.0916,-2.1519,-2.335,-2.5146,-2.6712,-2.8426,-2.9157,-2.8545,-2.8426,-2.7364,-2.4479,-2.3809,-2.336,-2.2921,-2.3932,-2.4532,-2.4532,-2.3931,-2.3076,-2.209,-2.1597,-2.1229,-2.1109,-2.1229,-2.1229,-2.1109,-2.1109,-2.1015,-2.0842,-2.0735,-2.0681,-2.0668,-2.0548,-2.0668,-2.0949,-2.1069,-2.1109,-2.1109,-2.1109,-2.1109,-2.1109,-2.1109,-2.1109,-2.1109,-2.8437,-2.8418,-2.834,-2.8516,-2.8398,-2.8144,-2.7734,-2.7676,-2.7676,-2.7676,-2.7676,-2.7832,-2.8242,-2.8301,-2.8155,-2.7863,-2.7882,-2.7843,-2.7863,-2.7863,-2.7988,-2.8281,-2.8301,-2.8301,-2.8301,-2.8301,-2.8359,-2.8476,-2.8359,-2.8359,-2.8476,-2.8476,-2.8633,-2.8926,-2.9062,-2.9199,-2.9375,-2.9577,-2.9244,-2.8761,-2.8828,-2.8741,-2.8505,-2.8447,-2.8848,-2.9336,-2.9648,-3.0,-3.0351,-3.0277,-2.9986,-2.9551,-2.9453,-2.9199,-2.8739,-2.8013,-2.8096,-2.8106,-2.6512,-2.6036,-2.5628,-2.4428,-2.2716,-2.1524,-2.1524,-2.0419,-1.9479,-1.9893,-1.9973,-1.9973,-1.9973,-2.0214,-2.0441,-2.0535,-2.2124,-2.3824,-2.513,-2.6712,-2.7572,-2.7091,-2.697,-2.5781,-2.2754,-2.2697,-2.2256,-2.094,-2.2103,-2.2827,-2.2827,-2.2827,-2.2341,-2.1109,-2.1109,-2.1109,-2.1109,-2.1109,-2.1109,-2.1109,-2.1109,-2.1002,-2.0802,-2.0802,-2.0802,-2.0802,-2.0802,-2.0922,-2.1109,-2.1109,-2.1109,-2.1109,-2.1109,-2.1109,-2.1109,-2.1109,-2.1109,-2.1109,-2.7676,-2.8008,-2.8164,-2.7754,-2.8027,-2.8144,-2.7734,-2.7676,-2.7676,-2.7676,-2.7676,-2.7832,-2.8242,-2.8301,-2.8301,-2.8281,-2.8281,-2.8281,-2.8281,-2.8281,-2.8281,-2.8301,-2.8301,-2.8301,-2.8301,-2.8301,-2.8496,-2.8906,-2.8496,-2.8496,-2.8906,-2.8906,-2.8906,-2.8945,-2.9375,-2.9336,-2.8945,-2.9375,-2.9099,-2.835,-2.8699,-2.8868,-2.8911,-2.8939,-2.942,-3.0176,-3.0176,-3.0488,-3.0859,-3.0412,-2.9986,-2.9512,-2.9089,-2.8914,-2.8578,-2.6993,-2.6816,-2.6849,-2.5679,-2.4123,-2.3033,-2.3469,-2.1859,-2.0227,-2.0227,-1.9786,-1.9372,-1.9372,-1.9372,-1.9372,-1.9372,-1.9613,-1.9907,-2.0187,-2.1797,-2.32,-2.3529,-2.5024,-2.5497,-2.3822,-2.3698,-2.2952,-2.1348,-2.1109,-2.1109,-2.1109,-2.1109,-2.1109,-2.1109,-2.1109,-2.1109,-2.1109,-2.1109,-2.1109,-2.1109,-2.1109,-2.1109,-2.1109,-2.1109,-2.1109,-2.1109,-2.1109,-2.1109,-2.1109,-2.1109,-2.1109,-2.1109,-2.1109,-2.1109,-2.1109,-2.1109,-2.1109,-2.1109,-2.1109,-2.1109,-2.1109,-2.7969,-2.7969,-2.791,-2.8066,-2.8203,-2.8144,-2.7734,-2.791,-2.7988,-2.7715,-2.791,-2.8144,-2.8281,-2.8301,-2.8301,-2.8301,-2.8301,-2.8301,-2.8301,-2.8301,-2.8301,-2.8301,-2.8301,-2.8301,-2.8301,-2.8301,-2.8496,-2.8926,-2.8496,-2.8359,-2.8496,-2.8789,-2.9082,-2.9375,-2.9805,-2.9922,-2.9805,-2.9941,-2.9521,-2.8799,-2.9172,-2.8991,-2.8583,-2.9108,-2.957,-2.9805,-3.0098,-3.0488,-3.082,-2.9987,-2.9692,-2.9336,-2.7735,-2.7251,-2.7178,-2.6983,-2.6388,-2.5527,-2.4107,-2.3308,-2.2808,-2.1624,-2.0577,-1.988,-1.9693,-1.9506,-1.9372,-1.9372,-1.9372,-1.9372,-1.9372,-1.9599,-1.9893,-2.0187,-2.0958,-2.1987,-2.3405,-2.4054,-2.4178,-2.3698,-2.3574,-2.2879,-2.0953,-2.0989,-2.1029,-2.0828,-2.1002,-2.1109,-2.1109,-2.1109,-2.1109,-2.1109,-2.1109,-2.1109,-2.1109,-2.1109,-2.1109,-2.1109,-2.1109,-2.1109,-2.1109,-2.1109,-2.1109,-2.1109,-2.1109,-2.1109,-2.1109,-2.1109,-2.1109,-2.1109,-2.1109,-2.1109,-2.1109,-2.1109,-2.1109,-2.1109,-2.7949,-2.7969,-2.793,-2.8047,-2.8184,-2.8203,-2.793,-2.8125,-2.8203,-2.793,-2.8125,-2.8301,-2.8301,-2.8301,-2.8301,-2.8301,-2.8301,-2.8301,-2.8301,-2.8301,-2.8301,-2.8301,-2.8301,-2.8301,-2.8301,-2.8301,-2.8574,-2.916,-2.8906,-2.8613,-2.8301,-2.8887,-2.9316,-2.959,-3.0195,-3.0293,-3.0113,-3.0113,-2.9609,-2.8674,-2.9258,-2.9167,-2.8848,-2.9439,-2.9844,-3.0098,-3.0198,-3.0354,-3.0509,-2.9775,-2.9161,-2.8257,-2.7068,-2.5915,-2.5124,-2.5361,-2.5136,-2.4327,-2.2646,-2.2205,-2.1954,-2.0686,-2.0094,-1.972,-1.9439,-1.9372,-1.9372,-1.9372,-1.9372,-1.9372,-1.9372,-1.9519,-1.9733,-2.0027,-2.0321,-2.0931,-2.2205,-2.2558,-2.2673,-2.2558,-2.2644,-2.2145,-2.098,-2.1002,-2.1029,-2.0855,-2.1002,-2.1109,-2.1109,-2.1109,-2.1109,-2.1109,-2.1109,-2.1109,-2.1109,-2.1109,-2.1056,-2.0949,-2.0828,-2.0842,-2.0949,-2.0949,-2.0949,-2.0949,-2.1069,-2.1109,-2.1109,-2.1109,-2.1109,-2.1109,-2.1109,-2.1109,-2.1109,-2.1109,-2.1109,-2.1122,-2.7715,-2.8008,-2.8125,-2.7773,-2.8027,-2.8301,-2.8301,-2.8301,-2.8301,-2.8301,-2.8174,-2.8174,-2.8301,-2.8067,-2.8067,-2.8155,-2.8281,-2.8301,-2.8194,-2.8194,-2.8174,-2.796,-2.8067,-2.8174,-2.8174,-2.8174,-2.8563,-2.9492,-2.9512,-2.9101,-2.832,-2.9141,-2.9551,-2.9609,-3.0449,-3.0525,-3.0043,-3.0004,-2.938,-2.8398,-2.8937,-2.9385,-2.9659,-2.9661,-3.0198,-3.0781,-3.0393,-3.0257,-3.0161,-2.9736,-2.8351,-2.6733,-2.6946,-2.4907,-2.2572,-2.2899,-2.3212,-2.3076,-2.1475,-2.0882,-2.0641,-2.0641,-2.0201,-1.9693,-1.9426,-1.9372,-1.9359,-1.9345,-1.9359,-1.9359,-1.9345,-1.9359,-1.9466,-1.976,-2.0027,-2.0214,-2.0227,-2.0722,-2.0975,-2.0708,-2.0935,-2.1109,-2.1109,-2.1109,-2.1109,-2.1109,-2.1109,-2.1109,-2.1109,-2.1109,-2.1109,-2.1109,-2.0982,-2.0982,-2.0982,-2.0956,-2.081,-2.0668,-2.0401,-2.0414,-2.0681,-2.0695,-2.0695,-2.0695,-2.0989,-2.1109,-2.1109,-2.1109,-2.1109,-2.1109,-2.1109,-2.1109,-2.1109,-2.1136,-2.1136,-2.1189,-2.8086,-2.7969,-2.7891,-2.8105,-2.8223,-2.8301,-2.8301,-2.8301,-2.8301,-2.8301,-2.7276,-2.706,-2.8174,-2.6282,-2.53,-2.6509,-2.7592,-2.7764,-2.6719,-2.7676,-2.7276,-2.4948,-2.5936,-2.6608,-2.6608,-2.6608,-2.7262,-2.8594,-2.8906,-2.8809,-2.8301,-2.8828,-2.9258,-2.959,-2.9984,-3.0101,-3.0019,-2.9839,-2.9466,-2.8965,-2.9192,-2.9394,-2.9637,-3.0334,-3.0522,-3.0426,-3.0701,-3.0451,-3.0142,-2.9789,-2.8464,-2.6795,-2.5628,-2.4095,-2.2914,-2.3365,-2.2659,-2.1601,-2.1235,-2.0735,-2.0334,-2.0334,-1.9893,-1.9452,-1.9386,-1.9372,-1.9305,-1.9078,-1.9212,-1.9292,-1.9078,-1.9212,-1.9466,-1.976,-1.9853,-1.9987,-2.0201,-2.0548,-2.0748,-2.0681,-2.0935,-2.1109,-2.1109,-2.1109,-2.1109,-2.1109,-2.1109,-2.1109,-2.1109,-2.1109,-2.1109,-2.1109,-1.9801,-1.9152,-1.9152,-1.8957,-1.9462,-2.0681,-2.0601,-2.0615,-2.0681,-2.0909,-2.0882,-2.0695,-2.0989,-2.1109,-2.1109,-2.1109,-2.1109,-2.1109,-2.1109,-2.1109,-2.1136,-2.1363,-2.1443,-2.1483,-2.8203,-2.8105,-2.8027,-2.8262,-2.8301,-2.8067,-2.7384,-2.7276,-2.7023,-2.6371,-2.5555,-2.5296,-2.6172,-2.4761,-2.4105,-2.4959,-2.5737,-2.5936,-2.5116,-2.5809,-2.5498,-2.3822,-2.4599,-2.5041,-2.5041,-2.5717,-2.6825,-2.8301,-2.8711,-2.8809,-2.8594,-2.9023,-2.9453,-2.9863,-3.025,-3.0403,-3.0359,-3.0254,-2.9865,-2.9459,-2.9813,-2.9976,-2.9928,-3.0393,-3.0508,-3.0497,-3.0529,-3.0432,-3.0045,-2.9107,-2.7622,-2.5863,-2.4332,-2.2931,-2.1944,-2.2381,-2.1853,-2.1109,-2.1109,-2.0681,-2.0174,-1.9907,-1.9599,-1.9372,-1.9372,-1.9265,-1.9158,-1.9132,-1.9145,-1.9158,-1.9132,-1.9265,-1.9412,-1.9573,-1.972,-1.9813,-1.9826,-2.0321,-2.0628,-2.0494,-2.0855,-2.0843,-1.9941,-2.0589,-2.0716,-1.9941,-2.0589,-2.1109,-2.1109,-2.0322,-1.9941,-1.9941,-1.9024,-1.8058,-1.7169,-1.7575,-1.8705,-2.0468,-2.0334,-2.0347,-2.0481,-2.0775,-2.0828,-2.0695,-2.0989,-2.1109,-2.1109,-2.1109,-2.1109,-2.1122,-2.1256,-2.1229,-2.1162,-2.159,-2.167,-2.1617,-2.7542,-2.7618,-2.7618,-2.7618,-2.7618,-2.7168,-2.5936,-2.5791,-2.5283,-2.4014,-2.3595,-2.3536,-2.3731,-2.3376,-2.3263,-2.3471,-2.3263,-2.3199,-2.3497,-2.3628,-2.3599,-2.3151,-2.3375,-2.3487,-2.3487,-2.5151,-2.6825,-2.8301,-2.8652,-2.8848,-2.8926,-2.9297,-2.9726,-3.0195,-3.0522,-3.065,-3.0678,-3.0882,-3.0458,-2.9774,-3.0211,-3.0258,-2.9925,-2.971,-2.9766,-3.0058,-2.971,-2.9517,-2.9306,-2.7939,-2.615,-2.4364,-2.3263,-2.1916,-2.0788,-2.1042,-2.1109,-2.1096,-2.1056,-2.0615,-2.004,-1.9506,-1.9372,-1.9372,-1.9372,-1.9172,-1.9052,-1.9252,-1.9132,-1.9052,-1.9265,-1.9332,-1.9372,-1.9372,-1.9573,-1.9653,-1.9399,-2.008,-2.0521,-2.0267,-2.0499,-2.0068,-1.864,-1.9814,-2.0068,-1.864,-2.0068,-2.0982,-2.0716,-1.9291,-1.8244,-1.7731,-1.7731,-1.7074,-1.5656,-1.6475,-1.807,-2.016,-1.996,-2.0,-2.0241,-2.0588,-2.0722,-2.0695,-2.0989,-2.1109,-2.1109,-2.1109,-2.1136,-2.1203,-2.1456,-2.143,-2.1309,-2.1844,-2.1897,-2.1764,-2.4488,-2.4488,-2.4488,-2.4488,-2.4488,-2.4378,-2.4156,-2.4132,-2.4031,-2.3778,-2.2768,-2.2363,-2.3618,-2.1591,-2.0573,-2.1835,-2.0787,-2.0587,-2.1881,-2.3135,-2.2717,-2.0155,-2.1259,-2.1911,-2.1911,-2.471,-2.6825,-2.8301,-2.8359,-2.8574,-2.8926,-2.8984,-2.9434,-3.0195,-2.9889,-2.9776,-2.9872,-3.0581,-3.0774,-3.049,-2.8774,-2.8355,-2.8553,-2.7176,-2.6722,-2.6705,-2.6641,-2.6422,-2.5963,-2.5727,-2.4527,-2.3216,-2.2956,-2.2058,-2.1056,-2.1096,-2.1109,-2.1056,-2.0815,-2.0307,-1.9786,-1.9452,-1.9372,-1.9372,-1.9372,-1.9332,-1.9239,-1.9038,-1.9158,-1.9239,-1.9025,-1.9199,-1.9372,-1.9372,-1.9399,-1.9412,-1.9372,-1.9907,-2.0281,-2.0241,-1.9475,-1.8768,-1.8512,-1.8768,-1.8768,-1.85,-2.0068,-2.0462,-1.9024,-1.864,-1.7205,-1.4232,-1.4101,-1.4438,-1.5057,-1.5166,-1.6759,-1.9867,-2.0067,-2.0187,-2.0254,-2.0802,-2.0909,-2.0695,-2.0989,-2.1109,-2.1109,-2.1109,-2.1256,-2.1496,-2.1537,-2.167,-2.1884,-2.2231,-2.2325,-2.2338,-2.3789,-2.3822,-2.3822,-2.3822,-2.3822,-2.3487,-2.2702,-2.2607,-2.2321,-2.1481,-2.0858,-2.0702,-2.1362,-2.0197,-1.9693,-2.0329,-1.9795,-1.9707,-2.0371,-2.1045,-2.0816,-1.9475,-2.004,-2.1145,-2.2702,-2.4156,-2.5936,-2.8301,-2.8516,-2.8848,-2.9277,-2.9492,-2.9961,-3.0566,-3.0332,-3.0312,-3.0334,-3.0734,-3.0928,-3.0721,-2.8454,-2.7872,-2.8259,-2.6587,-2.5994,-2.5994,-2.6017,-2.5846,-2.557,-2.4711,-2.3822,-2.3102,-2.2242,-2.1491,-2.1109,-2.1109,-2.1002,-2.0815,-2.0521,-2.012,-1.9733,-1.9439,-1.9372,-1.9372,-1.9372,-1.9239,-1.9132,-1.9158,-1.9145,-1.9132,-1.9158,-1.9279,-1.9372,-1.9372,-1.9372,-1.9372,-1.9372,-1.9867,-1.9863,-1.8863,-1.8572,-1.7731,-1.5913,-1.7345,-1.8116,-1.7216,-1.9546,-2.0716,-1.9941,-1.8116,-1.6302,-1.4754,-1.3734,-1.3806,-1.5008,-1.6006,-1.7611,-1.98,-2.0254,-2.0468,-2.0481,-2.0909,-2.1042,-2.0922,-2.1056,-2.1109,-2.1109,-2.1109,-2.1283,-2.1563,-2.1724,-2.1871,-2.2044,-2.2485,-2.2552,-2.2485,-2.2783,-2.283,-2.283,-2.283,-2.283,-2.2379,-2.1259,-2.1101,-2.0644,-1.9591,-1.9372,-1.9372,-1.9372,-1.9372,-1.9372,-1.9372,-1.9372,-1.9372,-1.9372,-1.9372,-1.9372,-1.9372,-1.9372,-2.0601,-2.3263,-2.3263,-2.4761,-2.7879,-2.8205,-2.8848,-2.9726,-2.9698,-2.9853,-3.0255,-3.0161,-3.0431,-3.0836,-3.0373,-3.0469,-3.0718,-2.8645,-2.8045,-2.817,-2.6227,-2.5497,-2.5375,-2.5008,-2.4857,-2.4719,-2.3494,-2.2957,-2.2835,-2.1543,-2.1109,-2.1109,-2.1109,-2.0909,-2.0615,-2.0307,-2.0013,-1.9733,-1.9439,-1.9372,-1.9372,-1.9372,-1.9185,-1.9092,-1.9319,-1.9185,-1.9092,-1.9332,-1.9372,-1.9372,-1.9372,-1.9372,-1.9399,-1.9452,-1.9535,-1.9132,-1.7819,-1.7461,-1.6302,-1.3578,-1.6043,-1.7345,-1.6043,-1.9152,-2.0982,-2.0462,-1.7602,-1.5654,-1.5265,-1.3904,-1.3988,-1.5711,-1.7145,-1.8629,-1.9907,-2.0428,-2.0681,-2.0681,-2.0975,-2.1109,-2.1109,-2.1109,-2.1109,-2.1109,-2.1189,-2.139,-2.1683,-2.1977,-2.2124,-2.2258,-2.2779,-2.2819,-2.2712,-1.9693,-1.9707,-1.9707,-1.9707,-1.9707,-1.9707,-1.9591,-1.9591,-1.9475,-1.9359,-1.9372,-1.9372,-1.9372,-1.9372,-1.9372,-1.9372,-1.9372,-1.9372,-1.9372,-1.9372,-1.9372,-1.9372,-1.9372,-2.0141,-2.1699,-2.1813,-2.3424,-2.6846,-2.6882,-2.7977,-3.0156,-2.8644,-2.8165,-2.8545,-2.8108,-2.8974,-3.0796,-2.8755,-2.9002,-3.0704,-2.9058,-2.8392,-2.8051,-2.4901,-2.3822,-2.3574,-2.1964,-2.1488,-2.1488,-2.1362,-2.1249,-2.1249,-2.1109,-2.1109,-2.1109,-2.1109,-2.0909,-2.0615,-2.0307,-2.0013,-1.9733,-1.9439,-1.9372,-1.9372,-1.9372,-1.9345,-1.9345,-1.9359,-1.9345,-1.9345,-1.9359,-1.9372,-1.9372,-1.9372,-1.9372,-1.9466,-1.9733,-1.8676,-1.7831,-1.8066,-1.5515,-1.3578,-1.3325,-1.5005,-1.6043,-1.5913,-1.9152,-2.0462,-1.8768,-1.6947,-1.5135,-1.3578,-1.3268,-1.469,-1.7839,-1.7854,-1.8716,-2.0201,-2.0521,-2.0681,-2.0681,-2.0975,-2.1109,-2.1109,-2.1109,-2.1109,-2.1136,-2.1403,-2.1697,-2.1977,-2.2271,-2.2552,-2.2846,-2.3166,-2.3273,-2.33,-1.9372,-1.9372,-1.9372,-1.9372,-1.9372,-1.9372,-1.9372,-1.9372,-1.9372,-1.9372,-1.9372,-1.9372,-1.9372,-1.9372,-1.9372,-1.9372,-1.9372,-1.9372,-1.9372,-1.9372,-1.9372,-1.9372,-1.9546,-2.0316,-2.1769,-2.2094,-2.3193,-2.552,-2.5741,-2.6347,-2.7094,-2.6866,-2.6816,-2.6953,-2.6658,-2.7021,-2.7811,-2.8002,-2.8051,-2.7872,-2.7138,-2.6268,-2.5146,-2.2952,-2.209,-2.1978,-2.1362,-2.1109,-2.1109,-2.1109,-2.1109,-2.1109,-2.1109,-2.1109,-2.1109,-2.1109,-2.1029,-2.0882,-2.0588,-2.0294,-2.004,-1.9933,-1.9773,-1.9639,-1.9639,-1.9492,-1.9372,-1.9372,-1.9372,-1.9372,-1.9372,-1.9372,-1.9372,-1.9372,-1.9372,-1.9466,-1.976,-1.8567,-1.7337,-1.6571,-1.4622,-1.3325,-1.3325,-1.4884,-1.6302,-1.7474,-1.9674,-2.0843,-2.0195,-1.8512,-1.7216,-1.656,-1.6476,-1.6997,-1.8125,-1.9337,-2.0047,-2.0508,-2.0802,-2.0949,-2.0949,-2.1056,-2.1109,-2.1109,-2.1109,-2.1216,-2.139,-2.151,-2.183,-2.2258,-2.2378,-2.2712,-2.3166,-2.3287,-2.3447,-2.3647,-1.9372,-1.9372,-1.9372,-1.9372,-1.9372,-1.9372,-1.9372,-1.9372,-1.9372,-1.9372,-1.9372,-1.9372,-1.9372,-1.9372,-1.9372,-1.9372,-1.9372,-1.9372,-1.9372,-1.9372,-1.9412,-1.9506,-1.9693,-2.0301,-2.1421,-2.1651,-2.2513,-2.4252,-2.4492,-2.4907,-2.5485,-2.5384,-2.5253,-2.5253,-2.464,-2.47,-2.5335,-2.5879,-2.6089,-2.6044,-2.599,-2.5327,-2.4178,-2.2466,-2.1853,-2.1853,-2.1235,-2.1109,-2.1109,-2.1109,-2.1109,-2.1109,-2.1109,-2.1109,-2.1109,-2.1109,-2.1109,-2.1069,-2.0869,-2.0668,-2.0468,-2.0281,-2.0013,-1.98,-1.98,-1.9573,-1.9372,-1.9372,-1.9372,-1.9372,-1.9372,-1.9439,-1.9466,-1.9386,-1.9519,-1.947,-1.9176,-1.7824,-1.6452,-1.5032,-1.3379,-1.2676,-1.3193,-1.4884,-1.6431,-1.7602,-1.9801,-2.0843,-2.0322,-1.9674,-1.9024,-1.8512,-1.9024,-1.9206,-1.901,-2.0358,-2.1002,-2.0815,-2.1015,-2.1109,-2.1109,-2.1109,-2.1109,-2.1109,-2.1109,-2.1229,-2.143,-2.1617,-2.1924,-2.2298,-2.2485,-2.2873,-2.334,-2.3434,-2.3661,-2.3941,-1.9372,-1.9372,-1.9372,-1.9372,-1.9372,-1.9372,-1.9372,-1.9372,-1.9372,-1.9372,-1.9372,-1.9372,-1.9372,-1.9372,-1.9372,-1.9372,-1.9372,-1.9372,-1.9372,-1.9372,-1.9492,-1.9786,-1.98,-1.9947,-2.0227,-2.0241,-2.1091,-2.3081,-2.3081,-2.4084,-2.5984,-2.4301,-2.3574,-2.345,-2.1853,-2.1964,-2.345,-2.1853,-2.2937,-2.6001,-2.5954,-2.5921,-2.5741,-2.4178,-2.3574,-2.3325,-2.1727,-2.1109,-2.1109,-2.1109,-2.1109,-2.1109,-2.1109,-2.1109,-2.1109,-2.1109,-2.1109,-2.1109,-2.1109,-2.1109,-2.0975,-2.0388,-2.0027,-1.9813,-1.98,-1.9586,-1.9372,-1.9372,-1.9372,-1.9372,-1.9372,-1.9613,-1.9706,-1.9426,-1.9853,-1.9607,-1.7871,-1.6327,-1.4904,-1.343,-1.1762,-1.1372,-1.3193,-1.4874,-1.5913,-1.5913,-1.9152,-2.0322,-1.864,-2.0195,-2.0322,-1.864,-2.0195,-2.1109,-2.1109,-2.1109,-2.1109,-2.1109,-2.1109,-2.1109,-2.1109,-2.1109,-2.1109,-2.1109,-2.1109,-2.1109,-2.1162,-2.175,-2.1991,-2.2058,-2.2632,-2.306,-2.3367,-2.3661,-2.3955,-2.4249,-1.9372,-1.9372,-1.9372,-1.9372,-1.9372,-1.9372,-1.9372,-1.9372,-1.9372,-1.9372,-1.9372,-1.9372,-1.9372,-1.9372,-1.9372,-1.9372,-1.9372,-1.9372,-1.9372,-1.9372,-1.9586,-2.008,-2.0093,-2.0212,-2.0577,-2.0708,-2.1132,-2.1714,-2.1714,-2.1992,-2.2577,-2.209,-2.1853,-2.1853,-2.1362,-2.1362,-2.1853,-2.1362,-2.1727,-2.2716,-2.3813,-2.3643,-2.2452,-2.1964,-2.1853,-2.1727,-2.1235,-2.1109,-2.1109,-2.1109,-2.1109,-2.1109,-2.1109,-2.1109,-2.1109,-2.1109,-2.1109,-2.1109,-2.1109,-2.1109,-2.1069,-2.0895,-2.0628,-2.0361,-2.0147,-2.004,-1.992,-1.972,-1.9826,-1.9973,-1.9973,-2.004,-2.0067,-1.9987,-1.9127,-1.83,-1.7984,-1.5423,-1.3629,-1.3299,-1.1762,-1.1372,-1.3193,-1.3709,-1.5135,-1.7602,-1.9801,-2.0843,-2.0322,-2.0843,-2.0843,-2.0322,-2.0843,-2.1109,-2.1109,-2.1109,-2.1109,-2.1109,-2.1109,-2.1109,-2.1109,-2.1109,-2.1109,-2.1122,-2.1336,-2.1537,-2.175,-2.2138,-2.2405,-2.2645,-2.3033,-2.2499,-2.1473,-2.1897,-2.1261,-2.0441,-1.9372,-1.9372,-1.9372,-1.9372,-1.9372,-1.9372,-1.9372,-1.9372,-1.9372,-1.9372,-1.9372,-1.9372,-1.9372,-1.9372,-1.9372,-1.9372,-1.9372,-1.9372,-1.9372,-1.9372,-1.9599,-2.0227,-2.0239,-2.0451,-2.0886,-2.0989,-2.1109,-2.1109,-2.1109,-2.1109,-2.1109,-2.1109,-2.1109,-2.1109,-2.1109,-2.1109,-2.1109,-2.1109,-2.1109,-2.1249,-2.2258,-2.1977,-2.1109,-2.1109,-2.1109,-2.1109,-2.1109,-2.1109,-2.1109,-2.1109,-2.1109,-2.1109,-2.1109,-2.1109,-2.1109,-2.1109,-2.1109,-2.1109,-2.1109,-2.1109,-2.1109,-2.1109,-2.0895,-2.0628,-2.0454,-2.0321,-2.0187,-2.0,-2.0107,-2.0227,-2.0227,-2.0334,-2.0374,-2.0254,-1.8914,-1.7804,-1.7107,-1.4766,-1.2808,-1.2274,-1.1372,-1.1372,-1.3193,-1.3325,-1.4754,-1.8244,-1.8896,-1.9291,-2.0068,-2.0068,-2.0068,-2.0068,-2.0716,-2.1109,-2.1109,-2.1109,-2.1109,-2.1109,-2.1109,-2.1109,-2.1109,-2.1109,-2.1176,-2.1296,-2.147,-2.1724,-2.2004,-2.2298,-2.2525,-2.2726,-2.2306,-2.1481,-2.0573,-2.0083,-1.9426,-1.8723,-1.9359,-1.9372,-1.9372,-1.9372,-1.9372,-1.9372,-1.9372,-1.9256,-1.914,-1.9243,-1.9113,-1.8997,-1.8997,-1.8997,-1.901,-1.901,-1.9113,-1.9229,-1.9372,-1.9372,-1.9663,-2.0199,-2.0186,-2.0433,-2.1096,-2.1109,-2.1109,-2.1109,-2.1109,-2.1109,-2.1109,-2.1109,-2.1109,-2.1109,-2.1109,-2.1109,-2.1109,-2.1109,-2.1109,-2.1109,-2.1109,-2.1109,-2.1109,-2.1109,-2.1109,-2.1109,-2.1109,-2.1109,-2.1109,-2.1109,-2.1109,-2.1109,-2.1109,-2.1109,-2.1109,-2.1109,-2.1109,-2.1109,-2.1109,-2.1109,-2.1109,-2.1109,-2.0909,-2.0708,-2.0681,-2.0481,-2.0307,-2.0281,-2.0294,-2.0307,-2.0307,-2.0411,-2.0367,-2.0103,-1.8973,-1.7396,-1.5513,-1.3985,-1.2545,-1.085,-1.0717,-1.1372,-1.2931,-1.3193,-1.4623,-1.7859,-1.6689,-1.656,-1.8116,-1.8244,-1.8372,-1.8512,-2.0068,-2.0996,-2.1149,-2.1149,-2.1149,-2.1149,-2.1149,-2.1162,-2.1189,-2.1189,-2.1336,-2.159,-2.1617,-2.1777,-2.2044,-2.2204,-2.2202,-2.1997,-2.0566,-2.0055,-2.0016,-1.8484,-1.796,-1.8148,-1.91,-1.9372,-1.9372,-1.9372,-1.9372,-1.9372,-1.9372,-1.8311,-1.7479,-1.7572,-1.6434,-1.5686,-1.5686,-1.5633,-1.5677,-1.5677,-1.6774,-1.8056,-1.9359,-1.9372,-1.9663,-2.0199,-2.0186,-2.0433,-2.1096,-2.1109,-2.1109,-2.1109,-2.1109,-2.1109,-2.1109,-2.1109,-2.1109,-2.1109,-2.1109,-2.1109,-2.1109,-2.1109,-2.1109,-2.1109,-2.1109,-2.1109,-2.1109,-2.1109,-2.1109,-2.1109,-2.1109,-2.1109,-2.1109,-2.1109,-2.1109,-2.1109,-2.1109,-2.1109,-2.1109,-2.1109,-2.1109,-2.1109,-2.1109,-2.1109,-2.1109,-2.1109,-2.1069,-2.0949,-2.0722,-2.0802,-2.0855,-2.0628,-2.0762,-2.0922,-2.0922,-1.9802,-1.8927,-1.8867,-1.6368,-1.4214,-1.3787,-1.2389,-1.1115,-1.0717,-1.0717,-1.085,-1.124,-1.2545,-1.3587,-1.4362,-1.5394,-1.6043,-1.6431,-1.6431,-1.7076,-1.8512,-1.8896,-1.9914,-2.1456,-2.1456,-2.1456,-2.1456,-2.1456,-2.1577,-2.179,-2.179,-2.183,-2.1897,-2.2138,-2.2271,-2.2204,-2.1109,-2.0653,-2.059,-1.9029,-1.7526,-1.6265,-1.6161,-1.5138,-1.4243,-1.8068,-1.8842,-1.9372,-1.9372,-1.9372,-1.9127,-1.8402,-1.7584,-1.675,-1.5902,-1.515,-1.4657,-1.4657,-1.454,-1.46,-1.466,-1.5365,-1.6517,-1.8181,-1.8298,-1.8854,-2.0201,-2.0134,-2.0332,-2.0943,-2.0704,-2.0828,-2.1109,-2.1109,-2.1109,-2.1109,-2.1109,-2.1109,-2.1109,-2.1109,-2.1109,-2.1109,-2.1109,-2.1109,-2.1109,-2.1109,-2.1109,-2.1109,-2.1109,-2.1109,-2.1109,-2.1109,-2.1109,-2.1109,-2.1109,-2.1109,-2.1109,-2.1109,-2.1109,-2.1109,-2.1109,-2.1109,-2.1109,-2.1109,-2.1109,-2.1109,-2.1109,-2.1109,-2.1069,-2.0922,-2.1002,-2.1069,-2.0909,-2.1002,-2.0856,-2.0068,-1.9152,-1.8244,-1.7345,-1.5005,-1.3325,-1.3325,-1.1762,-1.0717,-1.0717,-1.0717,-1.0717,-1.0717,-1.2281,-1.3325,-1.3325,-1.4101,-1.466,-1.4762,-1.5682,-1.665,-1.7555,-1.9268,-2.0669,-2.1764,-2.1764,-2.183,-2.1964,-2.183,-2.1844,-2.1991,-2.1991,-2.2138,-2.2418,-2.2565,-2.2232,-2.1508,-2.065,-1.9929,-1.8918,-1.7243,-1.5913,-1.5002,-1.4361,-1.364,-1.3165,-1.6588,-1.7848,-1.8881,-1.8622,-1.8622,-1.8144,-1.6821,-1.6374,-1.5688,-1.4361,-1.4004,-1.3765,-1.3765,-1.3788,-1.3844,-1.412,-1.4242,-1.5032,-1.6903,-1.6997,-1.7946,-2.0133,-1.9987,-2.004,-2.0743,-2.0385,-2.0575,-2.0969,-2.1056,-2.1069,-2.1109,-2.1109,-2.1109,-2.1109,-2.1109,-2.1109,-2.1109,-2.1109,-2.1109,-2.1109,-2.1109,-2.1109,-2.1109,-2.1109,-2.1109,-2.1109,-2.1109,-2.1109,-2.1109,-2.1109,-2.1109,-2.1109,-2.1109,-2.1109,-2.1109,-2.1109,-2.1149,-2.1189,-2.1189,-2.1229,-2.1256,-2.1256,-2.1256,-2.1256,-2.1256,-2.1176,-2.1109,-2.1109,-2.0843,-2.0195,-1.8768,-1.7988,-1.7076,-1.5654,-1.397,-1.2816,-1.2856,-1.1659,-1.0738,-1.0792,-1.0799,-1.0785,-1.0765,-1.2094,-1.2897,-1.2897,-1.2897,-1.2962,-1.3108,-1.4976,-1.6131,-1.6581,-1.982,-2.174,-2.2058,-2.2058,-2.2071,-2.208,-2.2111,-2.2164,-2.2218,-2.2218,-2.2364,-2.2579,-2.2579,-2.1579,-2.0104,-1.9804,-1.881,-1.7106,-1.536,-1.4692,-1.4462,-1.3276,-1.2834,-1.3248,-1.4959,-1.62,-1.695,-1.5451,-1.5205,-1.5205,-1.4959,-1.3794,-1.2776,-1.2586,-1.1253,-1.0422,-1.0422,-1.0436,-1.0951,-1.2448,-1.2561,-1.3851,-1.6785,-1.702,-1.79,-2.006,-1.9986,-2.0107,-2.0657,-2.0713,-2.0637,-2.069,-2.0717,-2.0869,-2.1109,-2.1109,-2.1109,-2.1109,-2.1109,-2.1109,-2.1109,-2.1109,-2.1109,-2.1109,-2.1109,-2.1109,-2.1109,-2.1109,-2.1109,-2.1109,-2.1109,-2.1109,-2.1109,-2.1109,-2.1109,-2.1109,-2.1109,-2.1109,-2.1109,-2.1109,-2.1296,-2.1496,-2.1496,-2.1683,-2.1871,-2.1871,-2.1871,-2.1871,-2.1871,-2.147,-2.1109,-2.1109,-1.9941,-1.8768,-1.8512,-1.6043,-1.3962,-1.3674,-1.2134,-1.1038,-1.1219,-1.096,-1.0819,-1.107,-1.1104,-1.1056,-1.0928,-1.1302,-1.1509,-1.1509,-1.1509,-1.1516,-1.1544,-1.3303,-1.5073,-1.6591,-1.8608,-2.0609,-2.2352,-2.2365,-2.1675,-2.0419,-2.2056,-2.2886,-2.314,-2.314,-2.232,-2.1019,-2.1019,-1.9892,-1.7905,-1.6296,-1.5519,-1.5227,-1.3476,-1.2817,-1.2811,-1.2972,-1.2861,-1.2813,-1.3223,-1.4559,-1.5419,-1.4677,-1.4548,-1.4311,-1.3361,-1.2706,-1.1897,-1.1027,-1.0179,-0.9822,-0.9822,-0.9822,-1.0072,-1.0822,-1.1768,-1.3396,-1.5763,-1.6657,-1.8143,-2.0315,-1.9981,-2.0133,-2.0686,-2.0537,-2.0535,-2.069,-2.0836,-2.0989,-2.1109,-2.1109,-2.1109,-2.1109,-2.1109,-2.1109,-2.1109,-2.1109,-2.1109,-2.1109,-2.1109,-2.1109,-2.1109,-2.1109,-2.1109,-2.1109,-2.1109,-2.1109,-2.1109,-2.1109,-2.1109,-2.1136,-2.1309,-2.1363,-2.139,-2.155,-2.1697,-2.179,-2.179,-2.1884,-2.1991,-2.1991,-2.1991,-2.1991,-2.1991,-2.0968,-2.0052,-2.0098,-1.947,-1.8279,-1.6287,-1.4557,-1.321,-1.2342,-1.1461,-1.0982,-1.1016,-1.0989,-1.1016,-1.1145,-1.1165,-1.1138,-1.1077,-1.1124,-1.1165,-1.1165,-1.1165,-1.1199,-1.1287,-1.4035,-1.601,-1.6955,-1.8753,-2.0737,-2.2659,-2.1693,-2.0857,-2.0274,-2.0986,-2.0907,-2.0156,-2.1169,-2.0805,-1.9273,-1.9273,-1.8168,-1.6337,-1.5595,-1.4597,-1.361,-1.2706,-1.2549,-1.2773,-1.2915,-1.3024,-1.3132]}]]